<?xml version="1.0" encoding="UTF-8" standalone="no" ?>
<gpx xmlns="http://www.topografix.com/GPX/1/1" xmlns:xsi="http://www.w3.org/2001/XMLSchema-instance" xsi:schemaLocation="http://www.topografix.com/GPX/1/1 http://www.topografix.com/GPX/1/1/gpx.xsd" version="1.1" creator="VisuGPX - https://www.visugpx.com">
  <metadata>
    <name>Montagrier 13</name>
    <desc><![CDATA[Parcours noir - trace Montagrier n°13]]></desc>
  </metadata>
  <trk>
    <name><![CDATA[MONT 13 NOIR]]></name>
    <trkseg>
      <trkpt lat="45.26794" lon="0.47849">
        <ele>132.79998779297</ele>
        <time>2016-02-17T13:15:57Z</time>
      </trkpt>
      <trkpt lat="45.26798" lon="0.47855">
        <ele>133</ele>
        <time>2016-02-17T13:16:04Z</time>
      </trkpt>
      <trkpt lat="45.268" lon="0.47858">
        <ele>133</ele>
        <time>2016-02-17T13:16:07Z</time>
      </trkpt>
      <trkpt lat="45.26802" lon="0.4786">
        <ele>134</ele>
        <time>2016-02-17T13:16:11Z</time>
      </trkpt>
      <trkpt lat="45.26803" lon="0.47859">
        <ele>134.40002441406</ele>
        <time>2016-02-17T13:16:14Z</time>
      </trkpt>
      <trkpt lat="45.26804" lon="0.47859">
        <ele>134.40002441406</ele>
        <time>2016-02-17T13:16:15Z</time>
      </trkpt>
      <trkpt lat="45.26809" lon="0.47857">
        <ele>134.59997558594</ele>
        <time>2016-02-17T13:16:20Z</time>
      </trkpt>
      <trkpt lat="45.26817" lon="0.47852">
        <ele>135</ele>
        <time>2016-02-17T13:16:27Z</time>
      </trkpt>
      <trkpt lat="45.26819" lon="0.4785">
        <ele>135</ele>
        <time>2016-02-17T13:16:29Z</time>
      </trkpt>
      <trkpt lat="45.26827" lon="0.47847">
        <ele>135.40002441406</ele>
        <time>2016-02-17T13:16:34Z</time>
      </trkpt>
      <trkpt lat="45.26837" lon="0.4784">
        <ele>135.79998779297</ele>
        <time>2016-02-17T13:16:41Z</time>
      </trkpt>
      <trkpt lat="45.26852" lon="0.47833">
        <ele>136.20001220703</ele>
        <time>2016-02-17T13:16:48Z</time>
      </trkpt>
      <trkpt lat="45.26867" lon="0.47823">
        <ele>136.59997558594</ele>
        <time>2016-02-17T13:16:54Z</time>
      </trkpt>
      <trkpt lat="45.26891" lon="0.4781">
        <ele>137</ele>
        <time>2016-02-17T13:17:02Z</time>
      </trkpt>
      <trkpt lat="45.26895" lon="0.47808">
        <ele>137.20001220703</ele>
        <time>2016-02-17T13:17:03Z</time>
      </trkpt>
      <trkpt lat="45.26912" lon="0.4781">
        <ele>137.59997558594</ele>
        <time>2016-02-17T13:17:08Z</time>
      </trkpt>
      <trkpt lat="45.26915" lon="0.4781">
        <ele>137.59997558594</ele>
        <time>2016-02-17T13:17:09Z</time>
      </trkpt>
      <trkpt lat="45.26922" lon="0.47807">
        <ele>137.59997558594</ele>
        <time>2016-02-17T13:17:11Z</time>
      </trkpt>
      <trkpt lat="45.26934" lon="0.47799">
        <ele>137.59997558594</ele>
        <time>2016-02-17T13:17:14Z</time>
      </trkpt>
      <trkpt lat="45.26942" lon="0.47793">
        <ele>137.40002441406</ele>
        <time>2016-02-17T13:17:16Z</time>
      </trkpt>
      <trkpt lat="45.26968" lon="0.47775">
        <ele>137.79998779297</ele>
        <time>2016-02-17T13:17:23Z</time>
      </trkpt>
      <trkpt lat="45.26985" lon="0.47763">
        <ele>138.40002441406</ele>
        <time>2016-02-17T13:17:27Z</time>
      </trkpt>
      <trkpt lat="45.27004" lon="0.47746">
        <ele>139.20001220703</ele>
        <time>2016-02-17T13:17:32Z</time>
      </trkpt>
      <trkpt lat="45.27008" lon="0.47743">
        <ele>139.40002441406</ele>
        <time>2016-02-17T13:17:33Z</time>
      </trkpt>
      <trkpt lat="45.27023" lon="0.47732">
        <ele>139.79998779297</ele>
        <time>2016-02-17T13:17:37Z</time>
      </trkpt>
      <trkpt lat="45.27029" lon="0.47723">
        <ele>140</ele>
        <time>2016-02-17T13:17:39Z</time>
      </trkpt>
      <trkpt lat="45.27034" lon="0.47714">
        <ele>140.20001220703</ele>
        <time>2016-02-17T13:17:41Z</time>
      </trkpt>
      <trkpt lat="45.27049" lon="0.47701">
        <ele>140.40002441406</ele>
        <time>2016-02-17T13:17:45Z</time>
      </trkpt>
      <trkpt lat="45.27053" lon="0.47698">
        <ele>140.40002441406</ele>
        <time>2016-02-17T13:17:46Z</time>
      </trkpt>
      <trkpt lat="45.27075" lon="0.47681">
        <ele>141</ele>
        <time>2016-02-17T13:17:52Z</time>
      </trkpt>
      <trkpt lat="45.27082" lon="0.47673">
        <ele>141.20001220703</ele>
        <time>2016-02-17T13:17:54Z</time>
      </trkpt>
      <trkpt lat="45.27089" lon="0.47667">
        <ele>141.20001220703</ele>
        <time>2016-02-17T13:17:56Z</time>
      </trkpt>
      <trkpt lat="45.27107" lon="0.47651">
        <ele>141.20001220703</ele>
        <time>2016-02-17T13:18:01Z</time>
      </trkpt>
      <trkpt lat="45.27132" lon="0.47643">
        <ele>141.20001220703</ele>
        <time>2016-02-17T13:18:06Z</time>
      </trkpt>
      <trkpt lat="45.27173" lon="0.47621">
        <ele>140.79998779297</ele>
        <time>2016-02-17T13:18:14Z</time>
      </trkpt>
      <trkpt lat="45.27218" lon="0.47591">
        <ele>140.40002441406</ele>
        <time>2016-02-17T13:18:23Z</time>
      </trkpt>
      <trkpt lat="45.27235" lon="0.4758">
        <ele>140.40002441406</ele>
        <time>2016-02-17T13:18:27Z</time>
      </trkpt>
      <trkpt lat="45.27241" lon="0.47572">
        <ele>140.79998779297</ele>
        <time>2016-02-17T13:18:29Z</time>
      </trkpt>
      <trkpt lat="45.27246" lon="0.47557">
        <ele>141.79998779297</ele>
        <time>2016-02-17T13:18:32Z</time>
      </trkpt>
      <trkpt lat="45.27248" lon="0.47552">
        <ele>142.20001220703</ele>
        <time>2016-02-17T13:18:33Z</time>
      </trkpt>
      <trkpt lat="45.27248" lon="0.47547">
        <ele>142.59997558594</ele>
        <time>2016-02-17T13:18:34Z</time>
      </trkpt>
      <trkpt lat="45.2725" lon="0.47536">
        <ele>143</ele>
        <time>2016-02-17T13:18:36Z</time>
      </trkpt>
      <trkpt lat="45.27259" lon="0.475">
        <ele>144</ele>
        <time>2016-02-17T13:18:43Z</time>
      </trkpt>
      <trkpt lat="45.2726" lon="0.47495">
        <ele>144</ele>
        <time>2016-02-17T13:18:44Z</time>
      </trkpt>
      <trkpt lat="45.27269" lon="0.47459">
        <ele>145.40002441406</ele>
        <time>2016-02-17T13:18:51Z</time>
      </trkpt>
      <trkpt lat="45.27273" lon="0.47429">
        <ele>146.59997558594</ele>
        <time>2016-02-17T13:18:57Z</time>
      </trkpt>
      <trkpt lat="45.27274" lon="0.47414">
        <ele>147</ele>
        <time>2016-02-17T13:19:00Z</time>
      </trkpt>
      <trkpt lat="45.27277" lon="0.4739">
        <ele>147.79998779297</ele>
        <time>2016-02-17T13:19:05Z</time>
      </trkpt>
      <trkpt lat="45.27277" lon="0.47386">
        <ele>147.79998779297</ele>
        <time>2016-02-17T13:19:06Z</time>
      </trkpt>
      <trkpt lat="45.27276" lon="0.47366">
        <ele>148.79998779297</ele>
        <time>2016-02-17T13:19:11Z</time>
      </trkpt>
      <trkpt lat="45.27275" lon="0.47362">
        <ele>149.20001220703</ele>
        <time>2016-02-17T13:19:12Z</time>
      </trkpt>
      <trkpt lat="45.27275" lon="0.47354">
        <ele>149.79998779297</ele>
        <time>2016-02-17T13:19:14Z</time>
      </trkpt>
      <trkpt lat="45.27275" lon="0.47347">
        <ele>151</ele>
        <time>2016-02-17T13:19:16Z</time>
      </trkpt>
      <trkpt lat="45.27275" lon="0.47335">
        <ele>152.20001220703</ele>
        <time>2016-02-17T13:19:19Z</time>
      </trkpt>
      <trkpt lat="45.27275" lon="0.47332">
        <ele>152.59997558594</ele>
        <time>2016-02-17T13:19:20Z</time>
      </trkpt>
      <trkpt lat="45.27275" lon="0.47321">
        <ele>153.40002441406</ele>
        <time>2016-02-17T13:19:23Z</time>
      </trkpt>
      <trkpt lat="45.27277" lon="0.47306">
        <ele>154.79998779297</ele>
        <time>2016-02-17T13:19:27Z</time>
      </trkpt>
      <trkpt lat="45.27278" lon="0.47292">
        <ele>156</ele>
        <time>2016-02-17T13:19:31Z</time>
      </trkpt>
      <trkpt lat="45.2728" lon="0.4728">
        <ele>156.79998779297</ele>
        <time>2016-02-17T13:19:34Z</time>
      </trkpt>
      <trkpt lat="45.27281" lon="0.47277">
        <ele>157.20001220703</ele>
        <time>2016-02-17T13:19:35Z</time>
      </trkpt>
      <trkpt lat="45.27284" lon="0.47266">
        <ele>158.20001220703</ele>
        <time>2016-02-17T13:19:38Z</time>
      </trkpt>
      <trkpt lat="45.27287" lon="0.47259">
        <ele>159</ele>
        <time>2016-02-17T13:19:40Z</time>
      </trkpt>
      <trkpt lat="45.27288" lon="0.47255">
        <ele>159.40002441406</ele>
        <time>2016-02-17T13:19:41Z</time>
      </trkpt>
      <trkpt lat="45.27292" lon="0.47238">
        <ele>160.59997558594</ele>
        <time>2016-02-17T13:19:45Z</time>
      </trkpt>
      <trkpt lat="45.27294" lon="0.47234">
        <ele>160.79998779297</ele>
        <time>2016-02-17T13:19:46Z</time>
      </trkpt>
      <trkpt lat="45.27298" lon="0.47219">
        <ele>161.59997558594</ele>
        <time>2016-02-17T13:19:50Z</time>
      </trkpt>
      <trkpt lat="45.27298" lon="0.4721">
        <ele>162.20001220703</ele>
        <time>2016-02-17T13:19:52Z</time>
      </trkpt>
      <trkpt lat="45.273" lon="0.472">
        <ele>162.79998779297</ele>
        <time>2016-02-17T13:19:55Z</time>
      </trkpt>
      <trkpt lat="45.27302" lon="0.47191">
        <ele>163.40002441406</ele>
        <time>2016-02-17T13:19:57Z</time>
      </trkpt>
      <trkpt lat="45.27305" lon="0.47175">
        <ele>164</ele>
        <time>2016-02-17T13:20:01Z</time>
      </trkpt>
      <trkpt lat="45.27306" lon="0.47167">
        <ele>164.59997558594</ele>
        <time>2016-02-17T13:20:03Z</time>
      </trkpt>
      <trkpt lat="45.27307" lon="0.47155">
        <ele>165.20001220703</ele>
        <time>2016-02-17T13:20:06Z</time>
      </trkpt>
      <trkpt lat="45.27308" lon="0.47141">
        <ele>165.59997558594</ele>
        <time>2016-02-17T13:20:09Z</time>
      </trkpt>
      <trkpt lat="45.27309" lon="0.47129">
        <ele>166.40002441406</ele>
        <time>2016-02-17T13:20:12Z</time>
      </trkpt>
      <trkpt lat="45.27312" lon="0.47112">
        <ele>167.40002441406</ele>
        <time>2016-02-17T13:20:16Z</time>
      </trkpt>
      <trkpt lat="45.27317" lon="0.47096">
        <ele>168.40002441406</ele>
        <time>2016-02-17T13:20:20Z</time>
      </trkpt>
      <trkpt lat="45.27321" lon="0.47089">
        <ele>168.79998779297</ele>
        <time>2016-02-17T13:20:22Z</time>
      </trkpt>
      <trkpt lat="45.27331" lon="0.47071">
        <ele>169.59997558594</ele>
        <time>2016-02-17T13:20:27Z</time>
      </trkpt>
      <trkpt lat="45.27336" lon="0.47059">
        <ele>170</ele>
        <time>2016-02-17T13:20:30Z</time>
      </trkpt>
      <trkpt lat="45.27343" lon="0.47028">
        <ele>170.59997558594</ele>
        <time>2016-02-17T13:20:36Z</time>
      </trkpt>
      <trkpt lat="45.27345" lon="0.47017">
        <ele>170.59997558594</ele>
        <time>2016-02-17T13:20:38Z</time>
      </trkpt>
      <trkpt lat="45.2735" lon="0.46997">
        <ele>170.79998779297</ele>
        <time>2016-02-17T13:20:42Z</time>
      </trkpt>
      <trkpt lat="45.2736" lon="0.46973">
        <ele>170.40002441406</ele>
        <time>2016-02-17T13:20:47Z</time>
      </trkpt>
      <trkpt lat="45.27362" lon="0.46968">
        <ele>170.40002441406</ele>
        <time>2016-02-17T13:20:48Z</time>
      </trkpt>
      <trkpt lat="45.27367" lon="0.46958">
        <ele>170</ele>
        <time>2016-02-17T13:20:50Z</time>
      </trkpt>
      <trkpt lat="45.2737" lon="0.46952">
        <ele>169.59997558594</ele>
        <time>2016-02-17T13:20:51Z</time>
      </trkpt>
      <trkpt lat="45.27377" lon="0.46941">
        <ele>169.20001220703</ele>
        <time>2016-02-17T13:20:53Z</time>
      </trkpt>
      <trkpt lat="45.27384" lon="0.46931">
        <ele>168.79998779297</ele>
        <time>2016-02-17T13:20:55Z</time>
      </trkpt>
      <trkpt lat="45.27388" lon="0.46927">
        <ele>168.59997558594</ele>
        <time>2016-02-17T13:20:56Z</time>
      </trkpt>
      <trkpt lat="45.27397" lon="0.46919">
        <ele>168.20001220703</ele>
        <time>2016-02-17T13:20:58Z</time>
      </trkpt>
      <trkpt lat="45.27413" lon="0.46899">
        <ele>167.20001220703</ele>
        <time>2016-02-17T13:21:02Z</time>
      </trkpt>
      <trkpt lat="45.27421" lon="0.46889">
        <ele>166.59997558594</ele>
        <time>2016-02-17T13:21:04Z</time>
      </trkpt>
      <trkpt lat="45.27428" lon="0.4688">
        <ele>166</ele>
        <time>2016-02-17T13:21:06Z</time>
      </trkpt>
      <trkpt lat="45.27443" lon="0.46862">
        <ele>165.20001220703</ele>
        <time>2016-02-17T13:21:10Z</time>
      </trkpt>
      <trkpt lat="45.27447" lon="0.46859">
        <ele>165</ele>
        <time>2016-02-17T13:21:11Z</time>
      </trkpt>
      <trkpt lat="45.27451" lon="0.46858">
        <ele>164.59997558594</ele>
        <time>2016-02-17T13:21:12Z</time>
      </trkpt>
      <trkpt lat="45.27455" lon="0.46858">
        <ele>164.40002441406</ele>
        <time>2016-02-17T13:21:13Z</time>
      </trkpt>
      <trkpt lat="45.27463" lon="0.4686">
        <ele>163.59997558594</ele>
        <time>2016-02-17T13:21:15Z</time>
      </trkpt>
      <trkpt lat="45.27471" lon="0.4686">
        <ele>163</ele>
        <time>2016-02-17T13:21:17Z</time>
      </trkpt>
      <trkpt lat="45.27476" lon="0.4686">
        <ele>162.79998779297</ele>
        <time>2016-02-17T13:21:18Z</time>
      </trkpt>
      <trkpt lat="45.27489" lon="0.46861">
        <ele>162.59997558594</ele>
        <time>2016-02-17T13:21:21Z</time>
      </trkpt>
      <trkpt lat="45.27493" lon="0.46861">
        <ele>162.59997558594</ele>
        <time>2016-02-17T13:21:22Z</time>
      </trkpt>
      <trkpt lat="45.2751" lon="0.46854">
        <ele>162.40002441406</ele>
        <time>2016-02-17T13:21:26Z</time>
      </trkpt>
      <trkpt lat="45.27514" lon="0.4685">
        <ele>162.40002441406</ele>
        <time>2016-02-17T13:21:27Z</time>
      </trkpt>
      <trkpt lat="45.27522" lon="0.46842">
        <ele>162</ele>
        <time>2016-02-17T13:21:29Z</time>
      </trkpt>
      <trkpt lat="45.27535" lon="0.46828">
        <ele>161.20001220703</ele>
        <time>2016-02-17T13:21:32Z</time>
      </trkpt>
      <trkpt lat="45.27547" lon="0.46821">
        <ele>160.59997558594</ele>
        <time>2016-02-17T13:21:35Z</time>
      </trkpt>
      <trkpt lat="45.27555" lon="0.46825">
        <ele>160</ele>
        <time>2016-02-17T13:21:37Z</time>
      </trkpt>
      <trkpt lat="45.27562" lon="0.46827">
        <ele>158.79998779297</ele>
        <time>2016-02-17T13:21:39Z</time>
      </trkpt>
      <trkpt lat="45.27569" lon="0.46819">
        <ele>158.59997558594</ele>
        <time>2016-02-17T13:21:41Z</time>
      </trkpt>
      <trkpt lat="45.27572" lon="0.46814">
        <ele>158.40002441406</ele>
        <time>2016-02-17T13:21:42Z</time>
      </trkpt>
      <trkpt lat="45.27581" lon="0.46802">
        <ele>157.59997558594</ele>
        <time>2016-02-17T13:21:45Z</time>
      </trkpt>
      <trkpt lat="45.27586" lon="0.46799">
        <ele>157.40002441406</ele>
        <time>2016-02-17T13:21:46Z</time>
      </trkpt>
      <trkpt lat="45.27592" lon="0.46795">
        <ele>157</ele>
        <time>2016-02-17T13:21:47Z</time>
      </trkpt>
      <trkpt lat="45.27598" lon="0.46792">
        <ele>156.59997558594</ele>
        <time>2016-02-17T13:21:48Z</time>
      </trkpt>
      <trkpt lat="45.27603" lon="0.46788">
        <ele>156.20001220703</ele>
        <time>2016-02-17T13:21:49Z</time>
      </trkpt>
      <trkpt lat="45.27612" lon="0.4678">
        <ele>155.79998779297</ele>
        <time>2016-02-17T13:21:51Z</time>
      </trkpt>
      <trkpt lat="45.27613" lon="0.46775">
        <ele>155.40002441406</ele>
        <time>2016-02-17T13:21:52Z</time>
      </trkpt>
      <trkpt lat="45.27613" lon="0.46766">
        <ele>154.20001220703</ele>
        <time>2016-02-17T13:21:54Z</time>
      </trkpt>
      <trkpt lat="45.27613" lon="0.46763">
        <ele>153.59997558594</ele>
        <time>2016-02-17T13:21:55Z</time>
      </trkpt>
      <trkpt lat="45.27614" lon="0.46762">
        <ele>152.79998779297</ele>
        <time>2016-02-17T13:21:56Z</time>
      </trkpt>
      <trkpt lat="45.27616" lon="0.46759">
        <ele>151.59997558594</ele>
        <time>2016-02-17T13:21:58Z</time>
      </trkpt>
      <trkpt lat="45.27623" lon="0.46761">
        <ele>150.79998779297</ele>
        <time>2016-02-17T13:22:00Z</time>
      </trkpt>
      <trkpt lat="45.27626" lon="0.46759">
        <ele>150.59997558594</ele>
        <time>2016-02-17T13:22:01Z</time>
      </trkpt>
      <trkpt lat="45.27632" lon="0.46751">
        <ele>150.20001220703</ele>
        <time>2016-02-17T13:22:03Z</time>
      </trkpt>
      <trkpt lat="45.27643" lon="0.46741">
        <ele>149.40002441406</ele>
        <time>2016-02-17T13:22:06Z</time>
      </trkpt>
      <trkpt lat="45.27653" lon="0.46735">
        <ele>148.40002441406</ele>
        <time>2016-02-17T13:22:08Z</time>
      </trkpt>
      <trkpt lat="45.27661" lon="0.46724">
        <ele>146.79998779297</ele>
        <time>2016-02-17T13:22:10Z</time>
      </trkpt>
      <trkpt lat="45.27665" lon="0.46719">
        <ele>146</ele>
        <time>2016-02-17T13:22:11Z</time>
      </trkpt>
      <trkpt lat="45.27668" lon="0.46713">
        <ele>145.20001220703</ele>
        <time>2016-02-17T13:22:12Z</time>
      </trkpt>
      <trkpt lat="45.27673" lon="0.46703">
        <ele>143.40002441406</ele>
        <time>2016-02-17T13:22:14Z</time>
      </trkpt>
      <trkpt lat="45.27675" lon="0.46698">
        <ele>142.20001220703</ele>
        <time>2016-02-17T13:22:15Z</time>
      </trkpt>
      <trkpt lat="45.27677" lon="0.46694">
        <ele>141</ele>
        <time>2016-02-17T13:22:16Z</time>
      </trkpt>
      <trkpt lat="45.27683" lon="0.46692">
        <ele>140</ele>
        <time>2016-02-17T13:22:17Z</time>
      </trkpt>
      <trkpt lat="45.27692" lon="0.46689">
        <ele>138.40002441406</ele>
        <time>2016-02-17T13:22:19Z</time>
      </trkpt>
      <trkpt lat="45.27704" lon="0.46688">
        <ele>137</ele>
        <time>2016-02-17T13:22:21Z</time>
      </trkpt>
      <trkpt lat="45.2771" lon="0.46688">
        <ele>136.40002441406</ele>
        <time>2016-02-17T13:22:22Z</time>
      </trkpt>
      <trkpt lat="45.27716" lon="0.46687">
        <ele>136</ele>
        <time>2016-02-17T13:22:23Z</time>
      </trkpt>
      <trkpt lat="45.27728" lon="0.46681">
        <ele>135.20001220703</ele>
        <time>2016-02-17T13:22:25Z</time>
      </trkpt>
      <trkpt lat="45.27734" lon="0.46677">
        <ele>134.79998779297</ele>
        <time>2016-02-17T13:22:26Z</time>
      </trkpt>
      <trkpt lat="45.27739" lon="0.46673">
        <ele>133.40002441406</ele>
        <time>2016-02-17T13:22:27Z</time>
      </trkpt>
      <trkpt lat="45.2775" lon="0.46661">
        <ele>131.40002441406</ele>
        <time>2016-02-17T13:22:29Z</time>
      </trkpt>
      <trkpt lat="45.2776" lon="0.4665">
        <ele>129.79998779297</ele>
        <time>2016-02-17T13:22:31Z</time>
      </trkpt>
      <trkpt lat="45.27764" lon="0.46645">
        <ele>129</ele>
        <time>2016-02-17T13:22:32Z</time>
      </trkpt>
      <trkpt lat="45.27767" lon="0.46642">
        <ele>128</ele>
        <time>2016-02-17T13:22:33Z</time>
      </trkpt>
      <trkpt lat="45.27771" lon="0.46639">
        <ele>127</ele>
        <time>2016-02-17T13:22:34Z</time>
      </trkpt>
      <trkpt lat="45.27776" lon="0.46636">
        <ele>125.79998779297</ele>
        <time>2016-02-17T13:22:35Z</time>
      </trkpt>
      <trkpt lat="45.2778" lon="0.46632">
        <ele>125</ele>
        <time>2016-02-17T13:22:36Z</time>
      </trkpt>
      <trkpt lat="45.27784" lon="0.46628">
        <ele>124.40002441406</ele>
        <time>2016-02-17T13:22:37Z</time>
      </trkpt>
      <trkpt lat="45.27795" lon="0.46616">
        <ele>123</ele>
        <time>2016-02-17T13:22:40Z</time>
      </trkpt>
      <trkpt lat="45.27804" lon="0.46612">
        <ele>122</ele>
        <time>2016-02-17T13:22:42Z</time>
      </trkpt>
      <trkpt lat="45.27809" lon="0.46609">
        <ele>121.40002441406</ele>
        <time>2016-02-17T13:22:43Z</time>
      </trkpt>
      <trkpt lat="45.27814" lon="0.46606">
        <ele>120.79998779297</ele>
        <time>2016-02-17T13:22:44Z</time>
      </trkpt>
      <trkpt lat="45.27819" lon="0.46602">
        <ele>120.40002441406</ele>
        <time>2016-02-17T13:22:45Z</time>
      </trkpt>
      <trkpt lat="45.27824" lon="0.46598">
        <ele>119.79998779297</ele>
        <time>2016-02-17T13:22:46Z</time>
      </trkpt>
      <trkpt lat="45.27831" lon="0.46593">
        <ele>119</ele>
        <time>2016-02-17T13:22:48Z</time>
      </trkpt>
      <trkpt lat="45.27833" lon="0.4659">
        <ele>118.40002441406</ele>
        <time>2016-02-17T13:22:49Z</time>
      </trkpt>
      <trkpt lat="45.27834" lon="0.46585">
        <ele>117.79998779297</ele>
        <time>2016-02-17T13:22:50Z</time>
      </trkpt>
      <trkpt lat="45.27835" lon="0.46579">
        <ele>116.40002441406</ele>
        <time>2016-02-17T13:22:51Z</time>
      </trkpt>
      <trkpt lat="45.27837" lon="0.46572">
        <ele>115.79998779297</ele>
        <time>2016-02-17T13:22:52Z</time>
      </trkpt>
      <trkpt lat="45.27839" lon="0.46565">
        <ele>115.40002441406</ele>
        <time>2016-02-17T13:22:53Z</time>
      </trkpt>
      <trkpt lat="45.27846" lon="0.46553">
        <ele>114.59997558594</ele>
        <time>2016-02-17T13:22:55Z</time>
      </trkpt>
      <trkpt lat="45.27851" lon="0.46548">
        <ele>114.20001220703</ele>
        <time>2016-02-17T13:22:56Z</time>
      </trkpt>
      <trkpt lat="45.27863" lon="0.46535">
        <ele>113.20001220703</ele>
        <time>2016-02-17T13:22:59Z</time>
      </trkpt>
      <trkpt lat="45.27869" lon="0.46526">
        <ele>112.20001220703</ele>
        <time>2016-02-17T13:23:01Z</time>
      </trkpt>
      <trkpt lat="45.27871" lon="0.46519">
        <ele>111.79998779297</ele>
        <time>2016-02-17T13:23:02Z</time>
      </trkpt>
      <trkpt lat="45.27877" lon="0.46507">
        <ele>110.59997558594</ele>
        <time>2016-02-17T13:23:04Z</time>
      </trkpt>
      <trkpt lat="45.27882" lon="0.46507">
        <ele>109.20001220703</ele>
        <time>2016-02-17T13:23:06Z</time>
      </trkpt>
      <trkpt lat="45.27882" lon="0.46508">
        <ele>108.20001220703</ele>
        <time>2016-02-17T13:23:07Z</time>
      </trkpt>
      <trkpt lat="45.27883" lon="0.46511">
        <ele>107.20001220703</ele>
        <time>2016-02-17T13:23:08Z</time>
      </trkpt>
      <trkpt lat="45.27883" lon="0.46514">
        <ele>106.40002441406</ele>
        <time>2016-02-17T13:23:09Z</time>
      </trkpt>
      <trkpt lat="45.27884" lon="0.46518">
        <ele>105.59997558594</ele>
        <time>2016-02-17T13:23:10Z</time>
      </trkpt>
      <trkpt lat="45.27886" lon="0.46528">
        <ele>105</ele>
        <time>2016-02-17T13:23:13Z</time>
      </trkpt>
      <trkpt lat="45.2789" lon="0.46542">
        <ele>105.79998779297</ele>
        <time>2016-02-17T13:23:18Z</time>
      </trkpt>
      <trkpt lat="45.27893" lon="0.46559">
        <ele>106.40002441406</ele>
        <time>2016-02-17T13:23:23Z</time>
      </trkpt>
      <trkpt lat="45.27893" lon="0.46574">
        <ele>106.79998779297</ele>
        <time>2016-02-17T13:23:27Z</time>
      </trkpt>
      <trkpt lat="45.27894" lon="0.46586">
        <ele>107.20001220703</ele>
        <time>2016-02-17T13:23:30Z</time>
      </trkpt>
      <trkpt lat="45.27895" lon="0.46605">
        <ele>107.79998779297</ele>
        <time>2016-02-17T13:23:35Z</time>
      </trkpt>
      <trkpt lat="45.27895" lon="0.46609">
        <ele>108</ele>
        <time>2016-02-17T13:23:36Z</time>
      </trkpt>
      <trkpt lat="45.27893" lon="0.46626">
        <ele>109</ele>
        <time>2016-02-17T13:23:40Z</time>
      </trkpt>
      <trkpt lat="45.27892" lon="0.4663">
        <ele>109</ele>
        <time>2016-02-17T13:23:41Z</time>
      </trkpt>
      <trkpt lat="45.2789" lon="0.46636">
        <ele>109.20001220703</ele>
        <time>2016-02-17T13:23:43Z</time>
      </trkpt>
      <trkpt lat="45.27886" lon="0.46648">
        <ele>110</ele>
        <time>2016-02-17T13:23:47Z</time>
      </trkpt>
      <trkpt lat="45.27881" lon="0.4666">
        <ele>111.20001220703</ele>
        <time>2016-02-17T13:23:51Z</time>
      </trkpt>
      <trkpt lat="45.27879" lon="0.4667">
        <ele>112</ele>
        <time>2016-02-17T13:23:54Z</time>
      </trkpt>
      <trkpt lat="45.27878" lon="0.46672">
        <ele>112.40002441406</ele>
        <time>2016-02-17T13:23:55Z</time>
      </trkpt>
      <trkpt lat="45.27875" lon="0.46681">
        <ele>113.40002441406</ele>
        <time>2016-02-17T13:23:58Z</time>
      </trkpt>
      <trkpt lat="45.27873" lon="0.46686">
        <ele>113.79998779297</ele>
        <time>2016-02-17T13:24:00Z</time>
      </trkpt>
      <trkpt lat="45.27871" lon="0.46691">
        <ele>114.40002441406</ele>
        <time>2016-02-17T13:24:02Z</time>
      </trkpt>
      <trkpt lat="45.2787" lon="0.46693">
        <ele>114.79998779297</ele>
        <time>2016-02-17T13:24:03Z</time>
      </trkpt>
      <trkpt lat="45.27864" lon="0.46709">
        <ele>115.79998779297</ele>
        <time>2016-02-17T13:24:08Z</time>
      </trkpt>
      <trkpt lat="45.27857" lon="0.46721">
        <ele>117</ele>
        <time>2016-02-17T13:24:13Z</time>
      </trkpt>
      <trkpt lat="45.27855" lon="0.46723">
        <ele>117.20001220703</ele>
        <time>2016-02-17T13:24:14Z</time>
      </trkpt>
      <trkpt lat="45.27849" lon="0.46725">
        <ele>118</ele>
        <time>2016-02-17T13:24:17Z</time>
      </trkpt>
      <trkpt lat="45.27847" lon="0.46727">
        <ele>118.40002441406</ele>
        <time>2016-02-17T13:24:18Z</time>
      </trkpt>
      <trkpt lat="45.27844" lon="0.46732">
        <ele>118.79998779297</ele>
        <time>2016-02-17T13:24:20Z</time>
      </trkpt>
      <trkpt lat="45.27842" lon="0.46737">
        <ele>119.20001220703</ele>
        <time>2016-02-17T13:24:22Z</time>
      </trkpt>
      <trkpt lat="45.27841" lon="0.46743">
        <ele>119.59997558594</ele>
        <time>2016-02-17T13:24:24Z</time>
      </trkpt>
      <trkpt lat="45.2784" lon="0.46749">
        <ele>120.20001220703</ele>
        <time>2016-02-17T13:24:26Z</time>
      </trkpt>
      <trkpt lat="45.27839" lon="0.46751">
        <ele>120.40002441406</ele>
        <time>2016-02-17T13:24:27Z</time>
      </trkpt>
      <trkpt lat="45.27837" lon="0.46754">
        <ele>120.59997558594</ele>
        <time>2016-02-17T13:24:28Z</time>
      </trkpt>
      <trkpt lat="45.27831" lon="0.46763">
        <ele>121.59997558594</ele>
        <time>2016-02-17T13:24:32Z</time>
      </trkpt>
      <trkpt lat="45.27829" lon="0.4677">
        <ele>122.20001220703</ele>
        <time>2016-02-17T13:24:35Z</time>
      </trkpt>
      <trkpt lat="45.27829" lon="0.46775">
        <ele>122.59997558594</ele>
        <time>2016-02-17T13:24:37Z</time>
      </trkpt>
      <trkpt lat="45.27829" lon="0.46778">
        <ele>122.79998779297</ele>
        <time>2016-02-17T13:24:38Z</time>
      </trkpt>
      <trkpt lat="45.27832" lon="0.46789">
        <ele>123.20001220703</ele>
        <time>2016-02-17T13:24:41Z</time>
      </trkpt>
      <trkpt lat="45.27836" lon="0.46797">
        <ele>123.40002441406</ele>
        <time>2016-02-17T13:24:44Z</time>
      </trkpt>
      <trkpt lat="45.27846" lon="0.46812">
        <ele>123.40002441406</ele>
        <time>2016-02-17T13:24:49Z</time>
      </trkpt>
      <trkpt lat="45.27853" lon="0.46835">
        <ele>122.59997558594</ele>
        <time>2016-02-17T13:24:54Z</time>
      </trkpt>
      <trkpt lat="45.27851" lon="0.46846">
        <ele>122.20001220703</ele>
        <time>2016-02-17T13:24:57Z</time>
      </trkpt>
      <trkpt lat="45.27849" lon="0.46848">
        <ele>122</ele>
        <time>2016-02-17T13:24:58Z</time>
      </trkpt>
      <trkpt lat="45.27832" lon="0.4686">
        <ele>122.59997558594</ele>
        <time>2016-02-17T13:25:06Z</time>
      </trkpt>
      <trkpt lat="45.27823" lon="0.46865">
        <ele>123.79998779297</ele>
        <time>2016-02-17T13:25:11Z</time>
      </trkpt>
      <trkpt lat="45.27814" lon="0.4687">
        <ele>124.79998779297</ele>
        <time>2016-02-17T13:25:15Z</time>
      </trkpt>
      <trkpt lat="45.27812" lon="0.46871">
        <ele>125</ele>
        <time>2016-02-17T13:25:16Z</time>
      </trkpt>
      <trkpt lat="45.27802" lon="0.46873">
        <ele>125.79998779297</ele>
        <time>2016-02-17T13:25:20Z</time>
      </trkpt>
      <trkpt lat="45.27798" lon="0.46873">
        <ele>126.20001220703</ele>
        <time>2016-02-17T13:25:22Z</time>
      </trkpt>
      <trkpt lat="45.27791" lon="0.46875">
        <ele>127</ele>
        <time>2016-02-17T13:25:25Z</time>
      </trkpt>
      <trkpt lat="45.27785" lon="0.46878">
        <ele>127.40002441406</ele>
        <time>2016-02-17T13:25:28Z</time>
      </trkpt>
      <trkpt lat="45.27771" lon="0.46885">
        <ele>128</ele>
        <time>2016-02-17T13:25:33Z</time>
      </trkpt>
      <trkpt lat="45.27765" lon="0.46887">
        <ele>128.20001220703</ele>
        <time>2016-02-17T13:25:35Z</time>
      </trkpt>
      <trkpt lat="45.2775" lon="0.46895">
        <ele>128.20001220703</ele>
        <time>2016-02-17T13:25:41Z</time>
      </trkpt>
      <trkpt lat="45.27731" lon="0.46908">
        <ele>128.20001220703</ele>
        <time>2016-02-17T13:25:47Z</time>
      </trkpt>
      <trkpt lat="45.27726" lon="0.46915">
        <ele>128.20001220703</ele>
        <time>2016-02-17T13:25:49Z</time>
      </trkpt>
      <trkpt lat="45.27723" lon="0.46922">
        <ele>128</ele>
        <time>2016-02-17T13:25:51Z</time>
      </trkpt>
      <trkpt lat="45.27717" lon="0.46933">
        <ele>127.59997558594</ele>
        <time>2016-02-17T13:25:54Z</time>
      </trkpt>
      <trkpt lat="45.27714" lon="0.46935">
        <ele>127.40002441406</ele>
        <time>2016-02-17T13:25:55Z</time>
      </trkpt>
      <trkpt lat="45.27702" lon="0.4694">
        <ele>127</ele>
        <time>2016-02-17T13:25:59Z</time>
      </trkpt>
      <trkpt lat="45.27698" lon="0.46943">
        <ele>126.79998779297</ele>
        <time>2016-02-17T13:26:01Z</time>
      </trkpt>
      <trkpt lat="45.27684" lon="0.46957">
        <ele>127.40002441406</ele>
        <time>2016-02-17T13:26:07Z</time>
      </trkpt>
      <trkpt lat="45.27677" lon="0.46971">
        <ele>127.59997558594</ele>
        <time>2016-02-17T13:26:13Z</time>
      </trkpt>
      <trkpt lat="45.27677" lon="0.46982">
        <ele>128</ele>
        <time>2016-02-17T13:26:16Z</time>
      </trkpt>
      <trkpt lat="45.27678" lon="0.46986">
        <ele>128</ele>
        <time>2016-02-17T13:26:17Z</time>
      </trkpt>
      <trkpt lat="45.27688" lon="0.47">
        <ele>128.79998779297</ele>
        <time>2016-02-17T13:26:22Z</time>
      </trkpt>
      <trkpt lat="45.27707" lon="0.47017">
        <ele>128.59997558594</ele>
        <time>2016-02-17T13:26:31Z</time>
      </trkpt>
      <trkpt lat="45.27719" lon="0.47024">
        <ele>129</ele>
        <time>2016-02-17T13:26:37Z</time>
      </trkpt>
      <trkpt lat="45.27721" lon="0.47025">
        <ele>129</ele>
        <time>2016-02-17T13:26:38Z</time>
      </trkpt>
      <trkpt lat="45.27735" lon="0.47034">
        <ele>130</ele>
        <time>2016-02-17T13:26:46Z</time>
      </trkpt>
      <trkpt lat="45.27744" lon="0.47039">
        <ele>131.40002441406</ele>
        <time>2016-02-17T13:26:51Z</time>
      </trkpt>
      <trkpt lat="45.27747" lon="0.47042">
        <ele>131.79998779297</ele>
        <time>2016-02-17T13:26:53Z</time>
      </trkpt>
      <trkpt lat="45.2775" lon="0.47045">
        <ele>132.40002441406</ele>
        <time>2016-02-17T13:26:55Z</time>
      </trkpt>
      <trkpt lat="45.27756" lon="0.47054">
        <ele>133.59997558594</ele>
        <time>2016-02-17T13:26:59Z</time>
      </trkpt>
      <trkpt lat="45.27756" lon="0.47057">
        <ele>133.79998779297</ele>
        <time>2016-02-17T13:27:00Z</time>
      </trkpt>
      <trkpt lat="45.27759" lon="0.47066">
        <ele>134.59997558594</ele>
        <time>2016-02-17T13:27:03Z</time>
      </trkpt>
      <trkpt lat="45.27761" lon="0.47075">
        <ele>135.59997558594</ele>
        <time>2016-02-17T13:27:06Z</time>
      </trkpt>
      <trkpt lat="45.27761" lon="0.47077">
        <ele>136</ele>
        <time>2016-02-17T13:27:07Z</time>
      </trkpt>
      <trkpt lat="45.27763" lon="0.47085">
        <ele>137</ele>
        <time>2016-02-17T13:27:10Z</time>
      </trkpt>
      <trkpt lat="45.27766" lon="0.47096">
        <ele>138.20001220703</ele>
        <time>2016-02-17T13:27:14Z</time>
      </trkpt>
      <trkpt lat="45.27768" lon="0.47104">
        <ele>139.20001220703</ele>
        <time>2016-02-17T13:27:17Z</time>
      </trkpt>
      <trkpt lat="45.27771" lon="0.4712">
        <ele>140</ele>
        <time>2016-02-17T13:27:22Z</time>
      </trkpt>
      <trkpt lat="45.27773" lon="0.47122">
        <ele>140</ele>
        <time>2016-02-17T13:27:23Z</time>
      </trkpt>
      <trkpt lat="45.27778" lon="0.47123">
        <ele>140.20001220703</ele>
        <time>2016-02-17T13:27:25Z</time>
      </trkpt>
      <trkpt lat="45.27784" lon="0.47123">
        <ele>140.40002441406</ele>
        <time>2016-02-17T13:27:27Z</time>
      </trkpt>
      <trkpt lat="45.27796" lon="0.47123">
        <ele>140.20001220703</ele>
        <time>2016-02-17T13:27:30Z</time>
      </trkpt>
      <trkpt lat="45.27811" lon="0.47125">
        <ele>139.79998779297</ele>
        <time>2016-02-17T13:27:33Z</time>
      </trkpt>
      <trkpt lat="45.27822" lon="0.4713">
        <ele>139.40002441406</ele>
        <time>2016-02-17T13:27:35Z</time>
      </trkpt>
      <trkpt lat="45.27828" lon="0.47131">
        <ele>139.20001220703</ele>
        <time>2016-02-17T13:27:36Z</time>
      </trkpt>
      <trkpt lat="45.2784" lon="0.47132">
        <ele>138.59997558594</ele>
        <time>2016-02-17T13:27:38Z</time>
      </trkpt>
      <trkpt lat="45.27846" lon="0.47133">
        <ele>138</ele>
        <time>2016-02-17T13:27:39Z</time>
      </trkpt>
      <trkpt lat="45.27852" lon="0.47133">
        <ele>137.59997558594</ele>
        <time>2016-02-17T13:27:40Z</time>
      </trkpt>
      <trkpt lat="45.27865" lon="0.47134">
        <ele>137</ele>
        <time>2016-02-17T13:27:42Z</time>
      </trkpt>
      <trkpt lat="45.27889" lon="0.47134">
        <ele>135.59997558594</ele>
        <time>2016-02-17T13:27:46Z</time>
      </trkpt>
      <trkpt lat="45.27909" lon="0.47135">
        <ele>134.40002441406</ele>
        <time>2016-02-17T13:27:49Z</time>
      </trkpt>
      <trkpt lat="45.27932" lon="0.47136">
        <ele>132.79998779297</ele>
        <time>2016-02-17T13:27:52Z</time>
      </trkpt>
      <trkpt lat="45.27939" lon="0.47136">
        <ele>132.20001220703</ele>
        <time>2016-02-17T13:27:53Z</time>
      </trkpt>
      <trkpt lat="45.27947" lon="0.47137">
        <ele>131.79998779297</ele>
        <time>2016-02-17T13:27:54Z</time>
      </trkpt>
      <trkpt lat="45.27972" lon="0.47139">
        <ele>130.20001220703</ele>
        <time>2016-02-17T13:27:57Z</time>
      </trkpt>
      <trkpt lat="45.27991" lon="0.47141">
        <ele>129.20001220703</ele>
        <time>2016-02-17T13:27:59Z</time>
      </trkpt>
      <trkpt lat="45.2801" lon="0.47141">
        <ele>127.79998779297</ele>
        <time>2016-02-17T13:28:01Z</time>
      </trkpt>
      <trkpt lat="45.28019" lon="0.4714">
        <ele>126.79998779297</ele>
        <time>2016-02-17T13:28:02Z</time>
      </trkpt>
      <trkpt lat="45.28029" lon="0.47138">
        <ele>124.79998779297</ele>
        <time>2016-02-17T13:28:03Z</time>
      </trkpt>
      <trkpt lat="45.28038" lon="0.47137">
        <ele>123.79998779297</ele>
        <time>2016-02-17T13:28:04Z</time>
      </trkpt>
      <trkpt lat="45.28048" lon="0.47137">
        <ele>122.79998779297</ele>
        <time>2016-02-17T13:28:05Z</time>
      </trkpt>
      <trkpt lat="45.28065" lon="0.47143">
        <ele>120.79998779297</ele>
        <time>2016-02-17T13:28:07Z</time>
      </trkpt>
      <trkpt lat="45.28079" lon="0.47158">
        <ele>119</ele>
        <time>2016-02-17T13:28:09Z</time>
      </trkpt>
      <trkpt lat="45.28084" lon="0.47165">
        <ele>118.20001220703</ele>
        <time>2016-02-17T13:28:10Z</time>
      </trkpt>
      <trkpt lat="45.28089" lon="0.47173">
        <ele>117.59997558594</ele>
        <time>2016-02-17T13:28:11Z</time>
      </trkpt>
      <trkpt lat="45.28097" lon="0.47187">
        <ele>116.40002441406</ele>
        <time>2016-02-17T13:28:13Z</time>
      </trkpt>
      <trkpt lat="45.28103" lon="0.47198">
        <ele>115.59997558594</ele>
        <time>2016-02-17T13:28:15Z</time>
      </trkpt>
      <trkpt lat="45.28105" lon="0.47203">
        <ele>115.20001220703</ele>
        <time>2016-02-17T13:28:16Z</time>
      </trkpt>
      <trkpt lat="45.28115" lon="0.47216">
        <ele>114.20001220703</ele>
        <time>2016-02-17T13:28:19Z</time>
      </trkpt>
      <trkpt lat="45.28118" lon="0.4722">
        <ele>114</ele>
        <time>2016-02-17T13:28:20Z</time>
      </trkpt>
      <trkpt lat="45.28124" lon="0.47227">
        <ele>113.79998779297</ele>
        <time>2016-02-17T13:28:22Z</time>
      </trkpt>
      <trkpt lat="45.28129" lon="0.47242">
        <ele>113.59997558594</ele>
        <time>2016-02-17T13:28:25Z</time>
      </trkpt>
      <trkpt lat="45.28135" lon="0.47268">
        <ele>113.59997558594</ele>
        <time>2016-02-17T13:28:31Z</time>
      </trkpt>
      <trkpt lat="45.28143" lon="0.47293">
        <ele>113.59997558594</ele>
        <time>2016-02-17T13:28:37Z</time>
      </trkpt>
      <trkpt lat="45.28151" lon="0.47303">
        <ele>113.59997558594</ele>
        <time>2016-02-17T13:28:41Z</time>
      </trkpt>
      <trkpt lat="45.28154" lon="0.47301">
        <ele>113.59997558594</ele>
        <time>2016-02-17T13:28:42Z</time>
      </trkpt>
      <trkpt lat="45.28161" lon="0.47298">
        <ele>113.59997558594</ele>
        <time>2016-02-17T13:28:44Z</time>
      </trkpt>
      <trkpt lat="45.28184" lon="0.47281">
        <ele>113.79998779297</ele>
        <time>2016-02-17T13:28:52Z</time>
      </trkpt>
      <trkpt lat="45.28205" lon="0.47261">
        <ele>114.59997558594</ele>
        <time>2016-02-17T13:29:01Z</time>
      </trkpt>
      <trkpt lat="45.28211" lon="0.47255">
        <ele>115</ele>
        <time>2016-02-17T13:29:04Z</time>
      </trkpt>
      <trkpt lat="45.28218" lon="0.47248">
        <ele>116</ele>
        <time>2016-02-17T13:29:08Z</time>
      </trkpt>
      <trkpt lat="45.28219" lon="0.47247">
        <ele>116.20001220703</ele>
        <time>2016-02-17T13:29:09Z</time>
      </trkpt>
      <trkpt lat="45.28224" lon="0.47239">
        <ele>117.20001220703</ele>
        <time>2016-02-17T13:29:13Z</time>
      </trkpt>
      <trkpt lat="45.28226" lon="0.47235">
        <ele>118</ele>
        <time>2016-02-17T13:29:16Z</time>
      </trkpt>
      <trkpt lat="45.28227" lon="0.47232">
        <ele>118.20001220703</ele>
        <time>2016-02-17T13:29:17Z</time>
      </trkpt>
      <trkpt lat="45.2823" lon="0.47223">
        <ele>119.40002441406</ele>
        <time>2016-02-17T13:29:21Z</time>
      </trkpt>
      <trkpt lat="45.28231" lon="0.47217">
        <ele>120</ele>
        <time>2016-02-17T13:29:23Z</time>
      </trkpt>
      <trkpt lat="45.28233" lon="0.47213">
        <ele>120.59997558594</ele>
        <time>2016-02-17T13:29:25Z</time>
      </trkpt>
      <trkpt lat="45.28235" lon="0.47205">
        <ele>121.79998779297</ele>
        <time>2016-02-17T13:29:29Z</time>
      </trkpt>
      <trkpt lat="45.28237" lon="0.47199">
        <ele>122.79998779297</ele>
        <time>2016-02-17T13:29:32Z</time>
      </trkpt>
      <trkpt lat="45.28239" lon="0.47191">
        <ele>124.20001220703</ele>
        <time>2016-02-17T13:29:36Z</time>
      </trkpt>
      <trkpt lat="45.28241" lon="0.47183">
        <ele>125.79998779297</ele>
        <time>2016-02-17T13:29:40Z</time>
      </trkpt>
      <trkpt lat="45.28242" lon="0.47177">
        <ele>126.79998779297</ele>
        <time>2016-02-17T13:29:43Z</time>
      </trkpt>
      <trkpt lat="45.28243" lon="0.47175">
        <ele>127.20001220703</ele>
        <time>2016-02-17T13:29:44Z</time>
      </trkpt>
      <trkpt lat="45.28245" lon="0.47169">
        <ele>128.20001220703</ele>
        <time>2016-02-17T13:29:47Z</time>
      </trkpt>
      <trkpt lat="45.28248" lon="0.47159">
        <ele>129.40002441406</ele>
        <time>2016-02-17T13:29:51Z</time>
      </trkpt>
      <trkpt lat="45.2825" lon="0.47152">
        <ele>130.40002441406</ele>
        <time>2016-02-17T13:29:54Z</time>
      </trkpt>
      <trkpt lat="45.28253" lon="0.47145">
        <ele>131.59997558594</ele>
        <time>2016-02-17T13:29:57Z</time>
      </trkpt>
      <trkpt lat="45.28254" lon="0.47142">
        <ele>132</ele>
        <time>2016-02-17T13:29:58Z</time>
      </trkpt>
      <trkpt lat="45.28255" lon="0.47138">
        <ele>132.79998779297</ele>
        <time>2016-02-17T13:30:00Z</time>
      </trkpt>
      <trkpt lat="45.28258" lon="0.47133">
        <ele>133.79998779297</ele>
        <time>2016-02-17T13:30:03Z</time>
      </trkpt>
      <trkpt lat="45.28258" lon="0.47131">
        <ele>134.40002441406</ele>
        <time>2016-02-17T13:30:04Z</time>
      </trkpt>
      <trkpt lat="45.2826" lon="0.47127">
        <ele>135.20001220703</ele>
        <time>2016-02-17T13:30:06Z</time>
      </trkpt>
      <trkpt lat="45.28264" lon="0.47122">
        <ele>136.20001220703</ele>
        <time>2016-02-17T13:30:09Z</time>
      </trkpt>
      <trkpt lat="45.28267" lon="0.47119">
        <ele>136.59997558594</ele>
        <time>2016-02-17T13:30:11Z</time>
      </trkpt>
      <trkpt lat="45.2827" lon="0.47116">
        <ele>137.20001220703</ele>
        <time>2016-02-17T13:30:13Z</time>
      </trkpt>
      <trkpt lat="45.28277" lon="0.4711">
        <ele>138.20001220703</ele>
        <time>2016-02-17T13:30:17Z</time>
      </trkpt>
      <trkpt lat="45.28283" lon="0.47105">
        <ele>139.40002441406</ele>
        <time>2016-02-17T13:30:21Z</time>
      </trkpt>
      <trkpt lat="45.28289" lon="0.471">
        <ele>140.59997558594</ele>
        <time>2016-02-17T13:30:25Z</time>
      </trkpt>
      <trkpt lat="45.28297" lon="0.47093">
        <ele>141.59997558594</ele>
        <time>2016-02-17T13:30:30Z</time>
      </trkpt>
      <trkpt lat="45.28298" lon="0.47092">
        <ele>141.79998779297</ele>
        <time>2016-02-17T13:30:31Z</time>
      </trkpt>
      <trkpt lat="45.28305" lon="0.47086">
        <ele>142.79998779297</ele>
        <time>2016-02-17T13:30:36Z</time>
      </trkpt>
      <trkpt lat="45.28309" lon="0.47084">
        <ele>143.20001220703</ele>
        <time>2016-02-17T13:30:38Z</time>
      </trkpt>
      <trkpt lat="45.28313" lon="0.4708">
        <ele>144</ele>
        <time>2016-02-17T13:30:41Z</time>
      </trkpt>
      <trkpt lat="45.28319" lon="0.47076">
        <ele>144.79998779297</ele>
        <time>2016-02-17T13:30:45Z</time>
      </trkpt>
      <trkpt lat="45.28323" lon="0.47074">
        <ele>145</ele>
        <time>2016-02-17T13:30:47Z</time>
      </trkpt>
      <trkpt lat="45.28332" lon="0.47069">
        <ele>145.79998779297</ele>
        <time>2016-02-17T13:30:52Z</time>
      </trkpt>
      <trkpt lat="45.28334" lon="0.47068">
        <ele>146.20001220703</ele>
        <time>2016-02-17T13:30:53Z</time>
      </trkpt>
      <trkpt lat="45.28342" lon="0.47064">
        <ele>147.20001220703</ele>
        <time>2016-02-17T13:30:58Z</time>
      </trkpt>
      <trkpt lat="45.2835" lon="0.47058">
        <ele>148.20001220703</ele>
        <time>2016-02-17T13:31:03Z</time>
      </trkpt>
      <trkpt lat="45.28353" lon="0.47056">
        <ele>148.79998779297</ele>
        <time>2016-02-17T13:31:05Z</time>
      </trkpt>
      <trkpt lat="45.28357" lon="0.47053">
        <ele>149.20001220703</ele>
        <time>2016-02-17T13:31:08Z</time>
      </trkpt>
      <trkpt lat="45.28362" lon="0.4705">
        <ele>150.40002441406</ele>
        <time>2016-02-17T13:31:12Z</time>
      </trkpt>
      <trkpt lat="45.28369" lon="0.47049">
        <ele>151.40002441406</ele>
        <time>2016-02-17T13:31:16Z</time>
      </trkpt>
      <trkpt lat="45.28373" lon="0.47048">
        <ele>152.59997558594</ele>
        <time>2016-02-17T13:31:19Z</time>
      </trkpt>
      <trkpt lat="45.28381" lon="0.47046">
        <ele>153.79998779297</ele>
        <time>2016-02-17T13:31:24Z</time>
      </trkpt>
      <trkpt lat="45.28388" lon="0.47046">
        <ele>154.79998779297</ele>
        <time>2016-02-17T13:31:28Z</time>
      </trkpt>
      <trkpt lat="45.2839" lon="0.47047">
        <ele>155</ele>
        <time>2016-02-17T13:31:29Z</time>
      </trkpt>
      <trkpt lat="45.28396" lon="0.47047">
        <ele>156</ele>
        <time>2016-02-17T13:31:33Z</time>
      </trkpt>
      <trkpt lat="45.28398" lon="0.47047">
        <ele>156.20001220703</ele>
        <time>2016-02-17T13:31:34Z</time>
      </trkpt>
      <trkpt lat="45.28404" lon="0.47047">
        <ele>157.20001220703</ele>
        <time>2016-02-17T13:31:38Z</time>
      </trkpt>
      <trkpt lat="45.2841" lon="0.47049">
        <ele>158.40002441406</ele>
        <time>2016-02-17T13:31:42Z</time>
      </trkpt>
      <trkpt lat="45.2842" lon="0.47053">
        <ele>159.59997558594</ele>
        <time>2016-02-17T13:31:47Z</time>
      </trkpt>
      <trkpt lat="45.28421" lon="0.47054">
        <ele>159.79998779297</ele>
        <time>2016-02-17T13:31:48Z</time>
      </trkpt>
      <trkpt lat="45.28429" lon="0.47056">
        <ele>160.59997558594</ele>
        <time>2016-02-17T13:31:52Z</time>
      </trkpt>
      <trkpt lat="45.28434" lon="0.47059">
        <ele>161.20001220703</ele>
        <time>2016-02-17T13:31:55Z</time>
      </trkpt>
      <trkpt lat="45.2844" lon="0.47061">
        <ele>161.59997558594</ele>
        <time>2016-02-17T13:31:58Z</time>
      </trkpt>
      <trkpt lat="45.2845" lon="0.47064">
        <ele>162.40002441406</ele>
        <time>2016-02-17T13:32:03Z</time>
      </trkpt>
      <trkpt lat="45.28453" lon="0.47066">
        <ele>163</ele>
        <time>2016-02-17T13:32:05Z</time>
      </trkpt>
      <trkpt lat="45.28465" lon="0.4707">
        <ele>164</ele>
        <time>2016-02-17T13:32:11Z</time>
      </trkpt>
      <trkpt lat="45.28474" lon="0.47073">
        <ele>165</ele>
        <time>2016-02-17T13:32:16Z</time>
      </trkpt>
      <trkpt lat="45.28478" lon="0.47074">
        <ele>165.40002441406</ele>
        <time>2016-02-17T13:32:18Z</time>
      </trkpt>
      <trkpt lat="45.28484" lon="0.47073">
        <ele>166</ele>
        <time>2016-02-17T13:32:21Z</time>
      </trkpt>
      <trkpt lat="45.28488" lon="0.47069">
        <ele>166.79998779297</ele>
        <time>2016-02-17T13:32:24Z</time>
      </trkpt>
      <trkpt lat="45.28492" lon="0.47063">
        <ele>167.20001220703</ele>
        <time>2016-02-17T13:32:27Z</time>
      </trkpt>
      <trkpt lat="45.28497" lon="0.47058">
        <ele>168.20001220703</ele>
        <time>2016-02-17T13:32:30Z</time>
      </trkpt>
      <trkpt lat="45.28498" lon="0.47057">
        <ele>168.59997558594</ele>
        <time>2016-02-17T13:32:31Z</time>
      </trkpt>
      <trkpt lat="45.28503" lon="0.4705">
        <ele>169.59997558594</ele>
        <time>2016-02-17T13:32:35Z</time>
      </trkpt>
      <trkpt lat="45.28505" lon="0.47048">
        <ele>170</ele>
        <time>2016-02-17T13:32:36Z</time>
      </trkpt>
      <trkpt lat="45.2851" lon="0.47043">
        <ele>170.59997558594</ele>
        <time>2016-02-17T13:32:39Z</time>
      </trkpt>
      <trkpt lat="45.2851" lon="0.47041">
        <ele>171</ele>
        <time>2016-02-17T13:32:40Z</time>
      </trkpt>
      <trkpt lat="45.28509" lon="0.47037">
        <ele>171.40002441406</ele>
        <time>2016-02-17T13:32:42Z</time>
      </trkpt>
      <trkpt lat="45.28507" lon="0.47033">
        <ele>172</ele>
        <time>2016-02-17T13:32:44Z</time>
      </trkpt>
      <trkpt lat="45.28506" lon="0.47031">
        <ele>172.20001220703</ele>
        <time>2016-02-17T13:32:45Z</time>
      </trkpt>
      <trkpt lat="45.28502" lon="0.47022">
        <ele>172.59997558594</ele>
        <time>2016-02-17T13:32:48Z</time>
      </trkpt>
      <trkpt lat="45.28497" lon="0.47013">
        <ele>173</ele>
        <time>2016-02-17T13:32:51Z</time>
      </trkpt>
      <trkpt lat="45.28491" lon="0.46995">
        <ele>173.20001220703</ele>
        <time>2016-02-17T13:32:56Z</time>
      </trkpt>
      <trkpt lat="45.28481" lon="0.46966">
        <ele>174</ele>
        <time>2016-02-17T13:33:04Z</time>
      </trkpt>
      <trkpt lat="45.2848" lon="0.46962">
        <ele>174.20001220703</ele>
        <time>2016-02-17T13:33:05Z</time>
      </trkpt>
      <trkpt lat="45.28473" lon="0.46934">
        <ele>174.79998779297</ele>
        <time>2016-02-17T13:33:12Z</time>
      </trkpt>
      <trkpt lat="45.28471" lon="0.46925">
        <ele>175</ele>
        <time>2016-02-17T13:33:14Z</time>
      </trkpt>
      <trkpt lat="45.28465" lon="0.46899">
        <ele>176</ele>
        <time>2016-02-17T13:33:20Z</time>
      </trkpt>
      <trkpt lat="45.28461" lon="0.46871">
        <ele>176.20001220703</ele>
        <time>2016-02-17T13:33:26Z</time>
      </trkpt>
      <trkpt lat="45.2846" lon="0.46865">
        <ele>176.20001220703</ele>
        <time>2016-02-17T13:33:27Z</time>
      </trkpt>
      <trkpt lat="45.28451" lon="0.46826">
        <ele>176.59997558594</ele>
        <time>2016-02-17T13:33:35Z</time>
      </trkpt>
      <trkpt lat="45.28441" lon="0.46781">
        <ele>177.20001220703</ele>
        <time>2016-02-17T13:33:44Z</time>
      </trkpt>
      <trkpt lat="45.28436" lon="0.46742">
        <ele>177.59997558594</ele>
        <time>2016-02-17T13:33:52Z</time>
      </trkpt>
      <trkpt lat="45.28433" lon="0.46705">
        <ele>178.20001220703</ele>
        <time>2016-02-17T13:33:59Z</time>
      </trkpt>
      <trkpt lat="45.28432" lon="0.46699">
        <ele>178.20001220703</ele>
        <time>2016-02-17T13:34:00Z</time>
      </trkpt>
      <trkpt lat="45.28428" lon="0.46673">
        <ele>179</ele>
        <time>2016-02-17T13:34:05Z</time>
      </trkpt>
      <trkpt lat="45.28425" lon="0.46657">
        <ele>179.20001220703</ele>
        <time>2016-02-17T13:34:08Z</time>
      </trkpt>
      <trkpt lat="45.28419" lon="0.46636">
        <ele>179.79998779297</ele>
        <time>2016-02-17T13:34:12Z</time>
      </trkpt>
      <trkpt lat="45.28411" lon="0.46609">
        <ele>180</ele>
        <time>2016-02-17T13:34:18Z</time>
      </trkpt>
      <trkpt lat="45.28403" lon="0.4658">
        <ele>179.79998779297</ele>
        <time>2016-02-17T13:34:24Z</time>
      </trkpt>
      <trkpt lat="45.2839" lon="0.46546">
        <ele>179.40002441406</ele>
        <time>2016-02-17T13:34:31Z</time>
      </trkpt>
      <trkpt lat="45.28372" lon="0.46514">
        <ele>179.40002441406</ele>
        <time>2016-02-17T13:34:38Z</time>
      </trkpt>
      <trkpt lat="45.28359" lon="0.46485">
        <ele>179.40002441406</ele>
        <time>2016-02-17T13:34:44Z</time>
      </trkpt>
      <trkpt lat="45.2835" lon="0.46449">
        <ele>179.20001220703</ele>
        <time>2016-02-17T13:34:51Z</time>
      </trkpt>
      <trkpt lat="45.28341" lon="0.46419">
        <ele>178.59997558594</ele>
        <time>2016-02-17T13:34:57Z</time>
      </trkpt>
      <trkpt lat="45.28335" lon="0.46388">
        <ele>178.40002441406</ele>
        <time>2016-02-17T13:35:03Z</time>
      </trkpt>
      <trkpt lat="45.28333" lon="0.46381">
        <ele>178.20001220703</ele>
        <time>2016-02-17T13:35:05Z</time>
      </trkpt>
      <trkpt lat="45.28332" lon="0.46372">
        <ele>178</ele>
        <time>2016-02-17T13:35:07Z</time>
      </trkpt>
      <trkpt lat="45.28325" lon="0.4635">
        <ele>177.40002441406</ele>
        <time>2016-02-17T13:35:12Z</time>
      </trkpt>
      <trkpt lat="45.28314" lon="0.46339">
        <ele>177.20001220703</ele>
        <time>2016-02-17T13:35:16Z</time>
      </trkpt>
      <trkpt lat="45.28293" lon="0.46328">
        <ele>176.79998779297</ele>
        <time>2016-02-17T13:35:22Z</time>
      </trkpt>
      <trkpt lat="45.28283" lon="0.46324">
        <ele>176.40002441406</ele>
        <time>2016-02-17T13:35:26Z</time>
      </trkpt>
      <trkpt lat="45.28277" lon="0.46321">
        <ele>176.20001220703</ele>
        <time>2016-02-17T13:35:28Z</time>
      </trkpt>
      <trkpt lat="45.28271" lon="0.46314">
        <ele>175.79998779297</ele>
        <time>2016-02-17T13:35:31Z</time>
      </trkpt>
      <trkpt lat="45.28269" lon="0.4631">
        <ele>175.59997558594</ele>
        <time>2016-02-17T13:35:32Z</time>
      </trkpt>
      <trkpt lat="45.28261" lon="0.46292">
        <ele>175</ele>
        <time>2016-02-17T13:35:36Z</time>
      </trkpt>
      <trkpt lat="45.28254" lon="0.46276">
        <ele>174.59997558594</ele>
        <time>2016-02-17T13:35:39Z</time>
      </trkpt>
      <trkpt lat="45.28238" lon="0.4625">
        <ele>174</ele>
        <time>2016-02-17T13:35:44Z</time>
      </trkpt>
      <trkpt lat="45.28235" lon="0.46244">
        <ele>174</ele>
        <time>2016-02-17T13:35:45Z</time>
      </trkpt>
      <trkpt lat="45.28224" lon="0.46222">
        <ele>173.59997558594</ele>
        <time>2016-02-17T13:35:49Z</time>
      </trkpt>
      <trkpt lat="45.28222" lon="0.46216">
        <ele>173.59997558594</ele>
        <time>2016-02-17T13:35:50Z</time>
      </trkpt>
      <trkpt lat="45.28221" lon="0.4621">
        <ele>173.59997558594</ele>
        <time>2016-02-17T13:35:51Z</time>
      </trkpt>
      <trkpt lat="45.28213" lon="0.46189">
        <ele>173.40002441406</ele>
        <time>2016-02-17T13:35:55Z</time>
      </trkpt>
      <trkpt lat="45.28211" lon="0.46184">
        <ele>173.20001220703</ele>
        <time>2016-02-17T13:35:56Z</time>
      </trkpt>
      <trkpt lat="45.28199" lon="0.46157">
        <ele>173</ele>
        <time>2016-02-17T13:36:01Z</time>
      </trkpt>
      <trkpt lat="45.28185" lon="0.4613">
        <ele>172.79998779297</ele>
        <time>2016-02-17T13:36:07Z</time>
      </trkpt>
      <trkpt lat="45.28173" lon="0.461">
        <ele>172.79998779297</ele>
        <time>2016-02-17T13:36:13Z</time>
      </trkpt>
      <trkpt lat="45.28169" lon="0.46071">
        <ele>172.59997558594</ele>
        <time>2016-02-17T13:36:18Z</time>
      </trkpt>
      <trkpt lat="45.28171" lon="0.46032">
        <ele>172.20001220703</ele>
        <time>2016-02-17T13:36:25Z</time>
      </trkpt>
      <trkpt lat="45.28174" lon="0.46022">
        <ele>172</ele>
        <time>2016-02-17T13:36:27Z</time>
      </trkpt>
      <trkpt lat="45.28176" lon="0.46011">
        <ele>171.59997558594</ele>
        <time>2016-02-17T13:36:30Z</time>
      </trkpt>
      <trkpt lat="45.2818" lon="0.45987">
        <ele>171.20001220703</ele>
        <time>2016-02-17T13:36:36Z</time>
      </trkpt>
      <trkpt lat="45.28183" lon="0.45965">
        <ele>171</ele>
        <time>2016-02-17T13:36:41Z</time>
      </trkpt>
      <trkpt lat="45.28188" lon="0.45937">
        <ele>170.79998779297</ele>
        <time>2016-02-17T13:36:47Z</time>
      </trkpt>
      <trkpt lat="45.28194" lon="0.45896">
        <ele>170.59997558594</ele>
        <time>2016-02-17T13:36:55Z</time>
      </trkpt>
      <trkpt lat="45.28198" lon="0.45863">
        <ele>170.59997558594</ele>
        <time>2016-02-17T13:37:02Z</time>
      </trkpt>
      <trkpt lat="45.28199" lon="0.4583">
        <ele>170.20001220703</ele>
        <time>2016-02-17T13:37:09Z</time>
      </trkpt>
      <trkpt lat="45.28199" lon="0.45806">
        <ele>170.40002441406</ele>
        <time>2016-02-17T13:37:15Z</time>
      </trkpt>
      <trkpt lat="45.28195" lon="0.45777">
        <ele>171</ele>
        <time>2016-02-17T13:37:22Z</time>
      </trkpt>
      <trkpt lat="45.28189" lon="0.45756">
        <ele>171.59997558594</ele>
        <time>2016-02-17T13:37:28Z</time>
      </trkpt>
      <trkpt lat="45.28185" lon="0.45746">
        <ele>172</ele>
        <time>2016-02-17T13:37:31Z</time>
      </trkpt>
      <trkpt lat="45.28183" lon="0.45732">
        <ele>172.40002441406</ele>
        <time>2016-02-17T13:37:35Z</time>
      </trkpt>
      <trkpt lat="45.28181" lon="0.45716">
        <ele>173</ele>
        <time>2016-02-17T13:37:39Z</time>
      </trkpt>
      <trkpt lat="45.2818" lon="0.45699">
        <ele>174</ele>
        <time>2016-02-17T13:37:43Z</time>
      </trkpt>
      <trkpt lat="45.28179" lon="0.45695">
        <ele>174</ele>
        <time>2016-02-17T13:37:44Z</time>
      </trkpt>
      <trkpt lat="45.28179" lon="0.45676">
        <ele>175</ele>
        <time>2016-02-17T13:37:49Z</time>
      </trkpt>
      <trkpt lat="45.2818" lon="0.45673">
        <ele>175.20001220703</ele>
        <time>2016-02-17T13:37:50Z</time>
      </trkpt>
      <trkpt lat="45.28179" lon="0.45656">
        <ele>175.79998779297</ele>
        <time>2016-02-17T13:37:55Z</time>
      </trkpt>
      <trkpt lat="45.28177" lon="0.45649">
        <ele>176.20001220703</ele>
        <time>2016-02-17T13:37:57Z</time>
      </trkpt>
      <trkpt lat="45.28172" lon="0.45635">
        <ele>176.40002441406</ele>
        <time>2016-02-17T13:38:00Z</time>
      </trkpt>
      <trkpt lat="45.28161" lon="0.45612">
        <ele>177.20001220703</ele>
        <time>2016-02-17T13:38:06Z</time>
      </trkpt>
      <trkpt lat="45.28149" lon="0.45588">
        <ele>178</ele>
        <time>2016-02-17T13:38:13Z</time>
      </trkpt>
      <trkpt lat="45.28133" lon="0.45559">
        <ele>178.20001220703</ele>
        <time>2016-02-17T13:38:21Z</time>
      </trkpt>
      <trkpt lat="45.28119" lon="0.45533">
        <ele>177.79998779297</ele>
        <time>2016-02-17T13:38:28Z</time>
      </trkpt>
      <trkpt lat="45.28105" lon="0.45507">
        <ele>177.40002441406</ele>
        <time>2016-02-17T13:38:34Z</time>
      </trkpt>
      <trkpt lat="45.28093" lon="0.45479">
        <ele>176.59997558594</ele>
        <time>2016-02-17T13:38:40Z</time>
      </trkpt>
      <trkpt lat="45.28093" lon="0.45473">
        <ele>176.40002441406</ele>
        <time>2016-02-17T13:38:41Z</time>
      </trkpt>
      <trkpt lat="45.28093" lon="0.45468">
        <ele>176.20001220703</ele>
        <time>2016-02-17T13:38:42Z</time>
      </trkpt>
      <trkpt lat="45.28097" lon="0.45451">
        <ele>175.79998779297</ele>
        <time>2016-02-17T13:38:45Z</time>
      </trkpt>
      <trkpt lat="45.28109" lon="0.45409">
        <ele>175.79998779297</ele>
        <time>2016-02-17T13:38:53Z</time>
      </trkpt>
      <trkpt lat="45.28122" lon="0.45372">
        <ele>175.20001220703</ele>
        <time>2016-02-17T13:38:59Z</time>
      </trkpt>
      <trkpt lat="45.28125" lon="0.45366">
        <ele>175</ele>
        <time>2016-02-17T13:39:00Z</time>
      </trkpt>
      <trkpt lat="45.28142" lon="0.45338">
        <ele>174.20001220703</ele>
        <time>2016-02-17T13:39:05Z</time>
      </trkpt>
      <trkpt lat="45.28146" lon="0.45332">
        <ele>173.79998779297</ele>
        <time>2016-02-17T13:39:06Z</time>
      </trkpt>
      <trkpt lat="45.28152" lon="0.4532">
        <ele>173.20001220703</ele>
        <time>2016-02-17T13:39:08Z</time>
      </trkpt>
      <trkpt lat="45.28154" lon="0.45313">
        <ele>172.79998779297</ele>
        <time>2016-02-17T13:39:09Z</time>
      </trkpt>
      <trkpt lat="45.28156" lon="0.45299">
        <ele>172.20001220703</ele>
        <time>2016-02-17T13:39:11Z</time>
      </trkpt>
      <trkpt lat="45.2816" lon="0.45285">
        <ele>171.40002441406</ele>
        <time>2016-02-17T13:39:13Z</time>
      </trkpt>
      <trkpt lat="45.28166" lon="0.45272">
        <ele>170.40002441406</ele>
        <time>2016-02-17T13:39:15Z</time>
      </trkpt>
      <trkpt lat="45.28168" lon="0.45264">
        <ele>170</ele>
        <time>2016-02-17T13:39:16Z</time>
      </trkpt>
      <trkpt lat="45.28174" lon="0.45248">
        <ele>169.20001220703</ele>
        <time>2016-02-17T13:39:18Z</time>
      </trkpt>
      <trkpt lat="45.28186" lon="0.45215">
        <ele>167.79998779297</ele>
        <time>2016-02-17T13:39:22Z</time>
      </trkpt>
      <trkpt lat="45.28197" lon="0.45189">
        <ele>166.20001220703</ele>
        <time>2016-02-17T13:39:25Z</time>
      </trkpt>
      <trkpt lat="45.28204" lon="0.45172">
        <ele>164.59997558594</ele>
        <time>2016-02-17T13:39:27Z</time>
      </trkpt>
      <trkpt lat="45.28207" lon="0.45163">
        <ele>163.79998779297</ele>
        <time>2016-02-17T13:39:28Z</time>
      </trkpt>
      <trkpt lat="45.28211" lon="0.45154">
        <ele>163.20001220703</ele>
        <time>2016-02-17T13:39:29Z</time>
      </trkpt>
      <trkpt lat="45.28219" lon="0.45137">
        <ele>162</ele>
        <time>2016-02-17T13:39:31Z</time>
      </trkpt>
      <trkpt lat="45.28227" lon="0.4512">
        <ele>160.79998779297</ele>
        <time>2016-02-17T13:39:33Z</time>
      </trkpt>
      <trkpt lat="45.28234" lon="0.45105">
        <ele>159.59997558594</ele>
        <time>2016-02-17T13:39:35Z</time>
      </trkpt>
      <trkpt lat="45.28242" lon="0.4509">
        <ele>158.59997558594</ele>
        <time>2016-02-17T13:39:37Z</time>
      </trkpt>
      <trkpt lat="45.28253" lon="0.45077">
        <ele>157.79998779297</ele>
        <time>2016-02-17T13:39:39Z</time>
      </trkpt>
      <trkpt lat="45.28259" lon="0.4507">
        <ele>157.40002441406</ele>
        <time>2016-02-17T13:39:40Z</time>
      </trkpt>
      <trkpt lat="45.28264" lon="0.45064">
        <ele>156.79998779297</ele>
        <time>2016-02-17T13:39:41Z</time>
      </trkpt>
      <trkpt lat="45.28271" lon="0.45058">
        <ele>155.59997558594</ele>
        <time>2016-02-17T13:39:42Z</time>
      </trkpt>
      <trkpt lat="45.28284" lon="0.45046">
        <ele>154.59997558594</ele>
        <time>2016-02-17T13:39:44Z</time>
      </trkpt>
      <trkpt lat="45.28297" lon="0.45035">
        <ele>153.40002441406</ele>
        <time>2016-02-17T13:39:46Z</time>
      </trkpt>
      <trkpt lat="45.28304" lon="0.45029">
        <ele>152.79998779297</ele>
        <time>2016-02-17T13:39:47Z</time>
      </trkpt>
      <trkpt lat="45.28313" lon="0.45023">
        <ele>152.20001220703</ele>
        <time>2016-02-17T13:39:48Z</time>
      </trkpt>
      <trkpt lat="45.2833" lon="0.45011">
        <ele>150.59997558594</ele>
        <time>2016-02-17T13:39:50Z</time>
      </trkpt>
      <trkpt lat="45.28338" lon="0.45003">
        <ele>149.79998779297</ele>
        <time>2016-02-17T13:39:51Z</time>
      </trkpt>
      <trkpt lat="45.28346" lon="0.44996">
        <ele>149</ele>
        <time>2016-02-17T13:39:52Z</time>
      </trkpt>
      <trkpt lat="45.28363" lon="0.44982">
        <ele>147.79998779297</ele>
        <time>2016-02-17T13:39:54Z</time>
      </trkpt>
      <trkpt lat="45.28381" lon="0.44973">
        <ele>146</ele>
        <time>2016-02-17T13:39:56Z</time>
      </trkpt>
      <trkpt lat="45.2839" lon="0.44969">
        <ele>144.79998779297</ele>
        <time>2016-02-17T13:39:57Z</time>
      </trkpt>
      <trkpt lat="45.284" lon="0.44966">
        <ele>143.40002441406</ele>
        <time>2016-02-17T13:39:58Z</time>
      </trkpt>
      <trkpt lat="45.28408" lon="0.44962">
        <ele>142</ele>
        <time>2016-02-17T13:39:59Z</time>
      </trkpt>
      <trkpt lat="45.28418" lon="0.4496">
        <ele>140.79998779297</ele>
        <time>2016-02-17T13:40:00Z</time>
      </trkpt>
      <trkpt lat="45.28426" lon="0.44958">
        <ele>139.40002441406</ele>
        <time>2016-02-17T13:40:01Z</time>
      </trkpt>
      <trkpt lat="45.28435" lon="0.44956">
        <ele>138.20001220703</ele>
        <time>2016-02-17T13:40:02Z</time>
      </trkpt>
      <trkpt lat="45.28445" lon="0.44956">
        <ele>137</ele>
        <time>2016-02-17T13:40:03Z</time>
      </trkpt>
      <trkpt lat="45.28454" lon="0.44956">
        <ele>136</ele>
        <time>2016-02-17T13:40:04Z</time>
      </trkpt>
      <trkpt lat="45.28473" lon="0.44955">
        <ele>133.20001220703</ele>
        <time>2016-02-17T13:40:06Z</time>
      </trkpt>
      <trkpt lat="45.28483" lon="0.44953">
        <ele>132.20001220703</ele>
        <time>2016-02-17T13:40:07Z</time>
      </trkpt>
      <trkpt lat="45.28492" lon="0.44951">
        <ele>131.40002441406</ele>
        <time>2016-02-17T13:40:08Z</time>
      </trkpt>
      <trkpt lat="45.2851" lon="0.44943">
        <ele>129.59997558594</ele>
        <time>2016-02-17T13:40:10Z</time>
      </trkpt>
      <trkpt lat="45.28518" lon="0.44939">
        <ele>129</ele>
        <time>2016-02-17T13:40:11Z</time>
      </trkpt>
      <trkpt lat="45.28529" lon="0.44933">
        <ele>128.40002441406</ele>
        <time>2016-02-17T13:40:12Z</time>
      </trkpt>
      <trkpt lat="45.28548" lon="0.44922">
        <ele>126.79998779297</ele>
        <time>2016-02-17T13:40:14Z</time>
      </trkpt>
      <trkpt lat="45.28567" lon="0.44913">
        <ele>124.79998779297</ele>
        <time>2016-02-17T13:40:16Z</time>
      </trkpt>
      <trkpt lat="45.28577" lon="0.4491">
        <ele>124</ele>
        <time>2016-02-17T13:40:17Z</time>
      </trkpt>
      <trkpt lat="45.28587" lon="0.44909">
        <ele>123</ele>
        <time>2016-02-17T13:40:18Z</time>
      </trkpt>
      <trkpt lat="45.28597" lon="0.44908">
        <ele>122</ele>
        <time>2016-02-17T13:40:19Z</time>
      </trkpt>
      <trkpt lat="45.28606" lon="0.44908">
        <ele>121</ele>
        <time>2016-02-17T13:40:20Z</time>
      </trkpt>
      <trkpt lat="45.28616" lon="0.44908">
        <ele>120</ele>
        <time>2016-02-17T13:40:21Z</time>
      </trkpt>
      <trkpt lat="45.28626" lon="0.44905">
        <ele>119.20001220703</ele>
        <time>2016-02-17T13:40:22Z</time>
      </trkpt>
      <trkpt lat="45.28643" lon="0.44901">
        <ele>117.40002441406</ele>
        <time>2016-02-17T13:40:24Z</time>
      </trkpt>
      <trkpt lat="45.28652" lon="0.44898">
        <ele>116.20001220703</ele>
        <time>2016-02-17T13:40:25Z</time>
      </trkpt>
      <trkpt lat="45.2866" lon="0.44897">
        <ele>115</ele>
        <time>2016-02-17T13:40:26Z</time>
      </trkpt>
      <trkpt lat="45.28667" lon="0.44894">
        <ele>113.79998779297</ele>
        <time>2016-02-17T13:40:27Z</time>
      </trkpt>
      <trkpt lat="45.28673" lon="0.44892">
        <ele>112.40002441406</ele>
        <time>2016-02-17T13:40:28Z</time>
      </trkpt>
      <trkpt lat="45.28679" lon="0.44888">
        <ele>111</ele>
        <time>2016-02-17T13:40:29Z</time>
      </trkpt>
      <trkpt lat="45.28684" lon="0.44884">
        <ele>108.20001220703</ele>
        <time>2016-02-17T13:40:30Z</time>
      </trkpt>
      <trkpt lat="45.28689" lon="0.4488">
        <ele>107</ele>
        <time>2016-02-17T13:40:31Z</time>
      </trkpt>
      <trkpt lat="45.28694" lon="0.44871">
        <ele>105.79998779297</ele>
        <time>2016-02-17T13:40:32Z</time>
      </trkpt>
      <trkpt lat="45.28697" lon="0.44861">
        <ele>104.59997558594</ele>
        <time>2016-02-17T13:40:33Z</time>
      </trkpt>
      <trkpt lat="45.287" lon="0.44852">
        <ele>103.40002441406</ele>
        <time>2016-02-17T13:40:34Z</time>
      </trkpt>
      <trkpt lat="45.28702" lon="0.44842">
        <ele>102.20001220703</ele>
        <time>2016-02-17T13:40:35Z</time>
      </trkpt>
      <trkpt lat="45.28706" lon="0.44832">
        <ele>101.20001220703</ele>
        <time>2016-02-17T13:40:36Z</time>
      </trkpt>
      <trkpt lat="45.28712" lon="0.44823">
        <ele>100.40002441406</ele>
        <time>2016-02-17T13:40:37Z</time>
      </trkpt>
      <trkpt lat="45.2872" lon="0.44806">
        <ele>98.799987792969</ele>
        <time>2016-02-17T13:40:39Z</time>
      </trkpt>
      <trkpt lat="45.2873" lon="0.44789">
        <ele>97.200012207031</ele>
        <time>2016-02-17T13:40:41Z</time>
      </trkpt>
      <trkpt lat="45.28735" lon="0.44777">
        <ele>95.799987792969</ele>
        <time>2016-02-17T13:40:43Z</time>
      </trkpt>
      <trkpt lat="45.2874" lon="0.44765">
        <ele>94.200012207031</ele>
        <time>2016-02-17T13:40:45Z</time>
      </trkpt>
      <trkpt lat="45.28746" lon="0.44754">
        <ele>92.599975585938</ele>
        <time>2016-02-17T13:40:47Z</time>
      </trkpt>
      <trkpt lat="45.28752" lon="0.44746">
        <ele>91.400024414062</ele>
        <time>2016-02-17T13:40:49Z</time>
      </trkpt>
      <trkpt lat="45.28762" lon="0.44731">
        <ele>90.400024414062</ele>
        <time>2016-02-17T13:40:53Z</time>
      </trkpt>
      <trkpt lat="45.28766" lon="0.44724">
        <ele>90</ele>
        <time>2016-02-17T13:40:55Z</time>
      </trkpt>
      <trkpt lat="45.2878" lon="0.44703">
        <ele>89.799987792969</ele>
        <time>2016-02-17T13:41:02Z</time>
      </trkpt>
      <trkpt lat="45.28782" lon="0.447">
        <ele>89.799987792969</ele>
        <time>2016-02-17T13:41:03Z</time>
      </trkpt>
      <trkpt lat="45.28789" lon="0.44698">
        <ele>89.599975585938</ele>
        <time>2016-02-17T13:41:06Z</time>
      </trkpt>
      <trkpt lat="45.28792" lon="0.44698">
        <ele>89.599975585938</ele>
        <time>2016-02-17T13:41:07Z</time>
      </trkpt>
      <trkpt lat="45.28805" lon="0.44689">
        <ele>89.799987792969</ele>
        <time>2016-02-17T13:41:12Z</time>
      </trkpt>
      <trkpt lat="45.28821" lon="0.44675">
        <ele>91</ele>
        <time>2016-02-17T13:41:18Z</time>
      </trkpt>
      <trkpt lat="45.28831" lon="0.44666">
        <ele>91.400024414062</ele>
        <time>2016-02-17T13:41:22Z</time>
      </trkpt>
      <trkpt lat="45.28834" lon="0.44664">
        <ele>91.599975585938</ele>
        <time>2016-02-17T13:41:23Z</time>
      </trkpt>
      <trkpt lat="45.28843" lon="0.44657">
        <ele>92.400024414062</ele>
        <time>2016-02-17T13:41:27Z</time>
      </trkpt>
      <trkpt lat="45.2885" lon="0.4465">
        <ele>92.799987792969</ele>
        <time>2016-02-17T13:41:30Z</time>
      </trkpt>
      <trkpt lat="45.28856" lon="0.44642">
        <ele>93.599975585938</ele>
        <time>2016-02-17T13:41:34Z</time>
      </trkpt>
      <trkpt lat="45.28858" lon="0.44637">
        <ele>94</ele>
        <time>2016-02-17T13:41:36Z</time>
      </trkpt>
      <trkpt lat="45.28861" lon="0.44628">
        <ele>94.799987792969</ele>
        <time>2016-02-17T13:41:40Z</time>
      </trkpt>
      <trkpt lat="45.28863" lon="0.44621">
        <ele>95.400024414062</ele>
        <time>2016-02-17T13:41:43Z</time>
      </trkpt>
      <trkpt lat="45.28864" lon="0.44614">
        <ele>95.799987792969</ele>
        <time>2016-02-17T13:41:46Z</time>
      </trkpt>
      <trkpt lat="45.28864" lon="0.44604">
        <ele>96.799987792969</ele>
        <time>2016-02-17T13:41:50Z</time>
      </trkpt>
      <trkpt lat="45.28864" lon="0.44601">
        <ele>97</ele>
        <time>2016-02-17T13:41:51Z</time>
      </trkpt>
      <trkpt lat="45.28864" lon="0.44584">
        <ele>98.200012207031</ele>
        <time>2016-02-17T13:41:57Z</time>
      </trkpt>
      <trkpt lat="45.28866" lon="0.44575">
        <ele>99.200012207031</ele>
        <time>2016-02-17T13:42:01Z</time>
      </trkpt>
      <trkpt lat="45.28867" lon="0.44569">
        <ele>99.799987792969</ele>
        <time>2016-02-17T13:42:03Z</time>
      </trkpt>
      <trkpt lat="45.28867" lon="0.44563">
        <ele>100.59997558594</ele>
        <time>2016-02-17T13:42:06Z</time>
      </trkpt>
      <trkpt lat="45.28867" lon="0.44557">
        <ele>101.40002441406</ele>
        <time>2016-02-17T13:42:09Z</time>
      </trkpt>
      <trkpt lat="45.28868" lon="0.44555">
        <ele>101.59997558594</ele>
        <time>2016-02-17T13:42:10Z</time>
      </trkpt>
      <trkpt lat="45.28869" lon="0.44553">
        <ele>102</ele>
        <time>2016-02-17T13:42:11Z</time>
      </trkpt>
      <trkpt lat="45.28869" lon="0.44547">
        <ele>102.79998779297</ele>
        <time>2016-02-17T13:42:14Z</time>
      </trkpt>
      <trkpt lat="45.2887" lon="0.44544">
        <ele>103.20001220703</ele>
        <time>2016-02-17T13:42:15Z</time>
      </trkpt>
      <trkpt lat="45.28869" lon="0.44535">
        <ele>104.20001220703</ele>
        <time>2016-02-17T13:42:19Z</time>
      </trkpt>
      <trkpt lat="45.2887" lon="0.4453">
        <ele>104.59997558594</ele>
        <time>2016-02-17T13:42:21Z</time>
      </trkpt>
      <trkpt lat="45.2887" lon="0.44527">
        <ele>104.79998779297</ele>
        <time>2016-02-17T13:42:22Z</time>
      </trkpt>
      <trkpt lat="45.2887" lon="0.44524">
        <ele>105.20001220703</ele>
        <time>2016-02-17T13:42:23Z</time>
      </trkpt>
      <trkpt lat="45.2887" lon="0.44516">
        <ele>106</ele>
        <time>2016-02-17T13:42:26Z</time>
      </trkpt>
      <trkpt lat="45.2887" lon="0.44513">
        <ele>106.20001220703</ele>
        <time>2016-02-17T13:42:27Z</time>
      </trkpt>
      <trkpt lat="45.2887" lon="0.4451">
        <ele>106.40002441406</ele>
        <time>2016-02-17T13:42:28Z</time>
      </trkpt>
      <trkpt lat="45.2887" lon="0.44499">
        <ele>107.59997558594</ele>
        <time>2016-02-17T13:42:31Z</time>
      </trkpt>
      <trkpt lat="45.2887" lon="0.4449">
        <ele>108.59997558594</ele>
        <time>2016-02-17T13:42:34Z</time>
      </trkpt>
      <trkpt lat="45.28871" lon="0.44479">
        <ele>109.79998779297</ele>
        <time>2016-02-17T13:42:38Z</time>
      </trkpt>
      <trkpt lat="45.28871" lon="0.44474">
        <ele>110.40002441406</ele>
        <time>2016-02-17T13:42:40Z</time>
      </trkpt>
      <trkpt lat="45.28871" lon="0.44468">
        <ele>110.79998779297</ele>
        <time>2016-02-17T13:42:42Z</time>
      </trkpt>
      <trkpt lat="45.28872" lon="0.44455">
        <ele>111.79998779297</ele>
        <time>2016-02-17T13:42:46Z</time>
      </trkpt>
      <trkpt lat="45.28872" lon="0.44452">
        <ele>112</ele>
        <time>2016-02-17T13:42:47Z</time>
      </trkpt>
      <trkpt lat="45.28872" lon="0.44443">
        <ele>112.79998779297</ele>
        <time>2016-02-17T13:42:50Z</time>
      </trkpt>
      <trkpt lat="45.28873" lon="0.4444">
        <ele>113.20001220703</ele>
        <time>2016-02-17T13:42:51Z</time>
      </trkpt>
      <trkpt lat="45.28875" lon="0.44431">
        <ele>114.20001220703</ele>
        <time>2016-02-17T13:42:55Z</time>
      </trkpt>
      <trkpt lat="45.28877" lon="0.44424">
        <ele>115</ele>
        <time>2016-02-17T13:42:58Z</time>
      </trkpt>
      <trkpt lat="45.28878" lon="0.44418">
        <ele>115.40002441406</ele>
        <time>2016-02-17T13:43:00Z</time>
      </trkpt>
      <trkpt lat="45.28882" lon="0.44407">
        <ele>116.59997558594</ele>
        <time>2016-02-17T13:43:05Z</time>
      </trkpt>
      <trkpt lat="45.28886" lon="0.44394">
        <ele>117.79998779297</ele>
        <time>2016-02-17T13:43:11Z</time>
      </trkpt>
      <trkpt lat="45.28888" lon="0.4438">
        <ele>119</ele>
        <time>2016-02-17T13:43:16Z</time>
      </trkpt>
      <trkpt lat="45.28889" lon="0.44378">
        <ele>119.20001220703</ele>
        <time>2016-02-17T13:43:17Z</time>
      </trkpt>
      <trkpt lat="45.28889" lon="0.44374">
        <ele>119.59997558594</ele>
        <time>2016-02-17T13:43:18Z</time>
      </trkpt>
      <trkpt lat="45.2889" lon="0.44369">
        <ele>120.20001220703</ele>
        <time>2016-02-17T13:43:20Z</time>
      </trkpt>
      <trkpt lat="45.28891" lon="0.44364">
        <ele>120.59997558594</ele>
        <time>2016-02-17T13:43:22Z</time>
      </trkpt>
      <trkpt lat="45.28893" lon="0.44356">
        <ele>121.40002441406</ele>
        <time>2016-02-17T13:43:25Z</time>
      </trkpt>
      <trkpt lat="45.28896" lon="0.44347">
        <ele>122.20001220703</ele>
        <time>2016-02-17T13:43:29Z</time>
      </trkpt>
      <trkpt lat="45.28897" lon="0.44344">
        <ele>122.59997558594</ele>
        <time>2016-02-17T13:43:30Z</time>
      </trkpt>
      <trkpt lat="45.289" lon="0.44332">
        <ele>123.59997558594</ele>
        <time>2016-02-17T13:43:35Z</time>
      </trkpt>
      <trkpt lat="45.28901" lon="0.4433">
        <ele>123.79998779297</ele>
        <time>2016-02-17T13:43:36Z</time>
      </trkpt>
      <trkpt lat="45.28904" lon="0.44321">
        <ele>124.79998779297</ele>
        <time>2016-02-17T13:43:40Z</time>
      </trkpt>
      <trkpt lat="45.28905" lon="0.44314">
        <ele>125.59997558594</ele>
        <time>2016-02-17T13:43:43Z</time>
      </trkpt>
      <trkpt lat="45.28906" lon="0.44311">
        <ele>126</ele>
        <time>2016-02-17T13:43:44Z</time>
      </trkpt>
      <trkpt lat="45.28908" lon="0.44302">
        <ele>127.20001220703</ele>
        <time>2016-02-17T13:43:48Z</time>
      </trkpt>
      <trkpt lat="45.28908" lon="0.443">
        <ele>127.40002441406</ele>
        <time>2016-02-17T13:43:49Z</time>
      </trkpt>
      <trkpt lat="45.2891" lon="0.44292">
        <ele>128.40002441406</ele>
        <time>2016-02-17T13:43:52Z</time>
      </trkpt>
      <trkpt lat="45.28911" lon="0.44283">
        <ele>129.40002441406</ele>
        <time>2016-02-17T13:43:56Z</time>
      </trkpt>
      <trkpt lat="45.28911" lon="0.4428">
        <ele>129.59997558594</ele>
        <time>2016-02-17T13:43:57Z</time>
      </trkpt>
      <trkpt lat="45.28913" lon="0.44273">
        <ele>130.40002441406</ele>
        <time>2016-02-17T13:44:00Z</time>
      </trkpt>
      <trkpt lat="45.28914" lon="0.44262">
        <ele>131.59997558594</ele>
        <time>2016-02-17T13:44:04Z</time>
      </trkpt>
      <trkpt lat="45.28914" lon="0.44254">
        <ele>132.59997558594</ele>
        <time>2016-02-17T13:44:07Z</time>
      </trkpt>
      <trkpt lat="45.28917" lon="0.44243">
        <ele>133.40002441406</ele>
        <time>2016-02-17T13:44:11Z</time>
      </trkpt>
      <trkpt lat="45.28918" lon="0.44239">
        <ele>133.79998779297</ele>
        <time>2016-02-17T13:44:13Z</time>
      </trkpt>
      <trkpt lat="45.2892" lon="0.44231">
        <ele>134.79998779297</ele>
        <time>2016-02-17T13:44:17Z</time>
      </trkpt>
      <trkpt lat="45.2892" lon="0.44228">
        <ele>135.20001220703</ele>
        <time>2016-02-17T13:44:18Z</time>
      </trkpt>
      <trkpt lat="45.28923" lon="0.44219">
        <ele>135.79998779297</ele>
        <time>2016-02-17T13:44:21Z</time>
      </trkpt>
      <trkpt lat="45.28926" lon="0.44208">
        <ele>137</ele>
        <time>2016-02-17T13:44:25Z</time>
      </trkpt>
      <trkpt lat="45.28926" lon="0.44205">
        <ele>137.40002441406</ele>
        <time>2016-02-17T13:44:26Z</time>
      </trkpt>
      <trkpt lat="45.28929" lon="0.44195">
        <ele>138.20001220703</ele>
        <time>2016-02-17T13:44:29Z</time>
      </trkpt>
      <trkpt lat="45.28933" lon="0.44188">
        <ele>139.40002441406</ele>
        <time>2016-02-17T13:44:32Z</time>
      </trkpt>
      <trkpt lat="45.28936" lon="0.44181">
        <ele>140.59997558594</ele>
        <time>2016-02-17T13:44:35Z</time>
      </trkpt>
      <trkpt lat="45.28941" lon="0.44173">
        <ele>141.59997558594</ele>
        <time>2016-02-17T13:44:39Z</time>
      </trkpt>
      <trkpt lat="45.28942" lon="0.44172">
        <ele>141.79998779297</ele>
        <time>2016-02-17T13:44:40Z</time>
      </trkpt>
      <trkpt lat="45.2895" lon="0.44161">
        <ele>142.40002441406</ele>
        <time>2016-02-17T13:44:46Z</time>
      </trkpt>
      <trkpt lat="45.28955" lon="0.44155">
        <ele>142.79998779297</ele>
        <time>2016-02-17T13:44:49Z</time>
      </trkpt>
      <trkpt lat="45.28962" lon="0.44151">
        <ele>143.20001220703</ele>
        <time>2016-02-17T13:44:52Z</time>
      </trkpt>
      <trkpt lat="45.28975" lon="0.44141">
        <ele>143.79998779297</ele>
        <time>2016-02-17T13:44:58Z</time>
      </trkpt>
      <trkpt lat="45.28995" lon="0.44128">
        <ele>144.40002441406</ele>
        <time>2016-02-17T13:45:06Z</time>
      </trkpt>
      <trkpt lat="45.29011" lon="0.44114">
        <ele>144.59997558594</ele>
        <time>2016-02-17T13:45:12Z</time>
      </trkpt>
      <trkpt lat="45.29015" lon="0.44098">
        <ele>144.79998779297</ele>
        <time>2016-02-17T13:45:16Z</time>
      </trkpt>
      <trkpt lat="45.29013" lon="0.44084">
        <ele>146</ele>
        <time>2016-02-17T13:45:20Z</time>
      </trkpt>
      <trkpt lat="45.29012" lon="0.4408">
        <ele>146.20001220703</ele>
        <time>2016-02-17T13:45:21Z</time>
      </trkpt>
      <trkpt lat="45.29006" lon="0.44067">
        <ele>147</ele>
        <time>2016-02-17T13:45:25Z</time>
      </trkpt>
      <trkpt lat="45.29006" lon="0.44063">
        <ele>147.20001220703</ele>
        <time>2016-02-17T13:45:26Z</time>
      </trkpt>
      <trkpt lat="45.29007" lon="0.44058">
        <ele>147.40002441406</ele>
        <time>2016-02-17T13:45:27Z</time>
      </trkpt>
      <trkpt lat="45.29014" lon="0.44043">
        <ele>147.59997558594</ele>
        <time>2016-02-17T13:45:31Z</time>
      </trkpt>
      <trkpt lat="45.29022" lon="0.44036">
        <ele>147.79998779297</ele>
        <time>2016-02-17T13:45:34Z</time>
      </trkpt>
      <trkpt lat="45.29028" lon="0.44033">
        <ele>147.79998779297</ele>
        <time>2016-02-17T13:45:36Z</time>
      </trkpt>
      <trkpt lat="45.29036" lon="0.44029">
        <ele>148.20001220703</ele>
        <time>2016-02-17T13:45:39Z</time>
      </trkpt>
      <trkpt lat="45.2905" lon="0.44025">
        <ele>148.59997558594</ele>
        <time>2016-02-17T13:45:44Z</time>
      </trkpt>
      <trkpt lat="45.29061" lon="0.44024">
        <ele>149.20001220703</ele>
        <time>2016-02-17T13:45:48Z</time>
      </trkpt>
      <trkpt lat="45.29073" lon="0.44025">
        <ele>150</ele>
        <time>2016-02-17T13:45:52Z</time>
      </trkpt>
      <trkpt lat="45.29079" lon="0.44025">
        <ele>150.40002441406</ele>
        <time>2016-02-17T13:45:54Z</time>
      </trkpt>
      <trkpt lat="45.29091" lon="0.44031">
        <ele>151.40002441406</ele>
        <time>2016-02-17T13:45:58Z</time>
      </trkpt>
      <trkpt lat="45.29093" lon="0.44033">
        <ele>151.59997558594</ele>
        <time>2016-02-17T13:45:59Z</time>
      </trkpt>
      <trkpt lat="45.29104" lon="0.44043">
        <ele>152.79998779297</ele>
        <time>2016-02-17T13:46:03Z</time>
      </trkpt>
      <trkpt lat="45.29109" lon="0.44047">
        <ele>153.20001220703</ele>
        <time>2016-02-17T13:46:05Z</time>
      </trkpt>
      <trkpt lat="45.29114" lon="0.4405">
        <ele>154</ele>
        <time>2016-02-17T13:46:07Z</time>
      </trkpt>
      <trkpt lat="45.29127" lon="0.4406">
        <ele>155.20001220703</ele>
        <time>2016-02-17T13:46:12Z</time>
      </trkpt>
      <trkpt lat="45.29132" lon="0.44064">
        <ele>155.59997558594</ele>
        <time>2016-02-17T13:46:14Z</time>
      </trkpt>
      <trkpt lat="45.2914" lon="0.44072">
        <ele>156.20001220703</ele>
        <time>2016-02-17T13:46:17Z</time>
      </trkpt>
      <trkpt lat="45.29149" lon="0.44085">
        <ele>157.20001220703</ele>
        <time>2016-02-17T13:46:21Z</time>
      </trkpt>
      <trkpt lat="45.29151" lon="0.44089">
        <ele>157.40002441406</ele>
        <time>2016-02-17T13:46:22Z</time>
      </trkpt>
      <trkpt lat="45.29166" lon="0.44112">
        <ele>158</ele>
        <time>2016-02-17T13:46:29Z</time>
      </trkpt>
      <trkpt lat="45.29171" lon="0.44119">
        <ele>158.40002441406</ele>
        <time>2016-02-17T13:46:31Z</time>
      </trkpt>
      <trkpt lat="45.29183" lon="0.44134">
        <ele>159.40002441406</ele>
        <time>2016-02-17T13:46:36Z</time>
      </trkpt>
      <trkpt lat="45.29185" lon="0.44136">
        <ele>159.59997558594</ele>
        <time>2016-02-17T13:46:37Z</time>
      </trkpt>
      <trkpt lat="45.292" lon="0.44146">
        <ele>160.79998779297</ele>
        <time>2016-02-17T13:46:42Z</time>
      </trkpt>
      <trkpt lat="45.29218" lon="0.44155">
        <ele>162</ele>
        <time>2016-02-17T13:46:48Z</time>
      </trkpt>
      <trkpt lat="45.29236" lon="0.44158">
        <ele>163.20001220703</ele>
        <time>2016-02-17T13:46:54Z</time>
      </trkpt>
      <trkpt lat="45.2924" lon="0.44158">
        <ele>163.40002441406</ele>
        <time>2016-02-17T13:46:55Z</time>
      </trkpt>
      <trkpt lat="45.29255" lon="0.44153">
        <ele>164.40002441406</ele>
        <time>2016-02-17T13:47:00Z</time>
      </trkpt>
      <trkpt lat="45.29258" lon="0.4415">
        <ele>164.59997558594</ele>
        <time>2016-02-17T13:47:01Z</time>
      </trkpt>
      <trkpt lat="45.2928" lon="0.44139">
        <ele>165.59997558594</ele>
        <time>2016-02-17T13:47:07Z</time>
      </trkpt>
      <trkpt lat="45.29308" lon="0.44121">
        <ele>165.79998779297</ele>
        <time>2016-02-17T13:47:15Z</time>
      </trkpt>
      <trkpt lat="45.29312" lon="0.44107">
        <ele>165.79998779297</ele>
        <time>2016-02-17T13:47:18Z</time>
      </trkpt>
      <trkpt lat="45.29315" lon="0.44083">
        <ele>166.59997558594</ele>
        <time>2016-02-17T13:47:24Z</time>
      </trkpt>
      <trkpt lat="45.29316" lon="0.4408">
        <ele>166.79998779297</ele>
        <time>2016-02-17T13:47:25Z</time>
      </trkpt>
      <trkpt lat="45.29321" lon="0.44067">
        <ele>167.40002441406</ele>
        <time>2016-02-17T13:47:29Z</time>
      </trkpt>
      <trkpt lat="45.29323" lon="0.44065">
        <ele>167.59997558594</ele>
        <time>2016-02-17T13:47:30Z</time>
      </trkpt>
      <trkpt lat="45.29332" lon="0.44056">
        <ele>168.40002441406</ele>
        <time>2016-02-17T13:47:35Z</time>
      </trkpt>
      <trkpt lat="45.29337" lon="0.44049">
        <ele>168.79998779297</ele>
        <time>2016-02-17T13:47:38Z</time>
      </trkpt>
      <trkpt lat="45.29342" lon="0.44043">
        <ele>169.40002441406</ele>
        <time>2016-02-17T13:47:41Z</time>
      </trkpt>
      <trkpt lat="45.29344" lon="0.4404">
        <ele>169.79998779297</ele>
        <time>2016-02-17T13:47:42Z</time>
      </trkpt>
      <trkpt lat="45.29356" lon="0.44026">
        <ele>171</ele>
        <time>2016-02-17T13:47:48Z</time>
      </trkpt>
      <trkpt lat="45.29368" lon="0.44014">
        <ele>172</ele>
        <time>2016-02-17T13:47:53Z</time>
      </trkpt>
      <trkpt lat="45.2937" lon="0.44012">
        <ele>172.20001220703</ele>
        <time>2016-02-17T13:47:54Z</time>
      </trkpt>
      <trkpt lat="45.2939" lon="0.43997">
        <ele>173.20001220703</ele>
        <time>2016-02-17T13:48:01Z</time>
      </trkpt>
      <trkpt lat="45.29409" lon="0.43987">
        <ele>173.79998779297</ele>
        <time>2016-02-17T13:48:07Z</time>
      </trkpt>
      <trkpt lat="45.2942" lon="0.4398">
        <ele>174.20001220703</ele>
        <time>2016-02-17T13:48:11Z</time>
      </trkpt>
      <trkpt lat="45.29428" lon="0.43971">
        <ele>174.59997558594</ele>
        <time>2016-02-17T13:48:14Z</time>
      </trkpt>
      <trkpt lat="45.29443" lon="0.43962">
        <ele>174.79998779297</ele>
        <time>2016-02-17T13:48:19Z</time>
      </trkpt>
      <trkpt lat="45.29457" lon="0.43955">
        <ele>175.20001220703</ele>
        <time>2016-02-17T13:48:24Z</time>
      </trkpt>
      <trkpt lat="45.29459" lon="0.43953">
        <ele>175.40002441406</ele>
        <time>2016-02-17T13:48:25Z</time>
      </trkpt>
      <trkpt lat="45.2948" lon="0.43941">
        <ele>175.59997558594</ele>
        <time>2016-02-17T13:48:32Z</time>
      </trkpt>
      <trkpt lat="45.29494" lon="0.43935">
        <ele>176</ele>
        <time>2016-02-17T13:48:38Z</time>
      </trkpt>
      <trkpt lat="45.29505" lon="0.43933">
        <ele>176.40002441406</ele>
        <time>2016-02-17T13:48:44Z</time>
      </trkpt>
      <trkpt lat="45.29507" lon="0.43927">
        <ele>176.59997558594</ele>
        <time>2016-02-17T13:48:52Z</time>
      </trkpt>
      <trkpt lat="45.29512" lon="0.43922">
        <ele>176.59997558594</ele>
        <time>2016-02-17T13:48:54Z</time>
      </trkpt>
      <trkpt lat="45.29524" lon="0.43914">
        <ele>176.59997558594</ele>
        <time>2016-02-17T13:48:58Z</time>
      </trkpt>
      <trkpt lat="45.29527" lon="0.43913">
        <ele>176.79998779297</ele>
        <time>2016-02-17T13:48:59Z</time>
      </trkpt>
      <trkpt lat="45.29538" lon="0.43903">
        <ele>177</ele>
        <time>2016-02-17T13:49:04Z</time>
      </trkpt>
      <trkpt lat="45.2955" lon="0.43892">
        <ele>177.40002441406</ele>
        <time>2016-02-17T13:49:09Z</time>
      </trkpt>
      <trkpt lat="45.29554" lon="0.4389">
        <ele>177.40002441406</ele>
        <time>2016-02-17T13:49:10Z</time>
      </trkpt>
      <trkpt lat="45.29571" lon="0.43885">
        <ele>177.79998779297</ele>
        <time>2016-02-17T13:49:16Z</time>
      </trkpt>
      <trkpt lat="45.29573" lon="0.43883">
        <ele>178</ele>
        <time>2016-02-17T13:49:17Z</time>
      </trkpt>
      <trkpt lat="45.29576" lon="0.43881">
        <ele>178.40002441406</ele>
        <time>2016-02-17T13:49:18Z</time>
      </trkpt>
      <trkpt lat="45.29581" lon="0.43875">
        <ele>178.79998779297</ele>
        <time>2016-02-17T13:49:20Z</time>
      </trkpt>
      <trkpt lat="45.29595" lon="0.43869">
        <ele>179.40002441406</ele>
        <time>2016-02-17T13:49:24Z</time>
      </trkpt>
      <trkpt lat="45.29611" lon="0.4386">
        <ele>179.59997558594</ele>
        <time>2016-02-17T13:49:30Z</time>
      </trkpt>
      <trkpt lat="45.29614" lon="0.43859">
        <ele>179.59997558594</ele>
        <time>2016-02-17T13:49:31Z</time>
      </trkpt>
      <trkpt lat="45.29641" lon="0.43847">
        <ele>180.20001220703</ele>
        <time>2016-02-17T13:49:39Z</time>
      </trkpt>
      <trkpt lat="45.29645" lon="0.43846">
        <ele>180.40002441406</ele>
        <time>2016-02-17T13:49:40Z</time>
      </trkpt>
      <trkpt lat="45.29661" lon="0.43841">
        <ele>180.79998779297</ele>
        <time>2016-02-17T13:49:45Z</time>
      </trkpt>
      <trkpt lat="45.29675" lon="0.43846">
        <ele>181</ele>
        <time>2016-02-17T13:49:49Z</time>
      </trkpt>
      <trkpt lat="45.29685" lon="0.43851">
        <ele>181.40002441406</ele>
        <time>2016-02-17T13:49:52Z</time>
      </trkpt>
      <trkpt lat="45.29693" lon="0.43855">
        <ele>181.79998779297</ele>
        <time>2016-02-17T13:49:55Z</time>
      </trkpt>
      <trkpt lat="45.29702" lon="0.43858">
        <ele>181.59997558594</ele>
        <time>2016-02-17T13:50:01Z</time>
      </trkpt>
      <trkpt lat="45.29707" lon="0.4386">
        <ele>181.40002441406</ele>
        <time>2016-02-17T13:50:04Z</time>
      </trkpt>
      <trkpt lat="45.29709" lon="0.43865">
        <ele>181.40002441406</ele>
        <time>2016-02-17T13:50:06Z</time>
      </trkpt>
      <trkpt lat="45.29716" lon="0.43867">
        <ele>181.20001220703</ele>
        <time>2016-02-17T13:50:09Z</time>
      </trkpt>
      <trkpt lat="45.29722" lon="0.43869">
        <ele>181.20001220703</ele>
        <time>2016-02-17T13:50:11Z</time>
      </trkpt>
      <trkpt lat="45.29745" lon="0.43879">
        <ele>181.40002441406</ele>
        <time>2016-02-17T13:50:18Z</time>
      </trkpt>
      <trkpt lat="45.29763" lon="0.43887">
        <ele>181.40002441406</ele>
        <time>2016-02-17T13:50:24Z</time>
      </trkpt>
      <trkpt lat="45.2978" lon="0.43898">
        <ele>180.79998779297</ele>
        <time>2016-02-17T13:50:30Z</time>
      </trkpt>
      <trkpt lat="45.29788" lon="0.43904">
        <ele>180.79998779297</ele>
        <time>2016-02-17T13:50:34Z</time>
      </trkpt>
      <trkpt lat="45.29789" lon="0.43904">
        <ele>180.79998779297</ele>
        <time>2016-02-17T13:50:35Z</time>
      </trkpt>
      <trkpt lat="45.29794" lon="0.43907">
        <ele>180.79998779297</ele>
        <time>2016-02-17T13:50:38Z</time>
      </trkpt>
      <trkpt lat="45.29801" lon="0.43912">
        <ele>181</ele>
        <time>2016-02-17T13:50:42Z</time>
      </trkpt>
      <trkpt lat="45.29812" lon="0.4392">
        <ele>181.40002441406</ele>
        <time>2016-02-17T13:50:48Z</time>
      </trkpt>
      <trkpt lat="45.29827" lon="0.4393">
        <ele>182.40002441406</ele>
        <time>2016-02-17T13:50:54Z</time>
      </trkpt>
      <trkpt lat="45.29833" lon="0.43933">
        <ele>182.59997558594</ele>
        <time>2016-02-17T13:50:57Z</time>
      </trkpt>
      <trkpt lat="45.2984" lon="0.43937">
        <ele>182.79998779297</ele>
        <time>2016-02-17T13:51:00Z</time>
      </trkpt>
      <trkpt lat="45.2985" lon="0.43942">
        <ele>183.20001220703</ele>
        <time>2016-02-17T13:51:05Z</time>
      </trkpt>
      <trkpt lat="45.29855" lon="0.43944">
        <ele>183.59997558594</ele>
        <time>2016-02-17T13:51:08Z</time>
      </trkpt>
      <trkpt lat="45.29861" lon="0.43947">
        <ele>184</ele>
        <time>2016-02-17T13:51:11Z</time>
      </trkpt>
      <trkpt lat="45.29873" lon="0.43954">
        <ele>184.59997558594</ele>
        <time>2016-02-17T13:51:18Z</time>
      </trkpt>
      <trkpt lat="45.29891" lon="0.43963">
        <ele>185</ele>
        <time>2016-02-17T13:51:34Z</time>
      </trkpt>
      <trkpt lat="45.29902" lon="0.43969">
        <ele>185.59997558594</ele>
        <time>2016-02-17T13:51:56Z</time>
      </trkpt>
      <trkpt lat="45.29905" lon="0.43972">
        <ele>185.59997558594</ele>
        <time>2016-02-17T13:51:57Z</time>
      </trkpt>
      <trkpt lat="45.29917" lon="0.4398">
        <ele>185.79998779297</ele>
        <time>2016-02-17T13:52:02Z</time>
      </trkpt>
      <trkpt lat="45.29927" lon="0.43987">
        <ele>186.20001220703</ele>
        <time>2016-02-17T13:52:07Z</time>
      </trkpt>
      <trkpt lat="45.29939" lon="0.43995">
        <ele>186.59997558594</ele>
        <time>2016-02-17T13:52:34Z</time>
      </trkpt>
      <trkpt lat="45.29944" lon="0.43996">
        <ele>186.59997558594</ele>
        <time>2016-02-17T13:52:36Z</time>
      </trkpt>
      <trkpt lat="45.29946" lon="0.43999">
        <ele>186.59997558594</ele>
        <time>2016-02-17T13:52:37Z</time>
      </trkpt>
      <trkpt lat="45.29954" lon="0.44003">
        <ele>186.59997558594</ele>
        <time>2016-02-17T13:52:41Z</time>
      </trkpt>
      <trkpt lat="45.29961" lon="0.44009">
        <ele>186.79998779297</ele>
        <time>2016-02-17T13:52:44Z</time>
      </trkpt>
      <trkpt lat="45.29965" lon="0.44013">
        <ele>186.79998779297</ele>
        <time>2016-02-17T13:52:46Z</time>
      </trkpt>
      <trkpt lat="45.29973" lon="0.44024">
        <ele>186.79998779297</ele>
        <time>2016-02-17T13:52:51Z</time>
      </trkpt>
      <trkpt lat="45.29984" lon="0.44045">
        <ele>187.20001220703</ele>
        <time>2016-02-17T13:52:57Z</time>
      </trkpt>
      <trkpt lat="45.29995" lon="0.44066">
        <ele>187.40002441406</ele>
        <time>2016-02-17T13:53:09Z</time>
      </trkpt>
      <trkpt lat="45.3" lon="0.44075">
        <ele>187.40002441406</ele>
        <time>2016-02-17T13:53:12Z</time>
      </trkpt>
      <trkpt lat="45.30005" lon="0.44081">
        <ele>187.20001220703</ele>
        <time>2016-02-17T13:53:14Z</time>
      </trkpt>
      <trkpt lat="45.30016" lon="0.44094">
        <ele>186.40002441406</ele>
        <time>2016-02-17T13:53:18Z</time>
      </trkpt>
      <trkpt lat="45.30023" lon="0.441">
        <ele>185.79998779297</ele>
        <time>2016-02-17T13:53:21Z</time>
      </trkpt>
      <trkpt lat="45.30029" lon="0.44105">
        <ele>185.59997558594</ele>
        <time>2016-02-17T13:53:23Z</time>
      </trkpt>
      <trkpt lat="45.30034" lon="0.4411">
        <ele>185.40002441406</ele>
        <time>2016-02-17T13:53:25Z</time>
      </trkpt>
      <trkpt lat="45.30046" lon="0.44119">
        <ele>185.20001220703</ele>
        <time>2016-02-17T13:53:29Z</time>
      </trkpt>
      <trkpt lat="45.30063" lon="0.44134">
        <ele>184.79998779297</ele>
        <time>2016-02-17T13:53:35Z</time>
      </trkpt>
      <trkpt lat="45.30077" lon="0.44145">
        <ele>184.40002441406</ele>
        <time>2016-02-17T13:53:39Z</time>
      </trkpt>
      <trkpt lat="45.30085" lon="0.4415">
        <ele>184</ele>
        <time>2016-02-17T13:53:41Z</time>
      </trkpt>
      <trkpt lat="45.30094" lon="0.44157">
        <ele>183.40002441406</ele>
        <time>2016-02-17T13:53:44Z</time>
      </trkpt>
      <trkpt lat="45.30097" lon="0.4416">
        <ele>183</ele>
        <time>2016-02-17T13:53:46Z</time>
      </trkpt>
      <trkpt lat="45.301" lon="0.44166">
        <ele>182.40002441406</ele>
        <time>2016-02-17T13:53:50Z</time>
      </trkpt>
      <trkpt lat="45.30103" lon="0.4417">
        <ele>182.20001220703</ele>
        <time>2016-02-17T13:53:52Z</time>
      </trkpt>
      <trkpt lat="45.30116" lon="0.44181">
        <ele>182</ele>
        <time>2016-02-17T13:53:58Z</time>
      </trkpt>
      <trkpt lat="45.30129" lon="0.44191">
        <ele>181.40002441406</ele>
        <time>2016-02-17T13:54:04Z</time>
      </trkpt>
      <trkpt lat="45.30138" lon="0.44198">
        <ele>181.40002441406</ele>
        <time>2016-02-17T13:54:08Z</time>
      </trkpt>
      <trkpt lat="45.30141" lon="0.442">
        <ele>181.20001220703</ele>
        <time>2016-02-17T13:54:09Z</time>
      </trkpt>
      <trkpt lat="45.30149" lon="0.4421">
        <ele>181</ele>
        <time>2016-02-17T13:54:13Z</time>
      </trkpt>
      <trkpt lat="45.30162" lon="0.44221">
        <ele>180.79998779297</ele>
        <time>2016-02-17T13:54:19Z</time>
      </trkpt>
      <trkpt lat="45.30177" lon="0.44233">
        <ele>180.59997558594</ele>
        <time>2016-02-17T13:54:25Z</time>
      </trkpt>
      <trkpt lat="45.30196" lon="0.44245">
        <ele>180.79998779297</ele>
        <time>2016-02-17T13:54:31Z</time>
      </trkpt>
      <trkpt lat="45.30203" lon="0.44252">
        <ele>180.79998779297</ele>
        <time>2016-02-17T13:54:34Z</time>
      </trkpt>
      <trkpt lat="45.30213" lon="0.44256">
        <ele>180.79998779297</ele>
        <time>2016-02-17T13:54:40Z</time>
      </trkpt>
      <trkpt lat="45.30222" lon="0.44257">
        <ele>181</ele>
        <time>2016-02-17T13:54:44Z</time>
      </trkpt>
      <trkpt lat="45.30234" lon="0.44261">
        <ele>181.40002441406</ele>
        <time>2016-02-17T13:54:49Z</time>
      </trkpt>
      <trkpt lat="45.30251" lon="0.44264">
        <ele>182.40002441406</ele>
        <time>2016-02-17T13:54:54Z</time>
      </trkpt>
      <trkpt lat="45.30253" lon="0.44266">
        <ele>182.79998779297</ele>
        <time>2016-02-17T13:54:55Z</time>
      </trkpt>
      <trkpt lat="45.30259" lon="0.44268">
        <ele>183.40002441406</ele>
        <time>2016-02-17T13:54:58Z</time>
      </trkpt>
      <trkpt lat="45.30269" lon="0.44274">
        <ele>184.20001220703</ele>
        <time>2016-02-17T13:55:02Z</time>
      </trkpt>
      <trkpt lat="45.30274" lon="0.44276">
        <ele>184.40002441406</ele>
        <time>2016-02-17T13:55:04Z</time>
      </trkpt>
      <trkpt lat="45.30286" lon="0.4428">
        <ele>185.20001220703</ele>
        <time>2016-02-17T13:55:09Z</time>
      </trkpt>
      <trkpt lat="45.3029" lon="0.44281">
        <ele>185.40002441406</ele>
        <time>2016-02-17T13:55:11Z</time>
      </trkpt>
      <trkpt lat="45.303" lon="0.44284">
        <ele>186</ele>
        <time>2016-02-17T13:55:16Z</time>
      </trkpt>
      <trkpt lat="45.30307" lon="0.44287">
        <ele>186.40002441406</ele>
        <time>2016-02-17T13:55:19Z</time>
      </trkpt>
      <trkpt lat="45.30314" lon="0.4429">
        <ele>186.59997558594</ele>
        <time>2016-02-17T13:55:22Z</time>
      </trkpt>
      <trkpt lat="45.30328" lon="0.44298">
        <ele>187.40002441406</ele>
        <time>2016-02-17T13:55:28Z</time>
      </trkpt>
      <trkpt lat="45.30333" lon="0.44302">
        <ele>187.59997558594</ele>
        <time>2016-02-17T13:55:31Z</time>
      </trkpt>
      <trkpt lat="45.30342" lon="0.44308">
        <ele>187.79998779297</ele>
        <time>2016-02-17T13:55:35Z</time>
      </trkpt>
      <trkpt lat="45.30352" lon="0.44316">
        <ele>188.40002441406</ele>
        <time>2016-02-17T13:55:42Z</time>
      </trkpt>
      <trkpt lat="45.30353" lon="0.44317">
        <ele>188.59997558594</ele>
        <time>2016-02-17T13:55:43Z</time>
      </trkpt>
      <trkpt lat="45.30366" lon="0.44322">
        <ele>189.20001220703</ele>
        <time>2016-02-17T13:55:48Z</time>
      </trkpt>
      <trkpt lat="45.30374" lon="0.44325">
        <ele>189.79998779297</ele>
        <time>2016-02-17T13:55:51Z</time>
      </trkpt>
      <trkpt lat="45.3038" lon="0.44328">
        <ele>190.40002441406</ele>
        <time>2016-02-17T13:55:55Z</time>
      </trkpt>
      <trkpt lat="45.30386" lon="0.44328">
        <ele>190.79998779297</ele>
        <time>2016-02-17T13:55:58Z</time>
      </trkpt>
      <trkpt lat="45.30392" lon="0.44327">
        <ele>191.20001220703</ele>
        <time>2016-02-17T13:56:01Z</time>
      </trkpt>
      <trkpt lat="45.30413" lon="0.44325">
        <ele>192.79998779297</ele>
        <time>2016-02-17T13:56:14Z</time>
      </trkpt>
      <trkpt lat="45.30416" lon="0.44325">
        <ele>192.79998779297</ele>
        <time>2016-02-17T13:56:15Z</time>
      </trkpt>
      <trkpt lat="45.30428" lon="0.44323">
        <ele>193.40002441406</ele>
        <time>2016-02-17T13:56:21Z</time>
      </trkpt>
      <trkpt lat="45.30445" lon="0.44318">
        <ele>193.79998779297</ele>
        <time>2016-02-17T13:56:29Z</time>
      </trkpt>
      <trkpt lat="45.30448" lon="0.44316">
        <ele>193.79998779297</ele>
        <time>2016-02-17T13:56:30Z</time>
      </trkpt>
      <trkpt lat="45.3045" lon="0.44316">
        <ele>194</ele>
        <time>2016-02-17T13:56:31Z</time>
      </trkpt>
      <trkpt lat="45.30461" lon="0.44314">
        <ele>194.59997558594</ele>
        <time>2016-02-17T13:56:37Z</time>
      </trkpt>
      <trkpt lat="45.30462" lon="0.44314">
        <ele>194.59997558594</ele>
        <time>2016-02-17T13:56:38Z</time>
      </trkpt>
      <trkpt lat="45.30467" lon="0.44313">
        <ele>194.79998779297</ele>
        <time>2016-02-17T13:56:41Z</time>
      </trkpt>
      <trkpt lat="45.30474" lon="0.44311">
        <ele>195</ele>
        <time>2016-02-17T13:56:44Z</time>
      </trkpt>
      <trkpt lat="45.30482" lon="0.44311">
        <ele>195</ele>
        <time>2016-02-17T13:56:49Z</time>
      </trkpt>
      <trkpt lat="45.305" lon="0.44308">
        <ele>194</ele>
        <time>2016-02-17T13:56:56Z</time>
      </trkpt>
      <trkpt lat="45.30506" lon="0.44307">
        <ele>193.59997558594</ele>
        <time>2016-02-17T13:56:58Z</time>
      </trkpt>
      <trkpt lat="45.30518" lon="0.44299">
        <ele>193</ele>
        <time>2016-02-17T13:57:02Z</time>
      </trkpt>
      <trkpt lat="45.30534" lon="0.44277">
        <ele>192.79998779297</ele>
        <time>2016-02-17T13:57:09Z</time>
      </trkpt>
      <trkpt lat="45.30543" lon="0.44263">
        <ele>192.59997558594</ele>
        <time>2016-02-17T13:57:13Z</time>
      </trkpt>
      <trkpt lat="45.30548" lon="0.44255">
        <ele>192.40002441406</ele>
        <time>2016-02-17T13:57:15Z</time>
      </trkpt>
      <trkpt lat="45.30563" lon="0.4424">
        <ele>192</ele>
        <time>2016-02-17T13:57:20Z</time>
      </trkpt>
      <trkpt lat="45.30576" lon="0.44236">
        <ele>191.59997558594</ele>
        <time>2016-02-17T13:57:24Z</time>
      </trkpt>
      <trkpt lat="45.3058" lon="0.44235">
        <ele>191.40002441406</ele>
        <time>2016-02-17T13:57:25Z</time>
      </trkpt>
      <trkpt lat="45.30598" lon="0.44231">
        <ele>190.40002441406</ele>
        <time>2016-02-17T13:57:29Z</time>
      </trkpt>
      <trkpt lat="45.30603" lon="0.44231">
        <ele>190.20001220703</ele>
        <time>2016-02-17T13:57:30Z</time>
      </trkpt>
      <trkpt lat="45.30608" lon="0.44232">
        <ele>190</ele>
        <time>2016-02-17T13:57:31Z</time>
      </trkpt>
      <trkpt lat="45.30623" lon="0.44233">
        <ele>189.40002441406</ele>
        <time>2016-02-17T13:57:34Z</time>
      </trkpt>
      <trkpt lat="45.30643" lon="0.44234">
        <ele>188.59997558594</ele>
        <time>2016-02-17T13:57:38Z</time>
      </trkpt>
      <trkpt lat="45.3065" lon="0.44234">
        <ele>188.40002441406</ele>
        <time>2016-02-17T13:57:40Z</time>
      </trkpt>
      <trkpt lat="45.30656" lon="0.44235">
        <ele>187.79998779297</ele>
        <time>2016-02-17T13:57:42Z</time>
      </trkpt>
      <trkpt lat="45.3066" lon="0.44235">
        <ele>186.20001220703</ele>
        <time>2016-02-17T13:57:52Z</time>
      </trkpt>
      <trkpt lat="45.30663" lon="0.44235">
        <ele>186.20001220703</ele>
        <time>2016-02-17T13:57:53Z</time>
      </trkpt>
      <trkpt lat="45.30684" lon="0.44235">
        <ele>186.20001220703</ele>
        <time>2016-02-17T13:57:59Z</time>
      </trkpt>
      <trkpt lat="45.30712" lon="0.44233">
        <ele>186.40002441406</ele>
        <time>2016-02-17T13:58:05Z</time>
      </trkpt>
      <trkpt lat="45.30742" lon="0.44225">
        <ele>186.40002441406</ele>
        <time>2016-02-17T13:58:12Z</time>
      </trkpt>
      <trkpt lat="45.30747" lon="0.44223">
        <ele>186.20001220703</ele>
        <time>2016-02-17T13:58:13Z</time>
      </trkpt>
      <trkpt lat="45.30756" lon="0.44218">
        <ele>186.20001220703</ele>
        <time>2016-02-17T13:58:15Z</time>
      </trkpt>
      <trkpt lat="45.30767" lon="0.44211">
        <ele>185.79998779297</ele>
        <time>2016-02-17T13:58:17Z</time>
      </trkpt>
      <trkpt lat="45.30785" lon="0.442">
        <ele>184.59997558594</ele>
        <time>2016-02-17T13:58:20Z</time>
      </trkpt>
      <trkpt lat="45.30796" lon="0.44194">
        <ele>183.59997558594</ele>
        <time>2016-02-17T13:58:22Z</time>
      </trkpt>
      <trkpt lat="45.3081" lon="0.44187">
        <ele>182.79998779297</ele>
        <time>2016-02-17T13:58:24Z</time>
      </trkpt>
      <trkpt lat="45.30816" lon="0.44184">
        <ele>182.59997558594</ele>
        <time>2016-02-17T13:58:25Z</time>
      </trkpt>
      <trkpt lat="45.30849" lon="0.44174">
        <ele>181.79998779297</ele>
        <time>2016-02-17T13:58:30Z</time>
      </trkpt>
      <trkpt lat="45.30855" lon="0.44172">
        <ele>181.59997558594</ele>
        <time>2016-02-17T13:58:31Z</time>
      </trkpt>
      <trkpt lat="45.30879" lon="0.44168">
        <ele>181</ele>
        <time>2016-02-17T13:58:35Z</time>
      </trkpt>
      <trkpt lat="45.30902" lon="0.44156">
        <ele>180.40002441406</ele>
        <time>2016-02-17T13:58:40Z</time>
      </trkpt>
      <trkpt lat="45.30911" lon="0.44153">
        <ele>180.40002441406</ele>
        <time>2016-02-17T13:58:42Z</time>
      </trkpt>
      <trkpt lat="45.30915" lon="0.44151">
        <ele>180.40002441406</ele>
        <time>2016-02-17T13:58:43Z</time>
      </trkpt>
      <trkpt lat="45.30927" lon="0.44138">
        <ele>180.40002441406</ele>
        <time>2016-02-17T13:58:46Z</time>
      </trkpt>
      <trkpt lat="45.30937" lon="0.44131">
        <ele>180.40002441406</ele>
        <time>2016-02-17T13:58:48Z</time>
      </trkpt>
      <trkpt lat="45.30941" lon="0.44128">
        <ele>180.59997558594</ele>
        <time>2016-02-17T13:58:49Z</time>
      </trkpt>
      <trkpt lat="45.30946" lon="0.44126">
        <ele>180.59997558594</ele>
        <time>2016-02-17T13:58:50Z</time>
      </trkpt>
      <trkpt lat="45.30956" lon="0.44123">
        <ele>180.79998779297</ele>
        <time>2016-02-17T13:58:52Z</time>
      </trkpt>
      <trkpt lat="45.3097" lon="0.44119">
        <ele>180.79998779297</ele>
        <time>2016-02-17T13:58:55Z</time>
      </trkpt>
      <trkpt lat="45.30975" lon="0.44117">
        <ele>181</ele>
        <time>2016-02-17T13:58:56Z</time>
      </trkpt>
      <trkpt lat="45.30985" lon="0.44114">
        <ele>181</ele>
        <time>2016-02-17T13:58:58Z</time>
      </trkpt>
      <trkpt lat="45.30994" lon="0.44111">
        <ele>181.40002441406</ele>
        <time>2016-02-17T13:59:00Z</time>
      </trkpt>
      <trkpt lat="45.30999" lon="0.4411">
        <ele>181.59997558594</ele>
        <time>2016-02-17T13:59:01Z</time>
      </trkpt>
      <trkpt lat="45.31027" lon="0.44097">
        <ele>182.40002441406</ele>
        <time>2016-02-17T13:59:07Z</time>
      </trkpt>
      <trkpt lat="45.31035" lon="0.44094">
        <ele>182.59997558594</ele>
        <time>2016-02-17T13:59:09Z</time>
      </trkpt>
      <trkpt lat="45.31051" lon="0.44089">
        <ele>183</ele>
        <time>2016-02-17T13:59:13Z</time>
      </trkpt>
      <trkpt lat="45.31063" lon="0.44087">
        <ele>183.59997558594</ele>
        <time>2016-02-17T13:59:16Z</time>
      </trkpt>
      <trkpt lat="45.31075" lon="0.44085">
        <ele>184.59997558594</ele>
        <time>2016-02-17T13:59:19Z</time>
      </trkpt>
      <trkpt lat="45.31079" lon="0.44085">
        <ele>184.79998779297</ele>
        <time>2016-02-17T13:59:20Z</time>
      </trkpt>
      <trkpt lat="45.31094" lon="0.44085">
        <ele>185.79998779297</ele>
        <time>2016-02-17T13:59:24Z</time>
      </trkpt>
      <trkpt lat="45.31098" lon="0.44085">
        <ele>186</ele>
        <time>2016-02-17T13:59:25Z</time>
      </trkpt>
      <trkpt lat="45.31121" lon="0.44085">
        <ele>187</ele>
        <time>2016-02-17T13:59:31Z</time>
      </trkpt>
      <trkpt lat="45.31125" lon="0.44086">
        <ele>187.20001220703</ele>
        <time>2016-02-17T13:59:32Z</time>
      </trkpt>
      <trkpt lat="45.3114" lon="0.44087">
        <ele>187.79998779297</ele>
        <time>2016-02-17T13:59:37Z</time>
      </trkpt>
      <trkpt lat="45.31142" lon="0.44086">
        <ele>188</ele>
        <time>2016-02-17T13:59:38Z</time>
      </trkpt>
      <trkpt lat="45.31142" lon="0.44084">
        <ele>188.20001220703</ele>
        <time>2016-02-17T13:59:39Z</time>
      </trkpt>
      <trkpt lat="45.31142" lon="0.44079">
        <ele>188.59997558594</ele>
        <time>2016-02-17T13:59:41Z</time>
      </trkpt>
      <trkpt lat="45.31138" lon="0.44061">
        <ele>189</ele>
        <time>2016-02-17T13:59:46Z</time>
      </trkpt>
      <trkpt lat="45.31127" lon="0.44034">
        <ele>188.79998779297</ele>
        <time>2016-02-17T13:59:52Z</time>
      </trkpt>
      <trkpt lat="45.31113" lon="0.44005">
        <ele>188.59997558594</ele>
        <time>2016-02-17T13:59:59Z</time>
      </trkpt>
      <trkpt lat="45.31103" lon="0.43985">
        <ele>188.59997558594</ele>
        <time>2016-02-17T14:00:05Z</time>
      </trkpt>
      <trkpt lat="45.31094" lon="0.43969">
        <ele>188.40002441406</ele>
        <time>2016-02-17T14:00:09Z</time>
      </trkpt>
      <trkpt lat="45.31077" lon="0.43937">
        <ele>188.40002441406</ele>
        <time>2016-02-17T14:00:16Z</time>
      </trkpt>
      <trkpt lat="45.31068" lon="0.43899">
        <ele>188.40002441406</ele>
        <time>2016-02-17T14:00:23Z</time>
      </trkpt>
      <trkpt lat="45.31063" lon="0.43883">
        <ele>188.40002441406</ele>
        <time>2016-02-17T14:00:26Z</time>
      </trkpt>
      <trkpt lat="45.31057" lon="0.43875">
        <ele>188.40002441406</ele>
        <time>2016-02-17T14:00:28Z</time>
      </trkpt>
      <trkpt lat="45.31046" lon="0.43868">
        <ele>187.79998779297</ele>
        <time>2016-02-17T14:00:31Z</time>
      </trkpt>
      <trkpt lat="45.31038" lon="0.43863">
        <ele>187.59997558594</ele>
        <time>2016-02-17T14:00:33Z</time>
      </trkpt>
      <trkpt lat="45.31008" lon="0.43845">
        <ele>187</ele>
        <time>2016-02-17T14:00:40Z</time>
      </trkpt>
      <trkpt lat="45.30981" lon="0.43834">
        <ele>186</ele>
        <time>2016-02-17T14:00:45Z</time>
      </trkpt>
      <trkpt lat="45.30969" lon="0.43829">
        <ele>185.59997558594</ele>
        <time>2016-02-17T14:00:47Z</time>
      </trkpt>
      <trkpt lat="45.30949" lon="0.43819">
        <ele>184.79998779297</ele>
        <time>2016-02-17T14:00:50Z</time>
      </trkpt>
      <trkpt lat="45.30943" lon="0.43814">
        <ele>184.79998779297</ele>
        <time>2016-02-17T14:00:51Z</time>
      </trkpt>
      <trkpt lat="45.30931" lon="0.43805">
        <ele>184.20001220703</ele>
        <time>2016-02-17T14:00:53Z</time>
      </trkpt>
      <trkpt lat="45.30925" lon="0.438">
        <ele>183.59997558594</ele>
        <time>2016-02-17T14:00:54Z</time>
      </trkpt>
      <trkpt lat="45.30919" lon="0.43793">
        <ele>182.40002441406</ele>
        <time>2016-02-17T14:00:55Z</time>
      </trkpt>
      <trkpt lat="45.30908" lon="0.43778">
        <ele>181.40002441406</ele>
        <time>2016-02-17T14:00:57Z</time>
      </trkpt>
      <trkpt lat="45.30896" lon="0.43762">
        <ele>180.40002441406</ele>
        <time>2016-02-17T14:00:59Z</time>
      </trkpt>
      <trkpt lat="45.30883" lon="0.4375">
        <ele>179.59997558594</ele>
        <time>2016-02-17T14:01:01Z</time>
      </trkpt>
      <trkpt lat="45.30875" lon="0.43745">
        <ele>179</ele>
        <time>2016-02-17T14:01:02Z</time>
      </trkpt>
      <trkpt lat="45.30861" lon="0.43736">
        <ele>178</ele>
        <time>2016-02-17T14:01:04Z</time>
      </trkpt>
      <trkpt lat="45.30846" lon="0.43727">
        <ele>177</ele>
        <time>2016-02-17T14:01:06Z</time>
      </trkpt>
      <trkpt lat="45.30833" lon="0.43718">
        <ele>176</ele>
        <time>2016-02-17T14:01:08Z</time>
      </trkpt>
      <trkpt lat="45.30826" lon="0.43712">
        <ele>175.59997558594</ele>
        <time>2016-02-17T14:01:09Z</time>
      </trkpt>
      <trkpt lat="45.3081" lon="0.43691">
        <ele>174.79998779297</ele>
        <time>2016-02-17T14:01:12Z</time>
      </trkpt>
      <trkpt lat="45.30785" lon="0.43649">
        <ele>173.79998779297</ele>
        <time>2016-02-17T14:01:18Z</time>
      </trkpt>
      <trkpt lat="45.30782" lon="0.43642">
        <ele>173.59997558594</ele>
        <time>2016-02-17T14:01:19Z</time>
      </trkpt>
      <trkpt lat="45.30768" lon="0.43615">
        <ele>174</ele>
        <time>2016-02-17T14:01:24Z</time>
      </trkpt>
      <trkpt lat="45.3076" lon="0.43602">
        <ele>174.79998779297</ele>
        <time>2016-02-17T14:01:27Z</time>
      </trkpt>
      <trkpt lat="45.30753" lon="0.4359">
        <ele>175.79998779297</ele>
        <time>2016-02-17T14:01:30Z</time>
      </trkpt>
      <trkpt lat="45.30751" lon="0.43586">
        <ele>176.20001220703</ele>
        <time>2016-02-17T14:01:31Z</time>
      </trkpt>
      <trkpt lat="45.30745" lon="0.43576">
        <ele>177.20001220703</ele>
        <time>2016-02-17T14:01:34Z</time>
      </trkpt>
      <trkpt lat="45.30742" lon="0.43572">
        <ele>177.59997558594</ele>
        <time>2016-02-17T14:01:35Z</time>
      </trkpt>
      <trkpt lat="45.30738" lon="0.43566">
        <ele>178.40002441406</ele>
        <time>2016-02-17T14:01:37Z</time>
      </trkpt>
      <trkpt lat="45.30731" lon="0.43556">
        <ele>179.59997558594</ele>
        <time>2016-02-17T14:01:40Z</time>
      </trkpt>
      <trkpt lat="45.30727" lon="0.43549">
        <ele>180.20001220703</ele>
        <time>2016-02-17T14:01:42Z</time>
      </trkpt>
      <trkpt lat="45.30724" lon="0.43547">
        <ele>180.79998779297</ele>
        <time>2016-02-17T14:01:43Z</time>
      </trkpt>
      <trkpt lat="45.30716" lon="0.43536">
        <ele>181.79998779297</ele>
        <time>2016-02-17T14:01:46Z</time>
      </trkpt>
      <trkpt lat="45.30711" lon="0.4353">
        <ele>182.40002441406</ele>
        <time>2016-02-17T14:01:48Z</time>
      </trkpt>
      <trkpt lat="45.30705" lon="0.43525">
        <ele>183.20001220703</ele>
        <time>2016-02-17T14:01:50Z</time>
      </trkpt>
      <trkpt lat="45.30692" lon="0.43519">
        <ele>183.59997558594</ele>
        <time>2016-02-17T14:01:54Z</time>
      </trkpt>
      <trkpt lat="45.30669" lon="0.43521">
        <ele>183.59997558594</ele>
        <time>2016-02-17T14:02:00Z</time>
      </trkpt>
      <trkpt lat="45.30657" lon="0.4351">
        <ele>183.40002441406</ele>
        <time>2016-02-17T14:02:03Z</time>
      </trkpt>
      <trkpt lat="45.30651" lon="0.43497">
        <ele>183</ele>
        <time>2016-02-17T14:02:05Z</time>
      </trkpt>
      <trkpt lat="45.30641" lon="0.43479">
        <ele>181.79998779297</ele>
        <time>2016-02-17T14:02:08Z</time>
      </trkpt>
      <trkpt lat="45.30632" lon="0.43472">
        <ele>180.59997558594</ele>
        <time>2016-02-17T14:02:10Z</time>
      </trkpt>
      <trkpt lat="45.30628" lon="0.43471">
        <ele>179.59997558594</ele>
        <time>2016-02-17T14:02:11Z</time>
      </trkpt>
      <trkpt lat="45.30624" lon="0.43469">
        <ele>178.79998779297</ele>
        <time>2016-02-17T14:02:12Z</time>
      </trkpt>
      <trkpt lat="45.30616" lon="0.43469">
        <ele>177.40002441406</ele>
        <time>2016-02-17T14:02:14Z</time>
      </trkpt>
      <trkpt lat="45.30604" lon="0.43468">
        <ele>176.79998779297</ele>
        <time>2016-02-17T14:02:17Z</time>
      </trkpt>
      <trkpt lat="45.30575" lon="0.43471">
        <ele>176.79998779297</ele>
        <time>2016-02-17T14:02:23Z</time>
      </trkpt>
      <trkpt lat="45.30565" lon="0.43472">
        <ele>176.40002441406</ele>
        <time>2016-02-17T14:02:25Z</time>
      </trkpt>
      <trkpt lat="45.3056" lon="0.43473">
        <ele>176.20001220703</ele>
        <time>2016-02-17T14:02:26Z</time>
      </trkpt>
      <trkpt lat="45.30542" lon="0.43475">
        <ele>174.59997558594</ele>
        <time>2016-02-17T14:02:29Z</time>
      </trkpt>
      <trkpt lat="45.30526" lon="0.43478">
        <ele>172</ele>
        <time>2016-02-17T14:02:31Z</time>
      </trkpt>
      <trkpt lat="45.30509" lon="0.43479">
        <ele>170</ele>
        <time>2016-02-17T14:02:33Z</time>
      </trkpt>
      <trkpt lat="45.30501" lon="0.43479">
        <ele>168.79998779297</ele>
        <time>2016-02-17T14:02:34Z</time>
      </trkpt>
      <trkpt lat="45.30494" lon="0.43478">
        <ele>167.40002441406</ele>
        <time>2016-02-17T14:02:35Z</time>
      </trkpt>
      <trkpt lat="45.30487" lon="0.43477">
        <ele>165.79998779297</ele>
        <time>2016-02-17T14:02:36Z</time>
      </trkpt>
      <trkpt lat="45.30482" lon="0.43477">
        <ele>164.20001220703</ele>
        <time>2016-02-17T14:02:37Z</time>
      </trkpt>
      <trkpt lat="45.30478" lon="0.43479">
        <ele>162.40002441406</ele>
        <time>2016-02-17T14:02:38Z</time>
      </trkpt>
      <trkpt lat="45.30475" lon="0.43483">
        <ele>160.40002441406</ele>
        <time>2016-02-17T14:02:39Z</time>
      </trkpt>
      <trkpt lat="45.30473" lon="0.43489">
        <ele>158.40002441406</ele>
        <time>2016-02-17T14:02:40Z</time>
      </trkpt>
      <trkpt lat="45.30471" lon="0.43497">
        <ele>156.40002441406</ele>
        <time>2016-02-17T14:02:41Z</time>
      </trkpt>
      <trkpt lat="45.30471" lon="0.43506">
        <ele>154.59997558594</ele>
        <time>2016-02-17T14:02:42Z</time>
      </trkpt>
      <trkpt lat="45.30471" lon="0.43515">
        <ele>153</ele>
        <time>2016-02-17T14:02:43Z</time>
      </trkpt>
      <trkpt lat="45.30471" lon="0.43526">
        <ele>151.79998779297</ele>
        <time>2016-02-17T14:02:44Z</time>
      </trkpt>
      <trkpt lat="45.30471" lon="0.43548">
        <ele>150.20001220703</ele>
        <time>2016-02-17T14:02:46Z</time>
      </trkpt>
      <trkpt lat="45.3047" lon="0.43562">
        <ele>148.59997558594</ele>
        <time>2016-02-17T14:02:48Z</time>
      </trkpt>
      <trkpt lat="45.30468" lon="0.43564">
        <ele>147.59997558594</ele>
        <time>2016-02-17T14:02:49Z</time>
      </trkpt>
      <trkpt lat="45.30466" lon="0.43563">
        <ele>146.40002441406</ele>
        <time>2016-02-17T14:02:50Z</time>
      </trkpt>
      <trkpt lat="45.30465" lon="0.4356">
        <ele>145</ele>
        <time>2016-02-17T14:02:51Z</time>
      </trkpt>
      <trkpt lat="45.30464" lon="0.43557">
        <ele>143.20001220703</ele>
        <time>2016-02-17T14:02:52Z</time>
      </trkpt>
      <trkpt lat="45.30463" lon="0.43553">
        <ele>141.79998779297</ele>
        <time>2016-02-17T14:02:53Z</time>
      </trkpt>
      <trkpt lat="45.30461" lon="0.4355">
        <ele>140.59997558594</ele>
        <time>2016-02-17T14:02:54Z</time>
      </trkpt>
      <trkpt lat="45.3046" lon="0.43547">
        <ele>139.40002441406</ele>
        <time>2016-02-17T14:02:55Z</time>
      </trkpt>
      <trkpt lat="45.30455" lon="0.43529">
        <ele>138.40002441406</ele>
        <time>2016-02-17T14:02:59Z</time>
      </trkpt>
      <trkpt lat="45.30453" lon="0.43523">
        <ele>138.40002441406</ele>
        <time>2016-02-17T14:03:00Z</time>
      </trkpt>
      <trkpt lat="45.30441" lon="0.43491">
        <ele>138.59997558594</ele>
        <time>2016-02-17T14:03:05Z</time>
      </trkpt>
      <trkpt lat="45.30434" lon="0.43464">
        <ele>138.40002441406</ele>
        <time>2016-02-17T14:03:09Z</time>
      </trkpt>
      <trkpt lat="45.30433" lon="0.43457">
        <ele>138.40002441406</ele>
        <time>2016-02-17T14:03:10Z</time>
      </trkpt>
      <trkpt lat="45.30435" lon="0.43449">
        <ele>138.20001220703</ele>
        <time>2016-02-17T14:03:11Z</time>
      </trkpt>
      <trkpt lat="45.30441" lon="0.43426">
        <ele>137.59997558594</ele>
        <time>2016-02-17T14:03:14Z</time>
      </trkpt>
      <trkpt lat="45.30445" lon="0.43419">
        <ele>137.40002441406</ele>
        <time>2016-02-17T14:03:15Z</time>
      </trkpt>
      <trkpt lat="45.30448" lon="0.43412">
        <ele>137.20001220703</ele>
        <time>2016-02-17T14:03:16Z</time>
      </trkpt>
      <trkpt lat="45.30462" lon="0.43368">
        <ele>136.59997558594</ele>
        <time>2016-02-17T14:03:22Z</time>
      </trkpt>
      <trkpt lat="45.30471" lon="0.43335">
        <ele>136.20001220703</ele>
        <time>2016-02-17T14:03:26Z</time>
      </trkpt>
      <trkpt lat="45.30477" lon="0.4331">
        <ele>135.20001220703</ele>
        <time>2016-02-17T14:03:29Z</time>
      </trkpt>
      <trkpt lat="45.30479" lon="0.43302">
        <ele>134.79998779297</ele>
        <time>2016-02-17T14:03:30Z</time>
      </trkpt>
      <trkpt lat="45.30488" lon="0.43269">
        <ele>134</ele>
        <time>2016-02-17T14:03:34Z</time>
      </trkpt>
      <trkpt lat="45.30497" lon="0.43236">
        <ele>133.20001220703</ele>
        <time>2016-02-17T14:03:38Z</time>
      </trkpt>
      <trkpt lat="45.305" lon="0.43228">
        <ele>133</ele>
        <time>2016-02-17T14:03:39Z</time>
      </trkpt>
      <trkpt lat="45.30515" lon="0.43189">
        <ele>132</ele>
        <time>2016-02-17T14:03:44Z</time>
      </trkpt>
      <trkpt lat="45.30521" lon="0.43175">
        <ele>131.79998779297</ele>
        <time>2016-02-17T14:03:46Z</time>
      </trkpt>
      <trkpt lat="45.30542" lon="0.43135">
        <ele>132.20001220703</ele>
        <time>2016-02-17T14:03:52Z</time>
      </trkpt>
      <trkpt lat="45.30554" lon="0.43112">
        <ele>133</ele>
        <time>2016-02-17T14:03:56Z</time>
      </trkpt>
      <trkpt lat="45.30565" lon="0.43096">
        <ele>133.59997558594</ele>
        <time>2016-02-17T14:03:59Z</time>
      </trkpt>
      <trkpt lat="45.3058" lon="0.4307">
        <ele>133.79998779297</ele>
        <time>2016-02-17T14:04:04Z</time>
      </trkpt>
      <trkpt lat="45.30587" lon="0.43061">
        <ele>134.20001220703</ele>
        <time>2016-02-17T14:04:06Z</time>
      </trkpt>
      <trkpt lat="45.30593" lon="0.4304">
        <ele>135</ele>
        <time>2016-02-17T14:04:09Z</time>
      </trkpt>
      <trkpt lat="45.30596" lon="0.43022">
        <ele>135.20001220703</ele>
        <time>2016-02-17T14:04:11Z</time>
      </trkpt>
      <trkpt lat="45.30602" lon="0.42991">
        <ele>134.40002441406</ele>
        <time>2016-02-17T14:04:14Z</time>
      </trkpt>
      <trkpt lat="45.30605" lon="0.4298">
        <ele>133.79998779297</ele>
        <time>2016-02-17T14:04:15Z</time>
      </trkpt>
      <trkpt lat="45.30609" lon="0.42956">
        <ele>132.40002441406</ele>
        <time>2016-02-17T14:04:17Z</time>
      </trkpt>
      <trkpt lat="45.30614" lon="0.42932">
        <ele>130.59997558594</ele>
        <time>2016-02-17T14:04:19Z</time>
      </trkpt>
      <trkpt lat="45.30616" lon="0.42921">
        <ele>129.40002441406</ele>
        <time>2016-02-17T14:04:20Z</time>
      </trkpt>
      <trkpt lat="45.3062" lon="0.42904">
        <ele>127.59997558594</ele>
        <time>2016-02-17T14:04:22Z</time>
      </trkpt>
      <trkpt lat="45.30621" lon="0.42899">
        <ele>126.40002441406</ele>
        <time>2016-02-17T14:04:23Z</time>
      </trkpt>
      <trkpt lat="45.3062" lon="0.42894">
        <ele>125.20001220703</ele>
        <time>2016-02-17T14:04:24Z</time>
      </trkpt>
      <trkpt lat="45.30617" lon="0.42891">
        <ele>124</ele>
        <time>2016-02-17T14:04:25Z</time>
      </trkpt>
      <trkpt lat="45.30613" lon="0.42889">
        <ele>122.59997558594</ele>
        <time>2016-02-17T14:04:26Z</time>
      </trkpt>
      <trkpt lat="45.30609" lon="0.42888">
        <ele>121.20001220703</ele>
        <time>2016-02-17T14:04:27Z</time>
      </trkpt>
      <trkpt lat="45.30604" lon="0.42887">
        <ele>120</ele>
        <time>2016-02-17T14:04:28Z</time>
      </trkpt>
      <trkpt lat="45.306" lon="0.42886">
        <ele>119.20001220703</ele>
        <time>2016-02-17T14:04:29Z</time>
      </trkpt>
      <trkpt lat="45.30595" lon="0.42884">
        <ele>118.40002441406</ele>
        <time>2016-02-17T14:04:30Z</time>
      </trkpt>
      <trkpt lat="45.30585" lon="0.42882">
        <ele>117.79998779297</ele>
        <time>2016-02-17T14:04:32Z</time>
      </trkpt>
      <trkpt lat="45.30556" lon="0.42871">
        <ele>118.20001220703</ele>
        <time>2016-02-17T14:04:38Z</time>
      </trkpt>
      <trkpt lat="45.30533" lon="0.42859">
        <ele>118.20001220703</ele>
        <time>2016-02-17T14:04:43Z</time>
      </trkpt>
      <trkpt lat="45.30524" lon="0.42853">
        <ele>118.40002441406</ele>
        <time>2016-02-17T14:04:45Z</time>
      </trkpt>
      <trkpt lat="45.30511" lon="0.42844">
        <ele>119.20001220703</ele>
        <time>2016-02-17T14:04:48Z</time>
      </trkpt>
      <trkpt lat="45.30504" lon="0.42836">
        <ele>119.79998779297</ele>
        <time>2016-02-17T14:04:50Z</time>
      </trkpt>
      <trkpt lat="45.305" lon="0.42831">
        <ele>120</ele>
        <time>2016-02-17T14:04:51Z</time>
      </trkpt>
      <trkpt lat="45.3049" lon="0.42818">
        <ele>120.79998779297</ele>
        <time>2016-02-17T14:04:54Z</time>
      </trkpt>
      <trkpt lat="45.3048" lon="0.42803">
        <ele>122</ele>
        <time>2016-02-17T14:04:57Z</time>
      </trkpt>
      <trkpt lat="45.30477" lon="0.42798">
        <ele>122.20001220703</ele>
        <time>2016-02-17T14:04:58Z</time>
      </trkpt>
      <trkpt lat="45.3047" lon="0.42783">
        <ele>123</ele>
        <time>2016-02-17T14:05:01Z</time>
      </trkpt>
      <trkpt lat="45.30461" lon="0.42768">
        <ele>124</ele>
        <time>2016-02-17T14:05:04Z</time>
      </trkpt>
      <trkpt lat="45.30455" lon="0.42758">
        <ele>124.59997558594</ele>
        <time>2016-02-17T14:05:06Z</time>
      </trkpt>
      <trkpt lat="45.30441" lon="0.4274">
        <ele>125</ele>
        <time>2016-02-17T14:05:10Z</time>
      </trkpt>
      <trkpt lat="45.30429" lon="0.42726">
        <ele>125</ele>
        <time>2016-02-17T14:05:13Z</time>
      </trkpt>
      <trkpt lat="45.30396" lon="0.42699">
        <ele>124</ele>
        <time>2016-02-17T14:05:19Z</time>
      </trkpt>
      <trkpt lat="45.30372" lon="0.42684">
        <ele>122.79998779297</ele>
        <time>2016-02-17T14:05:23Z</time>
      </trkpt>
      <trkpt lat="45.3036" lon="0.42675">
        <ele>122.20001220703</ele>
        <time>2016-02-17T14:05:25Z</time>
      </trkpt>
      <trkpt lat="45.30355" lon="0.42668">
        <ele>121.79998779297</ele>
        <time>2016-02-17T14:05:26Z</time>
      </trkpt>
      <trkpt lat="45.30341" lon="0.42633">
        <ele>120.79998779297</ele>
        <time>2016-02-17T14:05:30Z</time>
      </trkpt>
      <trkpt lat="45.30338" lon="0.42624">
        <ele>120.40002441406</ele>
        <time>2016-02-17T14:05:31Z</time>
      </trkpt>
      <trkpt lat="45.30332" lon="0.42605">
        <ele>120</ele>
        <time>2016-02-17T14:05:33Z</time>
      </trkpt>
      <trkpt lat="45.30328" lon="0.42596">
        <ele>119.59997558594</ele>
        <time>2016-02-17T14:05:34Z</time>
      </trkpt>
      <trkpt lat="45.30323" lon="0.42588">
        <ele>119.40002441406</ele>
        <time>2016-02-17T14:05:35Z</time>
      </trkpt>
      <trkpt lat="45.30308" lon="0.42566">
        <ele>118.79998779297</ele>
        <time>2016-02-17T14:05:38Z</time>
      </trkpt>
      <trkpt lat="45.30303" lon="0.4256">
        <ele>118.59997558594</ele>
        <time>2016-02-17T14:05:39Z</time>
      </trkpt>
      <trkpt lat="45.30298" lon="0.42553">
        <ele>118.40002441406</ele>
        <time>2016-02-17T14:05:40Z</time>
      </trkpt>
      <trkpt lat="45.30284" lon="0.42533">
        <ele>117.59997558594</ele>
        <time>2016-02-17T14:05:43Z</time>
      </trkpt>
      <trkpt lat="45.30281" lon="0.42526">
        <ele>117.20001220703</ele>
        <time>2016-02-17T14:05:44Z</time>
      </trkpt>
      <trkpt lat="45.30278" lon="0.42522">
        <ele>117</ele>
        <time>2016-02-17T14:05:45Z</time>
      </trkpt>
      <trkpt lat="45.30275" lon="0.4252">
        <ele>117</ele>
        <time>2016-02-17T14:05:46Z</time>
      </trkpt>
      <trkpt lat="45.3027" lon="0.42521">
        <ele>116.59997558594</ele>
        <time>2016-02-17T14:05:48Z</time>
      </trkpt>
      <trkpt lat="45.30267" lon="0.42527">
        <ele>116</ele>
        <time>2016-02-17T14:05:50Z</time>
      </trkpt>
      <trkpt lat="45.30263" lon="0.42534">
        <ele>115.59997558594</ele>
        <time>2016-02-17T14:05:52Z</time>
      </trkpt>
      <trkpt lat="45.30261" lon="0.42538">
        <ele>115.59997558594</ele>
        <time>2016-02-17T14:05:53Z</time>
      </trkpt>
      <trkpt lat="45.30251" lon="0.42553">
        <ele>116.20001220703</ele>
        <time>2016-02-17T14:05:58Z</time>
      </trkpt>
      <trkpt lat="45.30243" lon="0.4256">
        <ele>117</ele>
        <time>2016-02-17T14:06:02Z</time>
      </trkpt>
      <trkpt lat="45.30239" lon="0.42564">
        <ele>117.40002441406</ele>
        <time>2016-02-17T14:06:04Z</time>
      </trkpt>
      <trkpt lat="45.30235" lon="0.42567">
        <ele>118.20001220703</ele>
        <time>2016-02-17T14:06:06Z</time>
      </trkpt>
      <trkpt lat="45.3023" lon="0.42573">
        <ele>119.20001220703</ele>
        <time>2016-02-17T14:06:09Z</time>
      </trkpt>
      <trkpt lat="45.30228" lon="0.42575">
        <ele>119.59997558594</ele>
        <time>2016-02-17T14:06:10Z</time>
      </trkpt>
      <trkpt lat="45.30225" lon="0.42579">
        <ele>120.40002441406</ele>
        <time>2016-02-17T14:06:12Z</time>
      </trkpt>
      <trkpt lat="45.30221" lon="0.42584">
        <ele>121.79998779297</ele>
        <time>2016-02-17T14:06:15Z</time>
      </trkpt>
      <trkpt lat="45.30216" lon="0.42589">
        <ele>123</ele>
        <time>2016-02-17T14:06:18Z</time>
      </trkpt>
      <trkpt lat="45.3021" lon="0.42596">
        <ele>124.20001220703</ele>
        <time>2016-02-17T14:06:22Z</time>
      </trkpt>
      <trkpt lat="45.30209" lon="0.42598">
        <ele>124.40002441406</ele>
        <time>2016-02-17T14:06:23Z</time>
      </trkpt>
      <trkpt lat="45.30205" lon="0.42602">
        <ele>125.40002441406</ele>
        <time>2016-02-17T14:06:26Z</time>
      </trkpt>
      <trkpt lat="45.30201" lon="0.42607">
        <ele>126.20001220703</ele>
        <time>2016-02-17T14:06:29Z</time>
      </trkpt>
      <trkpt lat="45.30199" lon="0.42609">
        <ele>126.40002441406</ele>
        <time>2016-02-17T14:06:30Z</time>
      </trkpt>
      <trkpt lat="45.30196" lon="0.42615">
        <ele>127.59997558594</ele>
        <time>2016-02-17T14:06:33Z</time>
      </trkpt>
      <trkpt lat="45.30193" lon="0.4262">
        <ele>128.40002441406</ele>
        <time>2016-02-17T14:06:36Z</time>
      </trkpt>
      <trkpt lat="45.30192" lon="0.42621">
        <ele>128.79998779297</ele>
        <time>2016-02-17T14:06:37Z</time>
      </trkpt>
      <trkpt lat="45.30188" lon="0.42628">
        <ele>129.79998779297</ele>
        <time>2016-02-17T14:06:41Z</time>
      </trkpt>
      <trkpt lat="45.30186" lon="0.42632">
        <ele>130.40002441406</ele>
        <time>2016-02-17T14:06:43Z</time>
      </trkpt>
      <trkpt lat="45.30183" lon="0.42636">
        <ele>130.79998779297</ele>
        <time>2016-02-17T14:06:45Z</time>
      </trkpt>
      <trkpt lat="45.30179" lon="0.42643">
        <ele>132</ele>
        <time>2016-02-17T14:06:49Z</time>
      </trkpt>
      <trkpt lat="45.30175" lon="0.42651">
        <ele>133.20001220703</ele>
        <time>2016-02-17T14:06:53Z</time>
      </trkpt>
      <trkpt lat="45.30172" lon="0.42655">
        <ele>133.59997558594</ele>
        <time>2016-02-17T14:06:55Z</time>
      </trkpt>
      <trkpt lat="45.30169" lon="0.42659">
        <ele>134.40002441406</ele>
        <time>2016-02-17T14:06:57Z</time>
      </trkpt>
      <trkpt lat="45.30164" lon="0.42667">
        <ele>135.59997558594</ele>
        <time>2016-02-17T14:07:01Z</time>
      </trkpt>
      <trkpt lat="45.30163" lon="0.42669">
        <ele>135.79998779297</ele>
        <time>2016-02-17T14:07:02Z</time>
      </trkpt>
      <trkpt lat="45.30159" lon="0.42676">
        <ele>136.79998779297</ele>
        <time>2016-02-17T14:07:06Z</time>
      </trkpt>
      <trkpt lat="45.30157" lon="0.4268">
        <ele>137.40002441406</ele>
        <time>2016-02-17T14:07:08Z</time>
      </trkpt>
      <trkpt lat="45.30156" lon="0.42683">
        <ele>138</ele>
        <time>2016-02-17T14:07:10Z</time>
      </trkpt>
      <trkpt lat="45.30154" lon="0.42688">
        <ele>138.59997558594</ele>
        <time>2016-02-17T14:07:13Z</time>
      </trkpt>
      <trkpt lat="45.30146" lon="0.427">
        <ele>140.59997558594</ele>
        <time>2016-02-17T14:07:21Z</time>
      </trkpt>
      <trkpt lat="45.3014" lon="0.42705">
        <ele>141.20001220703</ele>
        <time>2016-02-17T14:07:25Z</time>
      </trkpt>
      <trkpt lat="45.30138" lon="0.42705">
        <ele>141.59997558594</ele>
        <time>2016-02-17T14:07:26Z</time>
      </trkpt>
      <trkpt lat="45.30129" lon="0.4271">
        <ele>142.79998779297</ele>
        <time>2016-02-17T14:07:31Z</time>
      </trkpt>
      <trkpt lat="45.30126" lon="0.42715">
        <ele>143.40002441406</ele>
        <time>2016-02-17T14:07:34Z</time>
      </trkpt>
      <trkpt lat="45.30124" lon="0.42718">
        <ele>144</ele>
        <time>2016-02-17T14:07:36Z</time>
      </trkpt>
      <trkpt lat="45.30123" lon="0.4272">
        <ele>144.20001220703</ele>
        <time>2016-02-17T14:07:37Z</time>
      </trkpt>
      <trkpt lat="45.30118" lon="0.42728">
        <ele>145.20001220703</ele>
        <time>2016-02-17T14:07:41Z</time>
      </trkpt>
      <trkpt lat="45.30115" lon="0.42734">
        <ele>146.20001220703</ele>
        <time>2016-02-17T14:07:44Z</time>
      </trkpt>
      <trkpt lat="45.30112" lon="0.42739">
        <ele>147</ele>
        <time>2016-02-17T14:07:47Z</time>
      </trkpt>
      <trkpt lat="45.30111" lon="0.42741">
        <ele>147.40002441406</ele>
        <time>2016-02-17T14:07:48Z</time>
      </trkpt>
      <trkpt lat="45.30108" lon="0.42748">
        <ele>148.40002441406</ele>
        <time>2016-02-17T14:07:53Z</time>
      </trkpt>
      <trkpt lat="45.30107" lon="0.42751">
        <ele>148.59997558594</ele>
        <time>2016-02-17T14:07:54Z</time>
      </trkpt>
      <trkpt lat="45.30104" lon="0.42758">
        <ele>149.59997558594</ele>
        <time>2016-02-17T14:07:58Z</time>
      </trkpt>
      <trkpt lat="45.30103" lon="0.42762">
        <ele>150</ele>
        <time>2016-02-17T14:08:00Z</time>
      </trkpt>
      <trkpt lat="45.301" lon="0.42767">
        <ele>150.59997558594</ele>
        <time>2016-02-17T14:08:03Z</time>
      </trkpt>
      <trkpt lat="45.30098" lon="0.42772">
        <ele>151.20001220703</ele>
        <time>2016-02-17T14:08:06Z</time>
      </trkpt>
      <trkpt lat="45.30097" lon="0.42776">
        <ele>151.79998779297</ele>
        <time>2016-02-17T14:08:08Z</time>
      </trkpt>
      <trkpt lat="45.30094" lon="0.42787">
        <ele>153</ele>
        <time>2016-02-17T14:08:13Z</time>
      </trkpt>
      <trkpt lat="45.30093" lon="0.42791">
        <ele>153.40002441406</ele>
        <time>2016-02-17T14:08:15Z</time>
      </trkpt>
      <trkpt lat="45.30092" lon="0.42795">
        <ele>154</ele>
        <time>2016-02-17T14:08:17Z</time>
      </trkpt>
      <trkpt lat="45.30089" lon="0.42803">
        <ele>154.79998779297</ele>
        <time>2016-02-17T14:08:22Z</time>
      </trkpt>
      <trkpt lat="45.30089" lon="0.42805">
        <ele>155</ele>
        <time>2016-02-17T14:08:23Z</time>
      </trkpt>
      <trkpt lat="45.30074" lon="0.42827">
        <ele>159.40002441406</ele>
        <time>2016-02-17T14:08:41Z</time>
      </trkpt>
      <trkpt lat="45.30072" lon="0.42831">
        <ele>160</ele>
        <time>2016-02-17T14:08:43Z</time>
      </trkpt>
      <trkpt lat="45.30071" lon="0.42835">
        <ele>160.59997558594</ele>
        <time>2016-02-17T14:08:45Z</time>
      </trkpt>
      <trkpt lat="45.30069" lon="0.42844">
        <ele>161.59997558594</ele>
        <time>2016-02-17T14:08:49Z</time>
      </trkpt>
      <trkpt lat="45.30066" lon="0.42867">
        <ele>163.79998779297</ele>
        <time>2016-02-17T14:09:01Z</time>
      </trkpt>
      <trkpt lat="45.30065" lon="0.42871">
        <ele>164</ele>
        <time>2016-02-17T14:09:03Z</time>
      </trkpt>
      <trkpt lat="45.3006" lon="0.42884">
        <ele>165.40002441406</ele>
        <time>2016-02-17T14:09:32Z</time>
      </trkpt>
      <trkpt lat="45.30059" lon="0.42888">
        <ele>165.59997558594</ele>
        <time>2016-02-17T14:09:33Z</time>
      </trkpt>
      <trkpt lat="45.30053" lon="0.42904">
        <ele>166.20001220703</ele>
        <time>2016-02-17T14:09:38Z</time>
      </trkpt>
      <trkpt lat="45.30051" lon="0.4291">
        <ele>166.59997558594</ele>
        <time>2016-02-17T14:09:40Z</time>
      </trkpt>
      <trkpt lat="45.30044" lon="0.4292">
        <ele>167.20001220703</ele>
        <time>2016-02-17T14:09:43Z</time>
      </trkpt>
      <trkpt lat="45.30042" lon="0.42927">
        <ele>167.79998779297</ele>
        <time>2016-02-17T14:09:45Z</time>
      </trkpt>
      <trkpt lat="45.30037" lon="0.42939">
        <ele>168.40002441406</ele>
        <time>2016-02-17T14:09:48Z</time>
      </trkpt>
      <trkpt lat="45.30033" lon="0.42945">
        <ele>168.79998779297</ele>
        <time>2016-02-17T14:09:50Z</time>
      </trkpt>
      <trkpt lat="45.30027" lon="0.42955">
        <ele>169.59997558594</ele>
        <time>2016-02-17T14:09:54Z</time>
      </trkpt>
      <trkpt lat="45.30025" lon="0.42962">
        <ele>169.79998779297</ele>
        <time>2016-02-17T14:09:56Z</time>
      </trkpt>
      <trkpt lat="45.3002" lon="0.42968">
        <ele>170.40002441406</ele>
        <time>2016-02-17T14:09:59Z</time>
      </trkpt>
      <trkpt lat="45.30012" lon="0.42969">
        <ele>170.79998779297</ele>
        <time>2016-02-17T14:10:02Z</time>
      </trkpt>
      <trkpt lat="45.30008" lon="0.4297">
        <ele>171.20001220703</ele>
        <time>2016-02-17T14:10:04Z</time>
      </trkpt>
      <trkpt lat="45.30001" lon="0.42971">
        <ele>171.79998779297</ele>
        <time>2016-02-17T14:10:08Z</time>
      </trkpt>
      <trkpt lat="45.29996" lon="0.42972">
        <ele>172</ele>
        <time>2016-02-17T14:10:11Z</time>
      </trkpt>
      <trkpt lat="45.29987" lon="0.42978">
        <ele>172.40002441406</ele>
        <time>2016-02-17T14:10:17Z</time>
      </trkpt>
      <trkpt lat="45.29985" lon="0.42978">
        <ele>172.40002441406</ele>
        <time>2016-02-17T14:10:18Z</time>
      </trkpt>
      <trkpt lat="45.29949" lon="0.42987">
        <ele>173.20001220703</ele>
        <time>2016-02-17T14:16:13Z</time>
      </trkpt>
      <trkpt lat="45.29938" lon="0.42985">
        <ele>173.20001220703</ele>
        <time>2016-02-17T14:16:19Z</time>
      </trkpt>
      <trkpt lat="45.29923" lon="0.42987">
        <ele>173.59997558594</ele>
        <time>2016-02-17T14:16:26Z</time>
      </trkpt>
      <trkpt lat="45.29909" lon="0.42993">
        <ele>173.79998779297</ele>
        <time>2016-02-17T14:16:32Z</time>
      </trkpt>
      <trkpt lat="45.29904" lon="0.42994">
        <ele>174.20001220703</ele>
        <time>2016-02-17T14:16:34Z</time>
      </trkpt>
      <trkpt lat="45.29888" lon="0.42997">
        <ele>174.40002441406</ele>
        <time>2016-02-17T14:16:39Z</time>
      </trkpt>
      <trkpt lat="45.29869" lon="0.43004">
        <ele>174.20001220703</ele>
        <time>2016-02-17T14:16:45Z</time>
      </trkpt>
      <trkpt lat="45.29857" lon="0.43005">
        <ele>174</ele>
        <time>2016-02-17T14:16:50Z</time>
      </trkpt>
      <trkpt lat="45.29841" lon="0.43005">
        <ele>173.79998779297</ele>
        <time>2016-02-17T14:16:56Z</time>
      </trkpt>
      <trkpt lat="45.29814" lon="0.4301">
        <ele>173.79998779297</ele>
        <time>2016-02-17T14:17:03Z</time>
      </trkpt>
      <trkpt lat="45.29788" lon="0.43014">
        <ele>173.40002441406</ele>
        <time>2016-02-17T14:17:11Z</time>
      </trkpt>
      <trkpt lat="45.29773" lon="0.43023">
        <ele>173.20001220703</ele>
        <time>2016-02-17T14:17:16Z</time>
      </trkpt>
      <trkpt lat="45.2977" lon="0.43025">
        <ele>173.20001220703</ele>
        <time>2016-02-17T14:17:17Z</time>
      </trkpt>
      <trkpt lat="45.29757" lon="0.43041">
        <ele>173.20001220703</ele>
        <time>2016-02-17T14:17:23Z</time>
      </trkpt>
      <trkpt lat="45.29744" lon="0.43057">
        <ele>174</ele>
        <time>2016-02-17T14:17:28Z</time>
      </trkpt>
      <trkpt lat="45.2974" lon="0.43064">
        <ele>174.40002441406</ele>
        <time>2016-02-17T14:17:30Z</time>
      </trkpt>
      <trkpt lat="45.29732" lon="0.43078">
        <ele>175.40002441406</ele>
        <time>2016-02-17T14:17:34Z</time>
      </trkpt>
      <trkpt lat="45.29729" lon="0.43082">
        <ele>175.40002441406</ele>
        <time>2016-02-17T14:17:35Z</time>
      </trkpt>
      <trkpt lat="45.29717" lon="0.43092">
        <ele>176</ele>
        <time>2016-02-17T14:17:39Z</time>
      </trkpt>
      <trkpt lat="45.29704" lon="0.43089">
        <ele>176.20001220703</ele>
        <time>2016-02-17T14:17:43Z</time>
      </trkpt>
      <trkpt lat="45.29693" lon="0.43082">
        <ele>176.20001220703</ele>
        <time>2016-02-17T14:17:46Z</time>
      </trkpt>
      <trkpt lat="45.29682" lon="0.43069">
        <ele>175.59997558594</ele>
        <time>2016-02-17T14:17:49Z</time>
      </trkpt>
      <trkpt lat="45.29657" lon="0.43042">
        <ele>174.40002441406</ele>
        <time>2016-02-17T14:17:55Z</time>
      </trkpt>
      <trkpt lat="45.29636" lon="0.43019">
        <ele>173.20001220703</ele>
        <time>2016-02-17T14:18:00Z</time>
      </trkpt>
      <trkpt lat="45.29628" lon="0.43012">
        <ele>173</ele>
        <time>2016-02-17T14:18:02Z</time>
      </trkpt>
      <trkpt lat="45.29597" lon="0.42984">
        <ele>172.20001220703</ele>
        <time>2016-02-17T14:18:09Z</time>
      </trkpt>
      <trkpt lat="45.29593" lon="0.42979">
        <ele>172</ele>
        <time>2016-02-17T14:18:10Z</time>
      </trkpt>
      <trkpt lat="45.29589" lon="0.42976">
        <ele>171.79998779297</ele>
        <time>2016-02-17T14:18:11Z</time>
      </trkpt>
      <trkpt lat="45.29576" lon="0.42967">
        <ele>171.59997558594</ele>
        <time>2016-02-17T14:18:14Z</time>
      </trkpt>
      <trkpt lat="45.29548" lon="0.42958">
        <ele>171.79998779297</ele>
        <time>2016-02-17T14:18:20Z</time>
      </trkpt>
      <trkpt lat="45.29526" lon="0.42952">
        <ele>172.79998779297</ele>
        <time>2016-02-17T14:18:25Z</time>
      </trkpt>
      <trkpt lat="45.29522" lon="0.42949">
        <ele>173</ele>
        <time>2016-02-17T14:18:26Z</time>
      </trkpt>
      <trkpt lat="45.29516" lon="0.42938">
        <ele>173</ele>
        <time>2016-02-17T14:18:28Z</time>
      </trkpt>
      <trkpt lat="45.29514" lon="0.42933">
        <ele>173</ele>
        <time>2016-02-17T14:18:29Z</time>
      </trkpt>
      <trkpt lat="45.2951" lon="0.42928">
        <ele>173</ele>
        <time>2016-02-17T14:18:30Z</time>
      </trkpt>
      <trkpt lat="45.29485" lon="0.42891">
        <ele>172.20001220703</ele>
        <time>2016-02-17T14:18:37Z</time>
      </trkpt>
      <trkpt lat="45.29472" lon="0.42878">
        <ele>172</ele>
        <time>2016-02-17T14:18:40Z</time>
      </trkpt>
      <trkpt lat="45.29457" lon="0.42862">
        <ele>172.20001220703</ele>
        <time>2016-02-17T14:18:44Z</time>
      </trkpt>
      <trkpt lat="45.29445" lon="0.42843">
        <ele>172.40002441406</ele>
        <time>2016-02-17T14:18:48Z</time>
      </trkpt>
      <trkpt lat="45.29442" lon="0.42839">
        <ele>172.40002441406</ele>
        <time>2016-02-17T14:18:49Z</time>
      </trkpt>
      <trkpt lat="45.29436" lon="0.42828">
        <ele>172.59997558594</ele>
        <time>2016-02-17T14:18:51Z</time>
      </trkpt>
      <trkpt lat="45.29425" lon="0.42812">
        <ele>173.20001220703</ele>
        <time>2016-02-17T14:18:54Z</time>
      </trkpt>
      <trkpt lat="45.2942" lon="0.42801">
        <ele>173.79998779297</ele>
        <time>2016-02-17T14:18:56Z</time>
      </trkpt>
      <trkpt lat="45.29415" lon="0.42792">
        <ele>174.59997558594</ele>
        <time>2016-02-17T14:18:58Z</time>
      </trkpt>
      <trkpt lat="45.29412" lon="0.42787">
        <ele>174.79998779297</ele>
        <time>2016-02-17T14:18:59Z</time>
      </trkpt>
      <trkpt lat="45.29399" lon="0.42767">
        <ele>175.59997558594</ele>
        <time>2016-02-17T14:19:03Z</time>
      </trkpt>
      <trkpt lat="45.29391" lon="0.42755">
        <ele>176</ele>
        <time>2016-02-17T14:19:05Z</time>
      </trkpt>
      <trkpt lat="45.29388" lon="0.42749">
        <ele>176.20001220703</ele>
        <time>2016-02-17T14:19:06Z</time>
      </trkpt>
      <trkpt lat="45.29374" lon="0.42726">
        <ele>177</ele>
        <time>2016-02-17T14:19:10Z</time>
      </trkpt>
      <trkpt lat="45.29367" lon="0.42715">
        <ele>177.40002441406</ele>
        <time>2016-02-17T14:19:12Z</time>
      </trkpt>
      <trkpt lat="45.29356" lon="0.42698">
        <ele>178</ele>
        <time>2016-02-17T14:19:15Z</time>
      </trkpt>
      <trkpt lat="45.29335" lon="0.42671">
        <ele>178.40002441406</ele>
        <time>2016-02-17T14:19:20Z</time>
      </trkpt>
      <trkpt lat="45.29291" lon="0.42629">
        <ele>177.59997558594</ele>
        <time>2016-02-17T14:19:29Z</time>
      </trkpt>
      <trkpt lat="45.29265" lon="0.42612">
        <ele>177</ele>
        <time>2016-02-17T14:19:34Z</time>
      </trkpt>
      <trkpt lat="45.29254" lon="0.42606">
        <ele>176.79998779297</ele>
        <time>2016-02-17T14:19:36Z</time>
      </trkpt>
      <trkpt lat="45.29212" lon="0.42593">
        <ele>176.59997558594</ele>
        <time>2016-02-17T14:19:43Z</time>
      </trkpt>
      <trkpt lat="45.2916" lon="0.4258">
        <ele>177.20001220703</ele>
        <time>2016-02-17T14:19:52Z</time>
      </trkpt>
      <trkpt lat="45.29119" lon="0.42576">
        <ele>177</ele>
        <time>2016-02-17T14:19:59Z</time>
      </trkpt>
      <trkpt lat="45.29102" lon="0.42574">
        <ele>176.79998779297</ele>
        <time>2016-02-17T14:20:02Z</time>
      </trkpt>
      <trkpt lat="45.29073" lon="0.42572">
        <ele>176</ele>
        <time>2016-02-17T14:20:07Z</time>
      </trkpt>
      <trkpt lat="45.29067" lon="0.42572">
        <ele>176</ele>
        <time>2016-02-17T14:20:08Z</time>
      </trkpt>
      <trkpt lat="45.29019" lon="0.4257">
        <ele>175.40002441406</ele>
        <time>2016-02-17T14:20:16Z</time>
      </trkpt>
      <trkpt lat="45.29007" lon="0.42569">
        <ele>174.79998779297</ele>
        <time>2016-02-17T14:20:18Z</time>
      </trkpt>
      <trkpt lat="45.28971" lon="0.42564">
        <ele>174.40002441406</ele>
        <time>2016-02-17T14:20:24Z</time>
      </trkpt>
      <trkpt lat="45.28936" lon="0.42556">
        <ele>174.20001220703</ele>
        <time>2016-02-17T14:20:30Z</time>
      </trkpt>
      <trkpt lat="45.28887" lon="0.42539">
        <ele>174.20001220703</ele>
        <time>2016-02-17T14:20:39Z</time>
      </trkpt>
      <trkpt lat="45.28859" lon="0.42532">
        <ele>174.20001220703</ele>
        <time>2016-02-17T14:20:44Z</time>
      </trkpt>
      <trkpt lat="45.28847" lon="0.42531">
        <ele>174.20001220703</ele>
        <time>2016-02-17T14:20:46Z</time>
      </trkpt>
      <trkpt lat="45.28829" lon="0.42532">
        <ele>174.20001220703</ele>
        <time>2016-02-17T14:20:49Z</time>
      </trkpt>
      <trkpt lat="45.28811" lon="0.42535">
        <ele>174.20001220703</ele>
        <time>2016-02-17T14:20:52Z</time>
      </trkpt>
      <trkpt lat="45.28756" lon="0.4254">
        <ele>173.79998779297</ele>
        <time>2016-02-17T14:21:01Z</time>
      </trkpt>
      <trkpt lat="45.2875" lon="0.4254">
        <ele>173.79998779297</ele>
        <time>2016-02-17T14:21:02Z</time>
      </trkpt>
      <trkpt lat="45.28705" lon="0.42538">
        <ele>172.79998779297</ele>
        <time>2016-02-17T14:21:09Z</time>
      </trkpt>
      <trkpt lat="45.28692" lon="0.42537">
        <ele>172.79998779297</ele>
        <time>2016-02-17T14:21:11Z</time>
      </trkpt>
      <trkpt lat="45.28654" lon="0.42528">
        <ele>171.59997558594</ele>
        <time>2016-02-17T14:21:17Z</time>
      </trkpt>
      <trkpt lat="45.28621" lon="0.42521">
        <ele>170.40002441406</ele>
        <time>2016-02-17T14:21:22Z</time>
      </trkpt>
      <trkpt lat="45.28587" lon="0.42514">
        <ele>169.79998779297</ele>
        <time>2016-02-17T14:21:27Z</time>
      </trkpt>
      <trkpt lat="45.28539" lon="0.42508">
        <ele>170</ele>
        <time>2016-02-17T14:21:35Z</time>
      </trkpt>
      <trkpt lat="45.285" lon="0.42497">
        <ele>170.79998779297</ele>
        <time>2016-02-17T14:21:42Z</time>
      </trkpt>
      <trkpt lat="45.28485" lon="0.42488">
        <ele>171.40002441406</ele>
        <time>2016-02-17T14:21:45Z</time>
      </trkpt>
      <trkpt lat="45.28472" lon="0.42475">
        <ele>172.40002441406</ele>
        <time>2016-02-17T14:21:48Z</time>
      </trkpt>
      <trkpt lat="45.28468" lon="0.42471">
        <ele>172.59997558594</ele>
        <time>2016-02-17T14:21:49Z</time>
      </trkpt>
      <trkpt lat="45.28457" lon="0.42464">
        <ele>173</ele>
        <time>2016-02-17T14:21:52Z</time>
      </trkpt>
      <trkpt lat="45.28453" lon="0.42466">
        <ele>173</ele>
        <time>2016-02-17T14:21:53Z</time>
      </trkpt>
      <trkpt lat="45.28446" lon="0.42479">
        <ele>173.20001220703</ele>
        <time>2016-02-17T14:21:56Z</time>
      </trkpt>
      <trkpt lat="45.28444" lon="0.42485">
        <ele>173.20001220703</ele>
        <time>2016-02-17T14:21:57Z</time>
      </trkpt>
      <trkpt lat="45.28435" lon="0.42515">
        <ele>172.79998779297</ele>
        <time>2016-02-17T14:22:01Z</time>
      </trkpt>
      <trkpt lat="45.28425" lon="0.42567">
        <ele>171.79998779297</ele>
        <time>2016-02-17T14:22:06Z</time>
      </trkpt>
      <trkpt lat="45.28423" lon="0.42579">
        <ele>171.40002441406</ele>
        <time>2016-02-17T14:22:07Z</time>
      </trkpt>
      <trkpt lat="45.28415" lon="0.42617">
        <ele>169.40002441406</ele>
        <time>2016-02-17T14:22:10Z</time>
      </trkpt>
      <trkpt lat="45.28411" lon="0.42644">
        <ele>168</ele>
        <time>2016-02-17T14:22:12Z</time>
      </trkpt>
      <trkpt lat="45.28406" lon="0.42671">
        <ele>167</ele>
        <time>2016-02-17T14:22:14Z</time>
      </trkpt>
      <trkpt lat="45.28402" lon="0.42699">
        <ele>165.59997558594</ele>
        <time>2016-02-17T14:22:16Z</time>
      </trkpt>
      <trkpt lat="45.284" lon="0.42726">
        <ele>164.20001220703</ele>
        <time>2016-02-17T14:22:18Z</time>
      </trkpt>
      <trkpt lat="45.28398" lon="0.4274">
        <ele>163.40002441406</ele>
        <time>2016-02-17T14:22:19Z</time>
      </trkpt>
      <trkpt lat="45.28396" lon="0.42754">
        <ele>162.59997558594</ele>
        <time>2016-02-17T14:22:20Z</time>
      </trkpt>
      <trkpt lat="45.28393" lon="0.4278">
        <ele>161.59997558594</ele>
        <time>2016-02-17T14:22:22Z</time>
      </trkpt>
      <trkpt lat="45.28387" lon="0.42818">
        <ele>160.40002441406</ele>
        <time>2016-02-17T14:22:25Z</time>
      </trkpt>
      <trkpt lat="45.28385" lon="0.42831">
        <ele>159.79998779297</ele>
        <time>2016-02-17T14:22:26Z</time>
      </trkpt>
      <trkpt lat="45.28382" lon="0.42843">
        <ele>159.20001220703</ele>
        <time>2016-02-17T14:22:27Z</time>
      </trkpt>
      <trkpt lat="45.28378" lon="0.42867">
        <ele>158.20001220703</ele>
        <time>2016-02-17T14:22:29Z</time>
      </trkpt>
      <trkpt lat="45.2837" lon="0.42913">
        <ele>156.79998779297</ele>
        <time>2016-02-17T14:22:33Z</time>
      </trkpt>
      <trkpt lat="45.28369" lon="0.42924">
        <ele>156.20001220703</ele>
        <time>2016-02-17T14:22:34Z</time>
      </trkpt>
      <trkpt lat="45.28367" lon="0.42936">
        <ele>155.79998779297</ele>
        <time>2016-02-17T14:22:35Z</time>
      </trkpt>
      <trkpt lat="45.28362" lon="0.42975">
        <ele>154.79998779297</ele>
        <time>2016-02-17T14:22:39Z</time>
      </trkpt>
      <trkpt lat="45.2836" lon="0.42983">
        <ele>154.40002441406</ele>
        <time>2016-02-17T14:22:40Z</time>
      </trkpt>
      <trkpt lat="45.28358" lon="0.43006">
        <ele>153.40002441406</ele>
        <time>2016-02-17T14:22:43Z</time>
      </trkpt>
      <trkpt lat="45.28357" lon="0.43011">
        <ele>153</ele>
        <time>2016-02-17T14:22:45Z</time>
      </trkpt>
      <trkpt lat="45.28359" lon="0.43015">
        <ele>151.40002441406</ele>
        <time>2016-02-17T14:22:51Z</time>
      </trkpt>
      <trkpt lat="45.2836" lon="0.43015">
        <ele>151.20001220703</ele>
        <time>2016-02-17T14:22:52Z</time>
      </trkpt>
      <trkpt lat="45.28367" lon="0.43026">
        <ele>151.59997558594</ele>
        <time>2016-02-17T14:23:08Z</time>
      </trkpt>
      <trkpt lat="45.28372" lon="0.43032">
        <ele>151.59997558594</ele>
        <time>2016-02-17T14:23:10Z</time>
      </trkpt>
      <trkpt lat="45.28382" lon="0.43049">
        <ele>151.20001220703</ele>
        <time>2016-02-17T14:23:16Z</time>
      </trkpt>
      <trkpt lat="45.28386" lon="0.43061">
        <ele>150</ele>
        <time>2016-02-17T14:24:08Z</time>
      </trkpt>
      <trkpt lat="45.2839" lon="0.43069">
        <ele>149.79998779297</ele>
        <time>2016-02-17T14:24:10Z</time>
      </trkpt>
      <trkpt lat="45.28395" lon="0.43092">
        <ele>149.20001220703</ele>
        <time>2016-02-17T14:24:15Z</time>
      </trkpt>
      <trkpt lat="45.28396" lon="0.43097">
        <ele>148.79998779297</ele>
        <time>2016-02-17T14:24:16Z</time>
      </trkpt>
      <trkpt lat="45.28399" lon="0.43112">
        <ele>147.79998779297</ele>
        <time>2016-02-17T14:24:20Z</time>
      </trkpt>
      <trkpt lat="45.28404" lon="0.43133">
        <ele>146.59997558594</ele>
        <time>2016-02-17T14:24:25Z</time>
      </trkpt>
      <trkpt lat="45.28406" lon="0.43137">
        <ele>146.40002441406</ele>
        <time>2016-02-17T14:24:26Z</time>
      </trkpt>
      <trkpt lat="45.2841" lon="0.43148">
        <ele>145.59997558594</ele>
        <time>2016-02-17T14:24:30Z</time>
      </trkpt>
      <trkpt lat="45.28411" lon="0.4315">
        <ele>145.40002441406</ele>
        <time>2016-02-17T14:24:31Z</time>
      </trkpt>
      <trkpt lat="45.28415" lon="0.4317">
        <ele>144.59997558594</ele>
        <time>2016-02-17T14:24:36Z</time>
      </trkpt>
      <trkpt lat="45.28424" lon="0.43207">
        <ele>143.40002441406</ele>
        <time>2016-02-17T14:24:42Z</time>
      </trkpt>
      <trkpt lat="45.28432" lon="0.43242">
        <ele>142.20001220703</ele>
        <time>2016-02-17T14:24:48Z</time>
      </trkpt>
      <trkpt lat="45.28439" lon="0.43276">
        <ele>141</ele>
        <time>2016-02-17T14:24:54Z</time>
      </trkpt>
      <trkpt lat="45.2844" lon="0.43282">
        <ele>140.79998779297</ele>
        <time>2016-02-17T14:24:55Z</time>
      </trkpt>
      <trkpt lat="45.28446" lon="0.43309">
        <ele>139.79998779297</ele>
        <time>2016-02-17T14:24:59Z</time>
      </trkpt>
      <trkpt lat="45.28449" lon="0.43324">
        <ele>139.40002441406</ele>
        <time>2016-02-17T14:25:01Z</time>
      </trkpt>
      <trkpt lat="45.28455" lon="0.43348">
        <ele>138.79998779297</ele>
        <time>2016-02-17T14:25:04Z</time>
      </trkpt>
      <trkpt lat="45.28456" lon="0.43365">
        <ele>138.20001220703</ele>
        <time>2016-02-17T14:25:07Z</time>
      </trkpt>
      <trkpt lat="45.28456" lon="0.43375">
        <ele>137.59997558594</ele>
        <time>2016-02-17T14:25:09Z</time>
      </trkpt>
      <trkpt lat="45.28457" lon="0.43401">
        <ele>136.79998779297</ele>
        <time>2016-02-17T14:25:13Z</time>
      </trkpt>
      <trkpt lat="45.28458" lon="0.43407">
        <ele>136.59997558594</ele>
        <time>2016-02-17T14:25:14Z</time>
      </trkpt>
      <trkpt lat="45.28459" lon="0.43434">
        <ele>135.40002441406</ele>
        <time>2016-02-17T14:25:19Z</time>
      </trkpt>
      <trkpt lat="45.28459" lon="0.43445">
        <ele>133.79998779297</ele>
        <time>2016-02-17T14:25:23Z</time>
      </trkpt>
      <trkpt lat="45.2846" lon="0.43447">
        <ele>133.59997558594</ele>
        <time>2016-02-17T14:25:24Z</time>
      </trkpt>
      <trkpt lat="45.28461" lon="0.43462">
        <ele>132.79998779297</ele>
        <time>2016-02-17T14:25:29Z</time>
      </trkpt>
      <trkpt lat="45.28461" lon="0.43468">
        <ele>132.59997558594</ele>
        <time>2016-02-17T14:25:30Z</time>
      </trkpt>
      <trkpt lat="45.28465" lon="0.43497">
        <ele>132.40002441406</ele>
        <time>2016-02-17T14:25:34Z</time>
      </trkpt>
      <trkpt lat="45.28466" lon="0.43504">
        <ele>132.20001220703</ele>
        <time>2016-02-17T14:25:35Z</time>
      </trkpt>
      <trkpt lat="45.28467" lon="0.43518">
        <ele>131.20001220703</ele>
        <time>2016-02-17T14:25:37Z</time>
      </trkpt>
      <trkpt lat="45.28466" lon="0.43531">
        <ele>130</ele>
        <time>2016-02-17T14:25:39Z</time>
      </trkpt>
      <trkpt lat="45.28467" lon="0.43549">
        <ele>128.79998779297</ele>
        <time>2016-02-17T14:25:42Z</time>
      </trkpt>
      <trkpt lat="45.28469" lon="0.43583">
        <ele>127.79998779297</ele>
        <time>2016-02-17T14:25:46Z</time>
      </trkpt>
      <trkpt lat="45.2847" lon="0.43593">
        <ele>126.79998779297</ele>
        <time>2016-02-17T14:25:47Z</time>
      </trkpt>
      <trkpt lat="45.28471" lon="0.43612">
        <ele>125.59997558594</ele>
        <time>2016-02-17T14:25:49Z</time>
      </trkpt>
      <trkpt lat="45.28471" lon="0.4363">
        <ele>124.59997558594</ele>
        <time>2016-02-17T14:25:51Z</time>
      </trkpt>
      <trkpt lat="45.28471" lon="0.43639">
        <ele>124.20001220703</ele>
        <time>2016-02-17T14:25:52Z</time>
      </trkpt>
      <trkpt lat="45.28472" lon="0.43657">
        <ele>123</ele>
        <time>2016-02-17T14:25:54Z</time>
      </trkpt>
      <trkpt lat="45.28473" lon="0.43675">
        <ele>122.20001220703</ele>
        <time>2016-02-17T14:25:56Z</time>
      </trkpt>
      <trkpt lat="45.28473" lon="0.43684">
        <ele>121.79998779297</ele>
        <time>2016-02-17T14:25:57Z</time>
      </trkpt>
      <trkpt lat="45.28474" lon="0.4371">
        <ele>120.59997558594</ele>
        <time>2016-02-17T14:26:00Z</time>
      </trkpt>
      <trkpt lat="45.28474" lon="0.43736">
        <ele>119.59997558594</ele>
        <time>2016-02-17T14:26:03Z</time>
      </trkpt>
      <trkpt lat="45.28474" lon="0.43765">
        <ele>118.20001220703</ele>
        <time>2016-02-17T14:26:07Z</time>
      </trkpt>
      <trkpt lat="45.28474" lon="0.43777">
        <ele>117.59997558594</ele>
        <time>2016-02-17T14:26:09Z</time>
      </trkpt>
      <trkpt lat="45.28475" lon="0.4379">
        <ele>116.79998779297</ele>
        <time>2016-02-17T14:26:11Z</time>
      </trkpt>
      <trkpt lat="45.28481" lon="0.43817">
        <ele>116</ele>
        <time>2016-02-17T14:26:15Z</time>
      </trkpt>
      <trkpt lat="45.28484" lon="0.43831">
        <ele>115.79998779297</ele>
        <time>2016-02-17T14:26:17Z</time>
      </trkpt>
      <trkpt lat="45.28485" lon="0.43839">
        <ele>115.59997558594</ele>
        <time>2016-02-17T14:26:18Z</time>
      </trkpt>
      <trkpt lat="45.28487" lon="0.43845">
        <ele>115.59997558594</ele>
        <time>2016-02-17T14:26:19Z</time>
      </trkpt>
      <trkpt lat="45.28489" lon="0.43852">
        <ele>115.40002441406</ele>
        <time>2016-02-17T14:26:20Z</time>
      </trkpt>
      <trkpt lat="45.28497" lon="0.4389">
        <ele>114.40002441406</ele>
        <time>2016-02-17T14:26:25Z</time>
      </trkpt>
      <trkpt lat="45.28498" lon="0.43897">
        <ele>114.20001220703</ele>
        <time>2016-02-17T14:26:26Z</time>
      </trkpt>
      <trkpt lat="45.28503" lon="0.43928">
        <ele>113.40002441406</ele>
        <time>2016-02-17T14:26:30Z</time>
      </trkpt>
      <trkpt lat="45.28507" lon="0.43952">
        <ele>112.79998779297</ele>
        <time>2016-02-17T14:26:33Z</time>
      </trkpt>
      <trkpt lat="45.28508" lon="0.43959">
        <ele>112.20001220703</ele>
        <time>2016-02-17T14:26:34Z</time>
      </trkpt>
      <trkpt lat="45.28509" lon="0.43963">
        <ele>111.20001220703</ele>
        <time>2016-02-17T14:26:35Z</time>
      </trkpt>
      <trkpt lat="45.2851" lon="0.43966">
        <ele>110.59997558594</ele>
        <time>2016-02-17T14:26:36Z</time>
      </trkpt>
      <trkpt lat="45.28514" lon="0.43977">
        <ele>108</ele>
        <time>2016-02-17T14:30:17Z</time>
      </trkpt>
      <trkpt lat="45.28516" lon="0.43982">
        <ele>108</ele>
        <time>2016-02-17T14:30:18Z</time>
      </trkpt>
      <trkpt lat="45.28519" lon="0.44013">
        <ele>107.79998779297</ele>
        <time>2016-02-17T14:30:24Z</time>
      </trkpt>
      <trkpt lat="45.28522" lon="0.44034">
        <ele>106.79998779297</ele>
        <time>2016-02-17T14:30:29Z</time>
      </trkpt>
      <trkpt lat="45.28523" lon="0.44038">
        <ele>106.40002441406</ele>
        <time>2016-02-17T14:30:30Z</time>
      </trkpt>
      <trkpt lat="45.28524" lon="0.4405">
        <ele>105.59997558594</ele>
        <time>2016-02-17T14:30:33Z</time>
      </trkpt>
      <trkpt lat="45.28527" lon="0.44059">
        <ele>105</ele>
        <time>2016-02-17T14:30:35Z</time>
      </trkpt>
      <trkpt lat="45.28528" lon="0.44072">
        <ele>104.40002441406</ele>
        <time>2016-02-17T14:30:37Z</time>
      </trkpt>
      <trkpt lat="45.2853" lon="0.44083">
        <ele>103.79998779297</ele>
        <time>2016-02-17T14:30:39Z</time>
      </trkpt>
      <trkpt lat="45.28532" lon="0.44094">
        <ele>103.20001220703</ele>
        <time>2016-02-17T14:30:41Z</time>
      </trkpt>
      <trkpt lat="45.28534" lon="0.44107">
        <ele>101.79998779297</ele>
        <time>2016-02-17T14:30:44Z</time>
      </trkpt>
      <trkpt lat="45.28535" lon="0.44111">
        <ele>101.40002441406</ele>
        <time>2016-02-17T14:30:45Z</time>
      </trkpt>
      <trkpt lat="45.28536" lon="0.44121">
        <ele>100.59997558594</ele>
        <time>2016-02-17T14:30:47Z</time>
      </trkpt>
      <trkpt lat="45.28538" lon="0.44131">
        <ele>99.200012207031</ele>
        <time>2016-02-17T14:30:50Z</time>
      </trkpt>
      <trkpt lat="45.28541" lon="0.44143">
        <ele>98.200012207031</ele>
        <time>2016-02-17T14:30:53Z</time>
      </trkpt>
      <trkpt lat="45.28542" lon="0.44151">
        <ele>97.599975585938</ele>
        <time>2016-02-17T14:30:55Z</time>
      </trkpt>
      <trkpt lat="45.28536" lon="0.44162">
        <ele>97</ele>
        <time>2016-02-17T14:30:59Z</time>
      </trkpt>
      <trkpt lat="45.2852" lon="0.4418">
        <ele>97</ele>
        <time>2016-02-17T14:31:06Z</time>
      </trkpt>
      <trkpt lat="45.285" lon="0.44206">
        <ele>96.400024414062</ele>
        <time>2016-02-17T14:31:12Z</time>
      </trkpt>
      <trkpt lat="45.28473" lon="0.44231">
        <ele>96</ele>
        <time>2016-02-17T14:31:19Z</time>
      </trkpt>
      <trkpt lat="45.28454" lon="0.44248">
        <ele>95.200012207031</ele>
        <time>2016-02-17T14:31:24Z</time>
      </trkpt>
      <trkpt lat="45.28448" lon="0.44253">
        <ele>94.799987792969</ele>
        <time>2016-02-17T14:31:26Z</time>
      </trkpt>
      <trkpt lat="45.28439" lon="0.44265">
        <ele>94</ele>
        <time>2016-02-17T14:31:30Z</time>
      </trkpt>
      <trkpt lat="45.28438" lon="0.44268">
        <ele>93.799987792969</ele>
        <time>2016-02-17T14:31:31Z</time>
      </trkpt>
      <trkpt lat="45.28425" lon="0.44276">
        <ele>93.200012207031</ele>
        <time>2016-02-17T14:31:37Z</time>
      </trkpt>
      <trkpt lat="45.28409" lon="0.44272">
        <ele>92.799987792969</ele>
        <time>2016-02-17T14:31:42Z</time>
      </trkpt>
      <trkpt lat="45.28407" lon="0.44272">
        <ele>92.799987792969</ele>
        <time>2016-02-17T14:31:43Z</time>
      </trkpt>
      <trkpt lat="45.28399" lon="0.44267">
        <ele>92.599975585938</ele>
        <time>2016-02-17T14:31:47Z</time>
      </trkpt>
      <trkpt lat="45.28396" lon="0.44272">
        <ele>92.599975585938</ele>
        <time>2016-02-17T14:31:50Z</time>
      </trkpt>
      <trkpt lat="45.28396" lon="0.44274">
        <ele>92.400024414062</ele>
        <time>2016-02-17T14:31:51Z</time>
      </trkpt>
      <trkpt lat="45.28399" lon="0.44287">
        <ele>92.400024414062</ele>
        <time>2016-02-17T14:31:55Z</time>
      </trkpt>
      <trkpt lat="45.284" lon="0.44289">
        <ele>92.400024414062</ele>
        <time>2016-02-17T14:31:56Z</time>
      </trkpt>
      <trkpt lat="45.2841" lon="0.44308">
        <ele>92.799987792969</ele>
        <time>2016-02-17T14:32:00Z</time>
      </trkpt>
      <trkpt lat="45.28413" lon="0.44313">
        <ele>93</ele>
        <time>2016-02-17T14:32:01Z</time>
      </trkpt>
      <trkpt lat="45.2842" lon="0.4433">
        <ele>93</ele>
        <time>2016-02-17T14:32:04Z</time>
      </trkpt>
      <trkpt lat="45.28426" lon="0.44342">
        <ele>93</ele>
        <time>2016-02-17T14:32:06Z</time>
      </trkpt>
      <trkpt lat="45.28442" lon="0.44386">
        <ele>93</ele>
        <time>2016-02-17T14:32:13Z</time>
      </trkpt>
      <trkpt lat="45.28454" lon="0.44435">
        <ele>93.400024414062</ele>
        <time>2016-02-17T14:32:21Z</time>
      </trkpt>
      <trkpt lat="45.28462" lon="0.44481">
        <ele>93.599975585938</ele>
        <time>2016-02-17T14:32:27Z</time>
      </trkpt>
      <trkpt lat="45.28481" lon="0.44547">
        <ele>93.200012207031</ele>
        <time>2016-02-17T14:32:36Z</time>
      </trkpt>
      <trkpt lat="45.28487" lon="0.44565">
        <ele>93.400024414062</ele>
        <time>2016-02-17T14:32:39Z</time>
      </trkpt>
      <trkpt lat="45.28484" lon="0.44571">
        <ele>93.400024414062</ele>
        <time>2016-02-17T14:32:40Z</time>
      </trkpt>
      <trkpt lat="45.28475" lon="0.44574">
        <ele>93.200012207031</ele>
        <time>2016-02-17T14:32:42Z</time>
      </trkpt>
      <trkpt lat="45.28465" lon="0.44576">
        <ele>93</ele>
        <time>2016-02-17T14:32:44Z</time>
      </trkpt>
      <trkpt lat="45.28449" lon="0.44579">
        <ele>93</ele>
        <time>2016-02-17T14:32:47Z</time>
      </trkpt>
      <trkpt lat="45.28427" lon="0.44578">
        <ele>93.200012207031</ele>
        <time>2016-02-17T14:32:51Z</time>
      </trkpt>
      <trkpt lat="45.28416" lon="0.44573">
        <ele>93.200012207031</ele>
        <time>2016-02-17T14:32:53Z</time>
      </trkpt>
      <trkpt lat="45.28402" lon="0.44563">
        <ele>93.200012207031</ele>
        <time>2016-02-17T14:32:56Z</time>
      </trkpt>
      <trkpt lat="45.28384" lon="0.44547">
        <ele>93.799987792969</ele>
        <time>2016-02-17T14:33:00Z</time>
      </trkpt>
      <trkpt lat="45.2838" lon="0.44543">
        <ele>93.799987792969</ele>
        <time>2016-02-17T14:33:01Z</time>
      </trkpt>
      <trkpt lat="45.28351" lon="0.44526">
        <ele>94</ele>
        <time>2016-02-17T14:33:07Z</time>
      </trkpt>
      <trkpt lat="45.28313" lon="0.44509">
        <ele>93.400024414062</ele>
        <time>2016-02-17T14:33:15Z</time>
      </trkpt>
      <trkpt lat="45.28281" lon="0.44498">
        <ele>93.200012207031</ele>
        <time>2016-02-17T14:33:22Z</time>
      </trkpt>
      <trkpt lat="45.28251" lon="0.44489">
        <ele>94.200012207031</ele>
        <time>2016-02-17T14:33:29Z</time>
      </trkpt>
      <trkpt lat="45.28236" lon="0.44483">
        <ele>95</ele>
        <time>2016-02-17T14:33:33Z</time>
      </trkpt>
      <trkpt lat="45.28228" lon="0.44479">
        <ele>95.400024414062</ele>
        <time>2016-02-17T14:33:35Z</time>
      </trkpt>
      <trkpt lat="45.2822" lon="0.44476">
        <ele>95.599975585938</ele>
        <time>2016-02-17T14:33:37Z</time>
      </trkpt>
      <trkpt lat="45.28211" lon="0.44475">
        <ele>96</ele>
        <time>2016-02-17T14:33:39Z</time>
      </trkpt>
      <trkpt lat="45.28203" lon="0.44475">
        <ele>96.400024414062</ele>
        <time>2016-02-17T14:33:41Z</time>
      </trkpt>
      <trkpt lat="45.28196" lon="0.44482">
        <ele>96.599975585938</ele>
        <time>2016-02-17T14:33:43Z</time>
      </trkpt>
      <trkpt lat="45.28189" lon="0.44497">
        <ele>97</ele>
        <time>2016-02-17T14:33:46Z</time>
      </trkpt>
      <trkpt lat="45.28187" lon="0.44501">
        <ele>97.599975585938</ele>
        <time>2016-02-17T14:33:47Z</time>
      </trkpt>
      <trkpt lat="45.28185" lon="0.44506">
        <ele>97.799987792969</ele>
        <time>2016-02-17T14:33:48Z</time>
      </trkpt>
      <trkpt lat="45.28183" lon="0.44514">
        <ele>98.200012207031</ele>
        <time>2016-02-17T14:33:50Z</time>
      </trkpt>
      <trkpt lat="45.28176" lon="0.44523">
        <ele>99</ele>
        <time>2016-02-17T14:33:53Z</time>
      </trkpt>
      <trkpt lat="45.28173" lon="0.44525">
        <ele>99.200012207031</ele>
        <time>2016-02-17T14:33:54Z</time>
      </trkpt>
      <trkpt lat="45.28163" lon="0.44528">
        <ele>100</ele>
        <time>2016-02-17T14:33:57Z</time>
      </trkpt>
      <trkpt lat="45.28155" lon="0.44527">
        <ele>100.40002441406</ele>
        <time>2016-02-17T14:33:59Z</time>
      </trkpt>
      <trkpt lat="45.28141" lon="0.44525">
        <ele>101</ele>
        <time>2016-02-17T14:34:03Z</time>
      </trkpt>
      <trkpt lat="45.28135" lon="0.44523">
        <ele>101.59997558594</ele>
        <time>2016-02-17T14:34:05Z</time>
      </trkpt>
      <trkpt lat="45.28122" lon="0.44518">
        <ele>102.20001220703</ele>
        <time>2016-02-17T14:34:09Z</time>
      </trkpt>
      <trkpt lat="45.28115" lon="0.44514">
        <ele>102.79998779297</ele>
        <time>2016-02-17T14:34:11Z</time>
      </trkpt>
      <trkpt lat="45.28106" lon="0.44501">
        <ele>103.79998779297</ele>
        <time>2016-02-17T14:34:15Z</time>
      </trkpt>
      <trkpt lat="45.28105" lon="0.44498">
        <ele>104</ele>
        <time>2016-02-17T14:34:16Z</time>
      </trkpt>
      <trkpt lat="45.28103" lon="0.4448">
        <ele>105.20001220703</ele>
        <time>2016-02-17T14:34:21Z</time>
      </trkpt>
      <trkpt lat="45.28102" lon="0.44471">
        <ele>106.40002441406</ele>
        <time>2016-02-17T14:34:24Z</time>
      </trkpt>
      <trkpt lat="45.28099" lon="0.44465">
        <ele>107.59997558594</ele>
        <time>2016-02-17T14:34:27Z</time>
      </trkpt>
      <trkpt lat="45.28094" lon="0.44465">
        <ele>108.79998779297</ele>
        <time>2016-02-17T14:34:30Z</time>
      </trkpt>
      <trkpt lat="45.28093" lon="0.44465">
        <ele>109.20001220703</ele>
        <time>2016-02-17T14:34:31Z</time>
      </trkpt>
      <trkpt lat="45.28091" lon="0.44465">
        <ele>109.59997558594</ele>
        <time>2016-02-17T14:34:32Z</time>
      </trkpt>
      <trkpt lat="45.28089" lon="0.44466">
        <ele>110</ele>
        <time>2016-02-17T14:34:33Z</time>
      </trkpt>
      <trkpt lat="45.28081" lon="0.44465">
        <ele>111</ele>
        <time>2016-02-17T14:34:36Z</time>
      </trkpt>
      <trkpt lat="45.28077" lon="0.44465">
        <ele>111.59997558594</ele>
        <time>2016-02-17T14:34:38Z</time>
      </trkpt>
      <trkpt lat="45.28072" lon="0.44464">
        <ele>112.20001220703</ele>
        <time>2016-02-17T14:34:40Z</time>
      </trkpt>
      <trkpt lat="45.28065" lon="0.44461">
        <ele>113.20001220703</ele>
        <time>2016-02-17T14:34:44Z</time>
      </trkpt>
      <trkpt lat="45.28062" lon="0.4446">
        <ele>113.40002441406</ele>
        <time>2016-02-17T14:34:45Z</time>
      </trkpt>
      <trkpt lat="45.28054" lon="0.44457">
        <ele>114.20001220703</ele>
        <time>2016-02-17T14:34:49Z</time>
      </trkpt>
      <trkpt lat="45.28044" lon="0.44455">
        <ele>115.20001220703</ele>
        <time>2016-02-17T14:34:54Z</time>
      </trkpt>
      <trkpt lat="45.28034" lon="0.44453">
        <ele>116.59997558594</ele>
        <time>2016-02-17T14:34:59Z</time>
      </trkpt>
      <trkpt lat="45.2803" lon="0.44453">
        <ele>117.40002441406</ele>
        <time>2016-02-17T14:35:01Z</time>
      </trkpt>
      <trkpt lat="45.28027" lon="0.44452">
        <ele>117.59997558594</ele>
        <time>2016-02-17T14:35:02Z</time>
      </trkpt>
      <trkpt lat="45.28018" lon="0.44453">
        <ele>118.79998779297</ele>
        <time>2016-02-17T14:35:06Z</time>
      </trkpt>
      <trkpt lat="45.28014" lon="0.44452">
        <ele>119.20001220703</ele>
        <time>2016-02-17T14:35:08Z</time>
      </trkpt>
      <trkpt lat="45.28009" lon="0.44452">
        <ele>119.79998779297</ele>
        <time>2016-02-17T14:35:10Z</time>
      </trkpt>
      <trkpt lat="45.28004" lon="0.44452">
        <ele>120.79998779297</ele>
        <time>2016-02-17T14:35:13Z</time>
      </trkpt>
      <trkpt lat="45.28" lon="0.44451">
        <ele>121.79998779297</ele>
        <time>2016-02-17T14:35:16Z</time>
      </trkpt>
      <trkpt lat="45.27999" lon="0.4445">
        <ele>122.20001220703</ele>
        <time>2016-02-17T14:35:17Z</time>
      </trkpt>
      <trkpt lat="45.27993" lon="0.44449">
        <ele>123.40002441406</ele>
        <time>2016-02-17T14:35:21Z</time>
      </trkpt>
      <trkpt lat="45.27991" lon="0.4445">
        <ele>123.79998779297</ele>
        <time>2016-02-17T14:35:23Z</time>
      </trkpt>
      <trkpt lat="45.27989" lon="0.44451">
        <ele>124.40002441406</ele>
        <time>2016-02-17T14:35:25Z</time>
      </trkpt>
      <trkpt lat="45.27984" lon="0.44451">
        <ele>125.59997558594</ele>
        <time>2016-02-17T14:35:30Z</time>
      </trkpt>
      <trkpt lat="45.27979" lon="0.4445">
        <ele>126.79998779297</ele>
        <time>2016-02-17T14:35:34Z</time>
      </trkpt>
      <trkpt lat="45.27976" lon="0.4445">
        <ele>127.40002441406</ele>
        <time>2016-02-17T14:35:36Z</time>
      </trkpt>
      <trkpt lat="45.27973" lon="0.4445">
        <ele>128</ele>
        <time>2016-02-17T14:35:38Z</time>
      </trkpt>
      <trkpt lat="45.27972" lon="0.4445">
        <ele>128.40002441406</ele>
        <time>2016-02-17T14:35:39Z</time>
      </trkpt>
      <trkpt lat="45.2797" lon="0.4445">
        <ele>128.79998779297</ele>
        <time>2016-02-17T14:35:41Z</time>
      </trkpt>
      <trkpt lat="45.27969" lon="0.4445">
        <ele>129</ele>
        <time>2016-02-17T14:35:42Z</time>
      </trkpt>
      <trkpt lat="45.27942" lon="0.44457">
        <ele>134.79998779297</ele>
        <time>2016-02-17T14:36:03Z</time>
      </trkpt>
      <trkpt lat="45.27921" lon="0.44473">
        <ele>138.20001220703</ele>
        <time>2016-02-17T14:36:18Z</time>
      </trkpt>
      <trkpt lat="45.27911" lon="0.4448">
        <ele>139.20001220703</ele>
        <time>2016-02-17T14:36:23Z</time>
      </trkpt>
      <trkpt lat="45.2791" lon="0.44482">
        <ele>139.40002441406</ele>
        <time>2016-02-17T14:36:24Z</time>
      </trkpt>
      <trkpt lat="45.27901" lon="0.44488">
        <ele>140.59997558594</ele>
        <time>2016-02-17T14:36:29Z</time>
      </trkpt>
      <trkpt lat="45.27899" lon="0.4449">
        <ele>141</ele>
        <time>2016-02-17T14:36:30Z</time>
      </trkpt>
      <trkpt lat="45.27895" lon="0.44492">
        <ele>141.59997558594</ele>
        <time>2016-02-17T14:36:32Z</time>
      </trkpt>
      <trkpt lat="45.2789" lon="0.44493">
        <ele>142.59997558594</ele>
        <time>2016-02-17T14:36:35Z</time>
      </trkpt>
      <trkpt lat="45.27888" lon="0.44494">
        <ele>143.20001220703</ele>
        <time>2016-02-17T14:36:36Z</time>
      </trkpt>
      <trkpt lat="45.27882" lon="0.44498">
        <ele>144.20001220703</ele>
        <time>2016-02-17T14:36:40Z</time>
      </trkpt>
      <trkpt lat="45.27876" lon="0.44504">
        <ele>144.79998779297</ele>
        <time>2016-02-17T14:36:43Z</time>
      </trkpt>
      <trkpt lat="45.27874" lon="0.44507">
        <ele>145.40002441406</ele>
        <time>2016-02-17T14:36:45Z</time>
      </trkpt>
      <trkpt lat="45.27871" lon="0.44514">
        <ele>146.59997558594</ele>
        <time>2016-02-17T14:36:49Z</time>
      </trkpt>
      <trkpt lat="45.27867" lon="0.4452">
        <ele>147.20001220703</ele>
        <time>2016-02-17T14:36:52Z</time>
      </trkpt>
      <trkpt lat="45.27866" lon="0.44522">
        <ele>147.59997558594</ele>
        <time>2016-02-17T14:36:53Z</time>
      </trkpt>
      <trkpt lat="45.27863" lon="0.44528">
        <ele>148.59997558594</ele>
        <time>2016-02-17T14:36:56Z</time>
      </trkpt>
      <trkpt lat="45.27863" lon="0.44532">
        <ele>149</ele>
        <time>2016-02-17T14:36:58Z</time>
      </trkpt>
      <trkpt lat="45.27862" lon="0.44536">
        <ele>149.79998779297</ele>
        <time>2016-02-17T14:37:00Z</time>
      </trkpt>
      <trkpt lat="45.27858" lon="0.44544">
        <ele>151</ele>
        <time>2016-02-17T14:37:05Z</time>
      </trkpt>
      <trkpt lat="45.27856" lon="0.44548">
        <ele>151.40002441406</ele>
        <time>2016-02-17T14:37:07Z</time>
      </trkpt>
      <trkpt lat="45.27853" lon="0.44556">
        <ele>152.20001220703</ele>
        <time>2016-02-17T14:37:11Z</time>
      </trkpt>
      <trkpt lat="45.27852" lon="0.44562">
        <ele>152.79998779297</ele>
        <time>2016-02-17T14:37:14Z</time>
      </trkpt>
      <trkpt lat="45.2785" lon="0.44567">
        <ele>153.20001220703</ele>
        <time>2016-02-17T14:37:16Z</time>
      </trkpt>
      <trkpt lat="45.27844" lon="0.44579">
        <ele>154.20001220703</ele>
        <time>2016-02-17T14:37:20Z</time>
      </trkpt>
      <trkpt lat="45.27843" lon="0.44583">
        <ele>154.40002441406</ele>
        <time>2016-02-17T14:37:21Z</time>
      </trkpt>
      <trkpt lat="45.2784" lon="0.44595">
        <ele>155.40002441406</ele>
        <time>2016-02-17T14:37:25Z</time>
      </trkpt>
      <trkpt lat="45.27839" lon="0.44599">
        <ele>155.59997558594</ele>
        <time>2016-02-17T14:37:26Z</time>
      </trkpt>
      <trkpt lat="45.27838" lon="0.44627">
        <ele>156.59997558594</ele>
        <time>2016-02-17T14:37:33Z</time>
      </trkpt>
      <trkpt lat="45.27838" lon="0.44658">
        <ele>157.20001220703</ele>
        <time>2016-02-17T14:37:40Z</time>
      </trkpt>
      <trkpt lat="45.27841" lon="0.44685">
        <ele>157.40002441406</ele>
        <time>2016-02-17T14:37:46Z</time>
      </trkpt>
      <trkpt lat="45.27851" lon="0.4472">
        <ele>156.59997558594</ele>
        <time>2016-02-17T14:37:53Z</time>
      </trkpt>
      <trkpt lat="45.2787" lon="0.44744">
        <ele>155.59997558594</ele>
        <time>2016-02-17T14:37:59Z</time>
      </trkpt>
      <trkpt lat="45.27872" lon="0.44747">
        <ele>155.40002441406</ele>
        <time>2016-02-17T14:38:00Z</time>
      </trkpt>
      <trkpt lat="45.2789" lon="0.44768">
        <ele>154.40002441406</ele>
        <time>2016-02-17T14:38:06Z</time>
      </trkpt>
      <trkpt lat="45.27892" lon="0.44774">
        <ele>154.40002441406</ele>
        <time>2016-02-17T14:38:08Z</time>
      </trkpt>
      <trkpt lat="45.27891" lon="0.44775">
        <ele>154.40002441406</ele>
        <time>2016-02-17T14:38:09Z</time>
      </trkpt>
      <trkpt lat="45.27889" lon="0.4478">
        <ele>154.20001220703</ele>
        <time>2016-02-17T14:38:11Z</time>
      </trkpt>
      <trkpt lat="45.27886" lon="0.44785">
        <ele>153.79998779297</ele>
        <time>2016-02-17T14:38:13Z</time>
      </trkpt>
      <trkpt lat="45.27881" lon="0.44787">
        <ele>153.20001220703</ele>
        <time>2016-02-17T14:38:15Z</time>
      </trkpt>
      <trkpt lat="45.2788" lon="0.4479">
        <ele>152.79998779297</ele>
        <time>2016-02-17T14:38:16Z</time>
      </trkpt>
      <trkpt lat="45.27878" lon="0.44796">
        <ele>152.20001220703</ele>
        <time>2016-02-17T14:38:18Z</time>
      </trkpt>
      <trkpt lat="45.27875" lon="0.44804">
        <ele>150.40002441406</ele>
        <time>2016-02-17T14:38:21Z</time>
      </trkpt>
      <trkpt lat="45.27876" lon="0.44811">
        <ele>149</ele>
        <time>2016-02-17T14:38:23Z</time>
      </trkpt>
      <trkpt lat="45.27877" lon="0.44813">
        <ele>148.20001220703</ele>
        <time>2016-02-17T14:38:24Z</time>
      </trkpt>
      <trkpt lat="45.27878" lon="0.44815">
        <ele>147.59997558594</ele>
        <time>2016-02-17T14:38:25Z</time>
      </trkpt>
      <trkpt lat="45.27878" lon="0.44819">
        <ele>146</ele>
        <time>2016-02-17T14:38:27Z</time>
      </trkpt>
      <trkpt lat="45.27878" lon="0.44822">
        <ele>145.40002441406</ele>
        <time>2016-02-17T14:38:28Z</time>
      </trkpt>
      <trkpt lat="45.27878" lon="0.44826">
        <ele>144.79998779297</ele>
        <time>2016-02-17T14:38:29Z</time>
      </trkpt>
      <trkpt lat="45.27877" lon="0.44832">
        <ele>143.59997558594</ele>
        <time>2016-02-17T14:38:31Z</time>
      </trkpt>
      <trkpt lat="45.27877" lon="0.44839">
        <ele>142.20001220703</ele>
        <time>2016-02-17T14:38:33Z</time>
      </trkpt>
      <trkpt lat="45.27877" lon="0.44846">
        <ele>140.40002441406</ele>
        <time>2016-02-17T14:38:35Z</time>
      </trkpt>
      <trkpt lat="45.27878" lon="0.44849">
        <ele>138.59997558594</ele>
        <time>2016-02-17T14:38:36Z</time>
      </trkpt>
      <trkpt lat="45.27879" lon="0.44855">
        <ele>137</ele>
        <time>2016-02-17T14:38:38Z</time>
      </trkpt>
      <trkpt lat="45.27884" lon="0.44863">
        <ele>136</ele>
        <time>2016-02-17T14:38:40Z</time>
      </trkpt>
      <trkpt lat="45.27889" lon="0.44871">
        <ele>134.59997558594</ele>
        <time>2016-02-17T14:38:42Z</time>
      </trkpt>
      <trkpt lat="45.27892" lon="0.44876">
        <ele>134</ele>
        <time>2016-02-17T14:38:43Z</time>
      </trkpt>
      <trkpt lat="45.27894" lon="0.44881">
        <ele>133.40002441406</ele>
        <time>2016-02-17T14:38:44Z</time>
      </trkpt>
      <trkpt lat="45.27897" lon="0.44886">
        <ele>133.20001220703</ele>
        <time>2016-02-17T14:38:45Z</time>
      </trkpt>
      <trkpt lat="45.27905" lon="0.44904">
        <ele>132.20001220703</ele>
        <time>2016-02-17T14:38:49Z</time>
      </trkpt>
      <trkpt lat="45.27906" lon="0.44908">
        <ele>131.40002441406</ele>
        <time>2016-02-17T14:38:50Z</time>
      </trkpt>
      <trkpt lat="45.27908" lon="0.44912">
        <ele>130.59997558594</ele>
        <time>2016-02-17T14:38:51Z</time>
      </trkpt>
      <trkpt lat="45.27917" lon="0.44925">
        <ele>129.59997558594</ele>
        <time>2016-02-17T14:38:54Z</time>
      </trkpt>
      <trkpt lat="45.2792" lon="0.44929">
        <ele>129.40002441406</ele>
        <time>2016-02-17T14:38:55Z</time>
      </trkpt>
      <trkpt lat="45.27938" lon="0.44955">
        <ele>129.79998779297</ele>
        <time>2016-02-17T14:39:02Z</time>
      </trkpt>
      <trkpt lat="45.2795" lon="0.4497">
        <ele>130.20001220703</ele>
        <time>2016-02-17T14:39:08Z</time>
      </trkpt>
      <trkpt lat="45.27953" lon="0.44973">
        <ele>130.59997558594</ele>
        <time>2016-02-17T14:39:10Z</time>
      </trkpt>
      <trkpt lat="45.27961" lon="0.44983">
        <ele>131.79998779297</ele>
        <time>2016-02-17T14:39:14Z</time>
      </trkpt>
      <trkpt lat="45.27968" lon="0.44995">
        <ele>132.79998779297</ele>
        <time>2016-02-17T14:39:19Z</time>
      </trkpt>
      <trkpt lat="45.2797" lon="0.44997">
        <ele>133</ele>
        <time>2016-02-17T14:39:20Z</time>
      </trkpt>
      <trkpt lat="45.27979" lon="0.45009">
        <ele>134</ele>
        <time>2016-02-17T14:39:25Z</time>
      </trkpt>
      <trkpt lat="45.2798" lon="0.45012">
        <ele>134.20001220703</ele>
        <time>2016-02-17T14:39:26Z</time>
      </trkpt>
      <trkpt lat="45.27987" lon="0.45036">
        <ele>134.40002441406</ele>
        <time>2016-02-17T14:39:32Z</time>
      </trkpt>
      <trkpt lat="45.27995" lon="0.45051">
        <ele>134.40002441406</ele>
        <time>2016-02-17T14:39:37Z</time>
      </trkpt>
      <trkpt lat="45.28008" lon="0.45078">
        <ele>137.20001220703</ele>
        <time>2016-02-17T14:40:38Z</time>
      </trkpt>
      <trkpt lat="45.2801" lon="0.4509">
        <ele>137.20001220703</ele>
        <time>2016-02-17T14:40:41Z</time>
      </trkpt>
      <trkpt lat="45.28009" lon="0.45103">
        <ele>137</ele>
        <time>2016-02-17T14:40:45Z</time>
      </trkpt>
      <trkpt lat="45.28007" lon="0.45108">
        <ele>137</ele>
        <time>2016-02-17T14:40:46Z</time>
      </trkpt>
      <trkpt lat="45.28004" lon="0.45126">
        <ele>136</ele>
        <time>2016-02-17T14:40:50Z</time>
      </trkpt>
      <trkpt lat="45.28" lon="0.45138">
        <ele>134.79998779297</ele>
        <time>2016-02-17T14:40:53Z</time>
      </trkpt>
      <trkpt lat="45.27998" lon="0.45141">
        <ele>134.59997558594</ele>
        <time>2016-02-17T14:40:54Z</time>
      </trkpt>
      <trkpt lat="45.27996" lon="0.45148">
        <ele>133.79998779297</ele>
        <time>2016-02-17T14:40:56Z</time>
      </trkpt>
      <trkpt lat="45.27994" lon="0.45157">
        <ele>133.20001220703</ele>
        <time>2016-02-17T14:40:58Z</time>
      </trkpt>
      <trkpt lat="45.27981" lon="0.45176">
        <ele>133.20001220703</ele>
        <time>2016-02-17T14:41:03Z</time>
      </trkpt>
      <trkpt lat="45.2798" lon="0.45182">
        <ele>133.40002441406</ele>
        <time>2016-02-17T14:41:05Z</time>
      </trkpt>
      <trkpt lat="45.27975" lon="0.45188">
        <ele>133.79998779297</ele>
        <time>2016-02-17T14:41:08Z</time>
      </trkpt>
      <trkpt lat="45.2797" lon="0.452">
        <ele>134.79998779297</ele>
        <time>2016-02-17T14:41:13Z</time>
      </trkpt>
      <trkpt lat="45.27969" lon="0.45205">
        <ele>135.59997558594</ele>
        <time>2016-02-17T14:41:15Z</time>
      </trkpt>
      <trkpt lat="45.27966" lon="0.45206">
        <ele>136.40002441406</ele>
        <time>2016-02-17T14:41:18Z</time>
      </trkpt>
      <trkpt lat="45.27962" lon="0.45204">
        <ele>137</ele>
        <time>2016-02-17T14:41:20Z</time>
      </trkpt>
      <trkpt lat="45.27957" lon="0.45203">
        <ele>137.59997558594</ele>
        <time>2016-02-17T14:41:23Z</time>
      </trkpt>
      <trkpt lat="45.27952" lon="0.45204">
        <ele>137.79998779297</ele>
        <time>2016-02-17T14:41:26Z</time>
      </trkpt>
      <trkpt lat="45.2795" lon="0.45204">
        <ele>138</ele>
        <time>2016-02-17T14:41:27Z</time>
      </trkpt>
      <trkpt lat="45.27919" lon="0.45178">
        <ele>138</ele>
        <time>2016-02-17T14:41:42Z</time>
      </trkpt>
      <trkpt lat="45.27914" lon="0.45173">
        <ele>138</ele>
        <time>2016-02-17T14:41:44Z</time>
      </trkpt>
      <trkpt lat="45.27906" lon="0.45168">
        <ele>137.79998779297</ele>
        <time>2016-02-17T14:41:47Z</time>
      </trkpt>
      <trkpt lat="45.279" lon="0.45165">
        <ele>137.20001220703</ele>
        <time>2016-02-17T14:41:50Z</time>
      </trkpt>
      <trkpt lat="45.27894" lon="0.4516">
        <ele>136.79998779297</ele>
        <time>2016-02-17T14:41:52Z</time>
      </trkpt>
      <trkpt lat="45.2789" lon="0.45155">
        <ele>136.79998779297</ele>
        <time>2016-02-17T14:41:53Z</time>
      </trkpt>
      <trkpt lat="45.27882" lon="0.45143">
        <ele>136</ele>
        <time>2016-02-17T14:41:56Z</time>
      </trkpt>
      <trkpt lat="45.27878" lon="0.45137">
        <ele>135.79998779297</ele>
        <time>2016-02-17T14:41:57Z</time>
      </trkpt>
      <trkpt lat="45.27859" lon="0.45115">
        <ele>135</ele>
        <time>2016-02-17T14:42:01Z</time>
      </trkpt>
      <trkpt lat="45.27853" lon="0.45111">
        <ele>134.79998779297</ele>
        <time>2016-02-17T14:42:02Z</time>
      </trkpt>
      <trkpt lat="45.27847" lon="0.45108">
        <ele>134.59997558594</ele>
        <time>2016-02-17T14:42:03Z</time>
      </trkpt>
      <trkpt lat="45.27841" lon="0.45105">
        <ele>134.20001220703</ele>
        <time>2016-02-17T14:42:04Z</time>
      </trkpt>
      <trkpt lat="45.27834" lon="0.45104">
        <ele>133.79998779297</ele>
        <time>2016-02-17T14:42:05Z</time>
      </trkpt>
      <trkpt lat="45.27827" lon="0.45103">
        <ele>133.40002441406</ele>
        <time>2016-02-17T14:42:06Z</time>
      </trkpt>
      <trkpt lat="45.27807" lon="0.4511">
        <ele>132</ele>
        <time>2016-02-17T14:42:09Z</time>
      </trkpt>
      <trkpt lat="45.27802" lon="0.45114">
        <ele>131.59997558594</ele>
        <time>2016-02-17T14:42:10Z</time>
      </trkpt>
      <trkpt lat="45.2779" lon="0.45117">
        <ele>131</ele>
        <time>2016-02-17T14:42:12Z</time>
      </trkpt>
      <trkpt lat="45.27785" lon="0.45119">
        <ele>130.59997558594</ele>
        <time>2016-02-17T14:42:13Z</time>
      </trkpt>
      <trkpt lat="45.27765" lon="0.45123">
        <ele>130.79998779297</ele>
        <time>2016-02-17T14:42:17Z</time>
      </trkpt>
      <trkpt lat="45.27729" lon="0.45138">
        <ele>132.20001220703</ele>
        <time>2016-02-17T14:42:25Z</time>
      </trkpt>
      <trkpt lat="45.27726" lon="0.4514">
        <ele>132.59997558594</ele>
        <time>2016-02-17T14:42:26Z</time>
      </trkpt>
      <trkpt lat="45.27719" lon="0.45145">
        <ele>133.59997558594</ele>
        <time>2016-02-17T14:42:29Z</time>
      </trkpt>
      <trkpt lat="45.27714" lon="0.45146">
        <ele>134.20001220703</ele>
        <time>2016-02-17T14:42:31Z</time>
      </trkpt>
      <trkpt lat="45.27706" lon="0.45143">
        <ele>134.79998779297</ele>
        <time>2016-02-17T14:42:33Z</time>
      </trkpt>
      <trkpt lat="45.27701" lon="0.45141">
        <ele>135</ele>
        <time>2016-02-17T14:42:34Z</time>
      </trkpt>
      <trkpt lat="45.27676" lon="0.45128">
        <ele>134.40002441406</ele>
        <time>2016-02-17T14:42:38Z</time>
      </trkpt>
      <trkpt lat="45.27666" lon="0.45121">
        <ele>133.40002441406</ele>
        <time>2016-02-17T14:42:40Z</time>
      </trkpt>
      <trkpt lat="45.27659" lon="0.45106">
        <ele>131.40002441406</ele>
        <time>2016-02-17T14:42:42Z</time>
      </trkpt>
      <trkpt lat="45.27658" lon="0.45096">
        <ele>130.20001220703</ele>
        <time>2016-02-17T14:42:43Z</time>
      </trkpt>
      <trkpt lat="45.27657" lon="0.45087">
        <ele>129.20001220703</ele>
        <time>2016-02-17T14:42:44Z</time>
      </trkpt>
      <trkpt lat="45.27652" lon="0.45079">
        <ele>128.20001220703</ele>
        <time>2016-02-17T14:42:45Z</time>
      </trkpt>
      <trkpt lat="45.27646" lon="0.45073">
        <ele>127.40002441406</ele>
        <time>2016-02-17T14:42:46Z</time>
      </trkpt>
      <trkpt lat="45.27639" lon="0.45067">
        <ele>126.40002441406</ele>
        <time>2016-02-17T14:42:47Z</time>
      </trkpt>
      <trkpt lat="45.27631" lon="0.45062">
        <ele>125.20001220703</ele>
        <time>2016-02-17T14:42:48Z</time>
      </trkpt>
      <trkpt lat="45.27623" lon="0.45057">
        <ele>124</ele>
        <time>2016-02-17T14:42:49Z</time>
      </trkpt>
      <trkpt lat="45.27613" lon="0.45053">
        <ele>122.59997558594</ele>
        <time>2016-02-17T14:42:50Z</time>
      </trkpt>
      <trkpt lat="45.27604" lon="0.45047">
        <ele>121.40002441406</ele>
        <time>2016-02-17T14:42:51Z</time>
      </trkpt>
      <trkpt lat="45.27596" lon="0.4504">
        <ele>120.20001220703</ele>
        <time>2016-02-17T14:42:52Z</time>
      </trkpt>
      <trkpt lat="45.27589" lon="0.45032">
        <ele>119</ele>
        <time>2016-02-17T14:42:53Z</time>
      </trkpt>
      <trkpt lat="45.27578" lon="0.45018">
        <ele>117.59997558594</ele>
        <time>2016-02-17T14:42:55Z</time>
      </trkpt>
      <trkpt lat="45.27573" lon="0.45012">
        <ele>116.59997558594</ele>
        <time>2016-02-17T14:42:56Z</time>
      </trkpt>
      <trkpt lat="45.27565" lon="0.45009">
        <ele>115.40002441406</ele>
        <time>2016-02-17T14:42:57Z</time>
      </trkpt>
      <trkpt lat="45.27557" lon="0.45009">
        <ele>113.79998779297</ele>
        <time>2016-02-17T14:42:58Z</time>
      </trkpt>
      <trkpt lat="45.27548" lon="0.45009">
        <ele>112.20001220703</ele>
        <time>2016-02-17T14:42:59Z</time>
      </trkpt>
      <trkpt lat="45.27537" lon="0.45007">
        <ele>110.40002441406</ele>
        <time>2016-02-17T14:43:00Z</time>
      </trkpt>
      <trkpt lat="45.27526" lon="0.45005">
        <ele>107.20001220703</ele>
        <time>2016-02-17T14:43:01Z</time>
      </trkpt>
      <trkpt lat="45.27517" lon="0.45004">
        <ele>106</ele>
        <time>2016-02-17T14:43:02Z</time>
      </trkpt>
      <trkpt lat="45.27512" lon="0.45006">
        <ele>105</ele>
        <time>2016-02-17T14:43:03Z</time>
      </trkpt>
      <trkpt lat="45.27507" lon="0.45007">
        <ele>103.79998779297</ele>
        <time>2016-02-17T14:43:04Z</time>
      </trkpt>
      <trkpt lat="45.27503" lon="0.45005">
        <ele>102.59997558594</ele>
        <time>2016-02-17T14:43:05Z</time>
      </trkpt>
      <trkpt lat="45.27501" lon="0.45">
        <ele>101.40002441406</ele>
        <time>2016-02-17T14:43:06Z</time>
      </trkpt>
      <trkpt lat="45.27502" lon="0.44994">
        <ele>100</ele>
        <time>2016-02-17T14:43:07Z</time>
      </trkpt>
      <trkpt lat="45.27502" lon="0.44988">
        <ele>98.799987792969</ele>
        <time>2016-02-17T14:43:08Z</time>
      </trkpt>
      <trkpt lat="45.27501" lon="0.44982">
        <ele>97.799987792969</ele>
        <time>2016-02-17T14:43:09Z</time>
      </trkpt>
      <trkpt lat="45.275" lon="0.44976">
        <ele>97.400024414062</ele>
        <time>2016-02-17T14:43:10Z</time>
      </trkpt>
      <trkpt lat="45.27497" lon="0.44963">
        <ele>96.799987792969</ele>
        <time>2016-02-17T14:43:12Z</time>
      </trkpt>
      <trkpt lat="45.27484" lon="0.44929">
        <ele>96.400024414062</ele>
        <time>2016-02-17T14:43:17Z</time>
      </trkpt>
      <trkpt lat="45.2748" lon="0.44916">
        <ele>96.200012207031</ele>
        <time>2016-02-17T14:43:19Z</time>
      </trkpt>
      <trkpt lat="45.27467" lon="0.44877">
        <ele>95.200012207031</ele>
        <time>2016-02-17T14:43:25Z</time>
      </trkpt>
      <trkpt lat="45.27444" lon="0.44817">
        <ele>94.400024414062</ele>
        <time>2016-02-17T14:43:34Z</time>
      </trkpt>
      <trkpt lat="45.27426" lon="0.44759">
        <ele>94.400024414062</ele>
        <time>2016-02-17T14:43:42Z</time>
      </trkpt>
      <trkpt lat="45.27409" lon="0.44686">
        <ele>94.400024414062</ele>
        <time>2016-02-17T14:43:52Z</time>
      </trkpt>
      <trkpt lat="45.27407" lon="0.44678">
        <ele>94.200012207031</ele>
        <time>2016-02-17T14:43:53Z</time>
      </trkpt>
      <trkpt lat="45.27396" lon="0.44628">
        <ele>93.599975585938</ele>
        <time>2016-02-17T14:44:00Z</time>
      </trkpt>
      <trkpt lat="45.27391" lon="0.44605">
        <ele>93.400024414062</ele>
        <time>2016-02-17T14:44:04Z</time>
      </trkpt>
      <trkpt lat="45.27388" lon="0.44602">
        <ele>93.200012207031</ele>
        <time>2016-02-17T14:44:05Z</time>
      </trkpt>
      <trkpt lat="45.27385" lon="0.44601">
        <ele>93</ele>
        <time>2016-02-17T14:44:06Z</time>
      </trkpt>
      <trkpt lat="45.27376" lon="0.44603">
        <ele>92.599975585938</ele>
        <time>2016-02-17T14:44:08Z</time>
      </trkpt>
      <trkpt lat="45.27372" lon="0.44604">
        <ele>92.200012207031</ele>
        <time>2016-02-17T14:44:09Z</time>
      </trkpt>
      <trkpt lat="45.27367" lon="0.44606">
        <ele>91.599975585938</ele>
        <time>2016-02-17T14:44:10Z</time>
      </trkpt>
      <trkpt lat="45.27355" lon="0.44612">
        <ele>90.200012207031</ele>
        <time>2016-02-17T14:44:13Z</time>
      </trkpt>
      <trkpt lat="45.27352" lon="0.44613">
        <ele>90</ele>
        <time>2016-02-17T14:44:14Z</time>
      </trkpt>
      <trkpt lat="45.27327" lon="0.44626">
        <ele>89.799987792969</ele>
        <time>2016-02-17T14:44:21Z</time>
      </trkpt>
      <trkpt lat="45.27311" lon="0.44635">
        <ele>90.400024414062</ele>
        <time>2016-02-17T14:44:27Z</time>
      </trkpt>
      <trkpt lat="45.27308" lon="0.44635">
        <ele>90.400024414062</ele>
        <time>2016-02-17T14:44:28Z</time>
      </trkpt>
      <trkpt lat="45.27305" lon="0.44631">
        <ele>90.799987792969</ele>
        <time>2016-02-17T14:44:30Z</time>
      </trkpt>
      <trkpt lat="45.27303" lon="0.44626">
        <ele>91.400024414062</ele>
        <time>2016-02-17T14:44:32Z</time>
      </trkpt>
      <trkpt lat="45.27298" lon="0.44613">
        <ele>92.599975585938</ele>
        <time>2016-02-17T14:44:36Z</time>
      </trkpt>
      <trkpt lat="45.2729" lon="0.44593">
        <ele>93.599975585938</ele>
        <time>2016-02-17T14:44:41Z</time>
      </trkpt>
      <trkpt lat="45.27286" lon="0.44581">
        <ele>93.799987792969</ele>
        <time>2016-02-17T14:44:44Z</time>
      </trkpt>
      <trkpt lat="45.27275" lon="0.44554">
        <ele>94</ele>
        <time>2016-02-17T14:44:51Z</time>
      </trkpt>
      <trkpt lat="45.27261" lon="0.44528">
        <ele>94</ele>
        <time>2016-02-17T14:44:58Z</time>
      </trkpt>
      <trkpt lat="45.2725" lon="0.44512">
        <ele>94.599975585938</ele>
        <time>2016-02-17T14:45:02Z</time>
      </trkpt>
      <trkpt lat="45.27245" lon="0.44506">
        <ele>95</ele>
        <time>2016-02-17T14:45:04Z</time>
      </trkpt>
      <trkpt lat="45.27239" lon="0.44507">
        <ele>95.599975585938</ele>
        <time>2016-02-17T14:45:06Z</time>
      </trkpt>
      <trkpt lat="45.27233" lon="0.4451">
        <ele>96.200012207031</ele>
        <time>2016-02-17T14:45:08Z</time>
      </trkpt>
      <trkpt lat="45.27231" lon="0.44513">
        <ele>96.400024414062</ele>
        <time>2016-02-17T14:45:09Z</time>
      </trkpt>
      <trkpt lat="45.27228" lon="0.44515">
        <ele>96.799987792969</ele>
        <time>2016-02-17T14:45:10Z</time>
      </trkpt>
      <trkpt lat="45.27219" lon="0.44521">
        <ele>97.799987792969</ele>
        <time>2016-02-17T14:45:14Z</time>
      </trkpt>
      <trkpt lat="45.27209" lon="0.44525">
        <ele>98.799987792969</ele>
        <time>2016-02-17T14:45:18Z</time>
      </trkpt>
      <trkpt lat="45.27207" lon="0.44527">
        <ele>99</ele>
        <time>2016-02-17T14:45:19Z</time>
      </trkpt>
      <trkpt lat="45.27201" lon="0.44543">
        <ele>100.20001220703</ele>
        <time>2016-02-17T14:45:25Z</time>
      </trkpt>
      <trkpt lat="45.27199" lon="0.44553">
        <ele>100.79998779297</ele>
        <time>2016-02-17T14:45:28Z</time>
      </trkpt>
      <trkpt lat="45.27196" lon="0.44561">
        <ele>101.40002441406</ele>
        <time>2016-02-17T14:45:31Z</time>
      </trkpt>
      <trkpt lat="45.27192" lon="0.44575">
        <ele>102.40002441406</ele>
        <time>2016-02-17T14:45:36Z</time>
      </trkpt>
      <trkpt lat="45.27191" lon="0.44579">
        <ele>102.59997558594</ele>
        <time>2016-02-17T14:45:37Z</time>
      </trkpt>
      <trkpt lat="45.27187" lon="0.44592">
        <ele>103.40002441406</ele>
        <time>2016-02-17T14:45:41Z</time>
      </trkpt>
      <trkpt lat="45.27185" lon="0.44599">
        <ele>103.59997558594</ele>
        <time>2016-02-17T14:45:43Z</time>
      </trkpt>
      <trkpt lat="45.27182" lon="0.44614">
        <ele>104.40002441406</ele>
        <time>2016-02-17T14:45:47Z</time>
      </trkpt>
      <trkpt lat="45.27182" lon="0.44617">
        <ele>104.59997558594</ele>
        <time>2016-02-17T14:45:48Z</time>
      </trkpt>
      <trkpt lat="45.27181" lon="0.44624">
        <ele>105.20001220703</ele>
        <time>2016-02-17T14:45:50Z</time>
      </trkpt>
      <trkpt lat="45.27181" lon="0.44627">
        <ele>105.40002441406</ele>
        <time>2016-02-17T14:45:51Z</time>
      </trkpt>
      <trkpt lat="45.27183" lon="0.44642">
        <ele>106.79998779297</ele>
        <time>2016-02-17T14:45:56Z</time>
      </trkpt>
      <trkpt lat="45.27184" lon="0.44644">
        <ele>107</ele>
        <time>2016-02-17T14:45:57Z</time>
      </trkpt>
      <trkpt lat="45.27184" lon="0.44647">
        <ele>107.20001220703</ele>
        <time>2016-02-17T14:45:58Z</time>
      </trkpt>
      <trkpt lat="45.27184" lon="0.44661">
        <ele>107.79998779297</ele>
        <time>2016-02-17T14:46:02Z</time>
      </trkpt>
      <trkpt lat="45.27176" lon="0.44705">
        <ele>112.79998779297</ele>
        <time>2016-02-17T14:46:21Z</time>
      </trkpt>
      <trkpt lat="45.27168" lon="0.4473">
        <ele>115.40002441406</ele>
        <time>2016-02-17T14:46:33Z</time>
      </trkpt>
      <trkpt lat="45.27168" lon="0.44735">
        <ele>115.79998779297</ele>
        <time>2016-02-17T14:46:35Z</time>
      </trkpt>
      <trkpt lat="45.27115" lon="0.44806">
        <ele>125.40002441406</ele>
        <time>2016-02-17T14:47:19Z</time>
      </trkpt>
      <trkpt lat="45.27112" lon="0.44807">
        <ele>125.59997558594</ele>
        <time>2016-02-17T14:47:21Z</time>
      </trkpt>
      <trkpt lat="45.27106" lon="0.44807">
        <ele>126.59997558594</ele>
        <time>2016-02-17T14:47:25Z</time>
      </trkpt>
      <trkpt lat="45.27098" lon="0.44809">
        <ele>127.40002441406</ele>
        <time>2016-02-17T14:47:29Z</time>
      </trkpt>
      <trkpt lat="45.27081" lon="0.44809">
        <ele>128.40002441406</ele>
        <time>2016-02-17T14:47:38Z</time>
      </trkpt>
      <trkpt lat="45.27077" lon="0.44808">
        <ele>128.40002441406</ele>
        <time>2016-02-17T14:47:40Z</time>
      </trkpt>
      <trkpt lat="45.27064" lon="0.44807">
        <ele>129.40002441406</ele>
        <time>2016-02-17T14:47:47Z</time>
      </trkpt>
      <trkpt lat="45.27053" lon="0.44808">
        <ele>130.59997558594</ele>
        <time>2016-02-17T14:47:53Z</time>
      </trkpt>
      <trkpt lat="45.2705" lon="0.4481">
        <ele>130.79998779297</ele>
        <time>2016-02-17T14:47:55Z</time>
      </trkpt>
      <trkpt lat="45.27044" lon="0.44816">
        <ele>131.59997558594</ele>
        <time>2016-02-17T14:47:59Z</time>
      </trkpt>
      <trkpt lat="45.27042" lon="0.44818">
        <ele>131.79998779297</ele>
        <time>2016-02-17T14:48:00Z</time>
      </trkpt>
      <trkpt lat="45.27038" lon="0.44821">
        <ele>132</ele>
        <time>2016-02-17T14:48:02Z</time>
      </trkpt>
      <trkpt lat="45.27022" lon="0.44838">
        <ele>133.79998779297</ele>
        <time>2016-02-17T14:48:13Z</time>
      </trkpt>
      <trkpt lat="45.27011" lon="0.44849">
        <ele>135</ele>
        <time>2016-02-17T14:48:20Z</time>
      </trkpt>
      <trkpt lat="45.26998" lon="0.44861">
        <ele>136.40002441406</ele>
        <time>2016-02-17T14:48:27Z</time>
      </trkpt>
      <trkpt lat="45.26991" lon="0.44869">
        <ele>137</ele>
        <time>2016-02-17T14:48:31Z</time>
      </trkpt>
      <trkpt lat="45.26985" lon="0.44876">
        <ele>137.40002441406</ele>
        <time>2016-02-17T14:48:34Z</time>
      </trkpt>
      <trkpt lat="45.26976" lon="0.44885">
        <ele>138.20001220703</ele>
        <time>2016-02-17T14:48:38Z</time>
      </trkpt>
      <trkpt lat="45.2697" lon="0.4489">
        <ele>138.59997558594</ele>
        <time>2016-02-17T14:48:41Z</time>
      </trkpt>
      <trkpt lat="45.26961" lon="0.44899">
        <ele>139.20001220703</ele>
        <time>2016-02-17T14:48:45Z</time>
      </trkpt>
      <trkpt lat="45.26957" lon="0.44903">
        <ele>139.59997558594</ele>
        <time>2016-02-17T14:48:47Z</time>
      </trkpt>
      <trkpt lat="45.26952" lon="0.44913">
        <ele>140.59997558594</ele>
        <time>2016-02-17T14:48:51Z</time>
      </trkpt>
      <trkpt lat="45.26951" lon="0.44914">
        <ele>140.59997558594</ele>
        <time>2016-02-17T14:48:52Z</time>
      </trkpt>
      <trkpt lat="45.26947" lon="0.4492">
        <ele>141.40002441406</ele>
        <time>2016-02-17T14:48:56Z</time>
      </trkpt>
      <trkpt lat="45.26945" lon="0.44921">
        <ele>141.59997558594</ele>
        <time>2016-02-17T14:48:57Z</time>
      </trkpt>
      <trkpt lat="45.2694" lon="0.44927">
        <ele>142</ele>
        <time>2016-02-17T14:49:01Z</time>
      </trkpt>
      <trkpt lat="45.26937" lon="0.44931">
        <ele>142.20001220703</ele>
        <time>2016-02-17T14:49:04Z</time>
      </trkpt>
      <trkpt lat="45.26926" lon="0.44945">
        <ele>143</ele>
        <time>2016-02-17T14:49:10Z</time>
      </trkpt>
      <trkpt lat="45.26924" lon="0.44948">
        <ele>143.20001220703</ele>
        <time>2016-02-17T14:49:11Z</time>
      </trkpt>
      <trkpt lat="45.26914" lon="0.44959">
        <ele>144.20001220703</ele>
        <time>2016-02-17T14:49:17Z</time>
      </trkpt>
      <trkpt lat="45.26902" lon="0.44972">
        <ele>145</ele>
        <time>2016-02-17T14:49:24Z</time>
      </trkpt>
      <trkpt lat="45.269" lon="0.44975">
        <ele>145.40002441406</ele>
        <time>2016-02-17T14:49:25Z</time>
      </trkpt>
      <trkpt lat="45.26887" lon="0.44991">
        <ele>146.20001220703</ele>
        <time>2016-02-17T14:49:30Z</time>
      </trkpt>
      <trkpt lat="45.26882" lon="0.44998">
        <ele>146.40002441406</ele>
        <time>2016-02-17T14:49:32Z</time>
      </trkpt>
      <trkpt lat="45.26874" lon="0.45007">
        <ele>146.79998779297</ele>
        <time>2016-02-17T14:49:36Z</time>
      </trkpt>
      <trkpt lat="45.26865" lon="0.4502">
        <ele>147.40002441406</ele>
        <time>2016-02-17T14:49:41Z</time>
      </trkpt>
      <trkpt lat="45.26862" lon="0.45024">
        <ele>147.59997558594</ele>
        <time>2016-02-17T14:49:43Z</time>
      </trkpt>
      <trkpt lat="45.26854" lon="0.45034">
        <ele>148.40002441406</ele>
        <time>2016-02-17T14:49:49Z</time>
      </trkpt>
      <trkpt lat="45.26852" lon="0.45035">
        <ele>148.59997558594</ele>
        <time>2016-02-17T14:49:50Z</time>
      </trkpt>
      <trkpt lat="45.26837" lon="0.4504">
        <ele>149.40002441406</ele>
        <time>2016-02-17T14:49:56Z</time>
      </trkpt>
      <trkpt lat="45.26834" lon="0.45041">
        <ele>149.59997558594</ele>
        <time>2016-02-17T14:49:57Z</time>
      </trkpt>
      <trkpt lat="45.26815" lon="0.45048">
        <ele>150.40002441406</ele>
        <time>2016-02-17T14:50:04Z</time>
      </trkpt>
      <trkpt lat="45.26812" lon="0.45049">
        <ele>150.59997558594</ele>
        <time>2016-02-17T14:50:05Z</time>
      </trkpt>
      <trkpt lat="45.26794" lon="0.45051">
        <ele>151.59997558594</ele>
        <time>2016-02-17T14:50:11Z</time>
      </trkpt>
      <trkpt lat="45.26791" lon="0.45051">
        <ele>151.79998779297</ele>
        <time>2016-02-17T14:50:12Z</time>
      </trkpt>
      <trkpt lat="45.26773" lon="0.45058">
        <ele>152.59997558594</ele>
        <time>2016-02-17T14:50:17Z</time>
      </trkpt>
      <trkpt lat="45.26768" lon="0.45063">
        <ele>152.79998779297</ele>
        <time>2016-02-17T14:50:18Z</time>
      </trkpt>
      <trkpt lat="45.26751" lon="0.45088">
        <ele>153.40002441406</ele>
        <time>2016-02-17T14:50:23Z</time>
      </trkpt>
      <trkpt lat="45.26739" lon="0.45103">
        <ele>154</ele>
        <time>2016-02-17T14:50:26Z</time>
      </trkpt>
      <trkpt lat="45.26725" lon="0.45118">
        <ele>154.20001220703</ele>
        <time>2016-02-17T14:50:30Z</time>
      </trkpt>
      <trkpt lat="45.26695" lon="0.45151">
        <ele>154.79998779297</ele>
        <time>2016-02-17T14:50:39Z</time>
      </trkpt>
      <trkpt lat="45.26688" lon="0.45157">
        <ele>155</ele>
        <time>2016-02-17T14:50:41Z</time>
      </trkpt>
      <trkpt lat="45.26664" lon="0.45179">
        <ele>155.59997558594</ele>
        <time>2016-02-17T14:50:48Z</time>
      </trkpt>
      <trkpt lat="45.26652" lon="0.45185">
        <ele>155.79998779297</ele>
        <time>2016-02-17T14:50:51Z</time>
      </trkpt>
      <trkpt lat="45.2664" lon="0.45194">
        <ele>156</ele>
        <time>2016-02-17T14:50:54Z</time>
      </trkpt>
      <trkpt lat="45.26611" lon="0.45213">
        <ele>156</ele>
        <time>2016-02-17T14:51:01Z</time>
      </trkpt>
      <trkpt lat="45.26594" lon="0.45223">
        <ele>156.40002441406</ele>
        <time>2016-02-17T14:51:05Z</time>
      </trkpt>
      <trkpt lat="45.26585" lon="0.45228">
        <ele>156.40002441406</ele>
        <time>2016-02-17T14:51:07Z</time>
      </trkpt>
      <trkpt lat="45.2658" lon="0.45231">
        <ele>156.59997558594</ele>
        <time>2016-02-17T14:51:08Z</time>
      </trkpt>
      <trkpt lat="45.26572" lon="0.45236">
        <ele>156.79998779297</ele>
        <time>2016-02-17T14:51:10Z</time>
      </trkpt>
      <trkpt lat="45.2656" lon="0.45243">
        <ele>157.20001220703</ele>
        <time>2016-02-17T14:51:13Z</time>
      </trkpt>
      <trkpt lat="45.26551" lon="0.45249">
        <ele>157.20001220703</ele>
        <time>2016-02-17T14:51:15Z</time>
      </trkpt>
      <trkpt lat="45.2653" lon="0.45262">
        <ele>157.20001220703</ele>
        <time>2016-02-17T14:51:20Z</time>
      </trkpt>
      <trkpt lat="45.26522" lon="0.45267">
        <ele>157.20001220703</ele>
        <time>2016-02-17T14:51:22Z</time>
      </trkpt>
      <trkpt lat="45.26509" lon="0.45274">
        <ele>157.59997558594</ele>
        <time>2016-02-17T14:51:25Z</time>
      </trkpt>
      <trkpt lat="45.26497" lon="0.45281">
        <ele>158.20001220703</ele>
        <time>2016-02-17T14:51:28Z</time>
      </trkpt>
      <trkpt lat="45.26492" lon="0.45284">
        <ele>158.40002441406</ele>
        <time>2016-02-17T14:51:29Z</time>
      </trkpt>
      <trkpt lat="45.2646" lon="0.45301">
        <ele>159.20001220703</ele>
        <time>2016-02-17T14:51:37Z</time>
      </trkpt>
      <trkpt lat="45.26456" lon="0.45301">
        <ele>159.40002441406</ele>
        <time>2016-02-17T14:51:38Z</time>
      </trkpt>
      <trkpt lat="45.2645" lon="0.45295">
        <ele>159.79998779297</ele>
        <time>2016-02-17T14:51:40Z</time>
      </trkpt>
      <trkpt lat="45.26446" lon="0.45279">
        <ele>160.40002441406</ele>
        <time>2016-02-17T14:51:43Z</time>
      </trkpt>
      <trkpt lat="45.26445" lon="0.45272">
        <ele>160.59997558594</ele>
        <time>2016-02-17T14:51:44Z</time>
      </trkpt>
      <trkpt lat="45.26439" lon="0.45232">
        <ele>160.40002441406</ele>
        <time>2016-02-17T14:51:49Z</time>
      </trkpt>
      <trkpt lat="45.26432" lon="0.45194">
        <ele>159.20001220703</ele>
        <time>2016-02-17T14:51:53Z</time>
      </trkpt>
      <trkpt lat="45.26427" lon="0.45165">
        <ele>158.20001220703</ele>
        <time>2016-02-17T14:51:56Z</time>
      </trkpt>
      <trkpt lat="45.2642" lon="0.45127">
        <ele>157.20001220703</ele>
        <time>2016-02-17T14:52:00Z</time>
      </trkpt>
      <trkpt lat="45.26415" lon="0.45099">
        <ele>156.40002441406</ele>
        <time>2016-02-17T14:52:03Z</time>
      </trkpt>
      <trkpt lat="45.26412" lon="0.45081">
        <ele>156</ele>
        <time>2016-02-17T14:52:05Z</time>
      </trkpt>
      <trkpt lat="45.26402" lon="0.45028">
        <ele>155</ele>
        <time>2016-02-17T14:52:11Z</time>
      </trkpt>
      <trkpt lat="45.26401" lon="0.45019">
        <ele>154.79998779297</ele>
        <time>2016-02-17T14:52:12Z</time>
      </trkpt>
      <trkpt lat="45.26392" lon="0.44965">
        <ele>154</ele>
        <time>2016-02-17T14:52:18Z</time>
      </trkpt>
      <trkpt lat="45.2639" lon="0.44958">
        <ele>154</ele>
        <time>2016-02-17T14:52:19Z</time>
      </trkpt>
      <trkpt lat="45.2638" lon="0.44952">
        <ele>153.59997558594</ele>
        <time>2016-02-17T14:52:21Z</time>
      </trkpt>
      <trkpt lat="45.26364" lon="0.44951">
        <ele>153.20001220703</ele>
        <time>2016-02-17T14:52:24Z</time>
      </trkpt>
      <trkpt lat="45.26358" lon="0.44951">
        <ele>152.79998779297</ele>
        <time>2016-02-17T14:52:25Z</time>
      </trkpt>
      <trkpt lat="45.26323" lon="0.4495">
        <ele>151.79998779297</ele>
        <time>2016-02-17T14:52:30Z</time>
      </trkpt>
      <trkpt lat="45.26317" lon="0.4495">
        <ele>151.40002441406</ele>
        <time>2016-02-17T14:52:31Z</time>
      </trkpt>
      <trkpt lat="45.26312" lon="0.44948">
        <ele>150.79998779297</ele>
        <time>2016-02-17T14:52:32Z</time>
      </trkpt>
      <trkpt lat="45.26308" lon="0.44942">
        <ele>149.79998779297</ele>
        <time>2016-02-17T14:52:33Z</time>
      </trkpt>
      <trkpt lat="45.26306" lon="0.44937">
        <ele>148.79998779297</ele>
        <time>2016-02-17T14:52:34Z</time>
      </trkpt>
      <trkpt lat="45.26305" lon="0.44932">
        <ele>147.40002441406</ele>
        <time>2016-02-17T14:52:35Z</time>
      </trkpt>
      <trkpt lat="45.26302" lon="0.4493">
        <ele>145.79998779297</ele>
        <time>2016-02-17T14:52:36Z</time>
      </trkpt>
      <trkpt lat="45.26299" lon="0.4493">
        <ele>144.20001220703</ele>
        <time>2016-02-17T14:52:37Z</time>
      </trkpt>
      <trkpt lat="45.26297" lon="0.44934">
        <ele>141.20001220703</ele>
        <time>2016-02-17T14:52:38Z</time>
      </trkpt>
      <trkpt lat="45.26294" lon="0.44939">
        <ele>139.79998779297</ele>
        <time>2016-02-17T14:52:39Z</time>
      </trkpt>
      <trkpt lat="45.26291" lon="0.44946">
        <ele>138.59997558594</ele>
        <time>2016-02-17T14:52:40Z</time>
      </trkpt>
      <trkpt lat="45.26287" lon="0.44954">
        <ele>137.59997558594</ele>
        <time>2016-02-17T14:52:41Z</time>
      </trkpt>
      <trkpt lat="45.2628" lon="0.44971">
        <ele>135.59997558594</ele>
        <time>2016-02-17T14:52:43Z</time>
      </trkpt>
      <trkpt lat="45.26278" lon="0.44979">
        <ele>134.40002441406</ele>
        <time>2016-02-17T14:52:44Z</time>
      </trkpt>
      <trkpt lat="45.26274" lon="0.44985">
        <ele>133</ele>
        <time>2016-02-17T14:52:45Z</time>
      </trkpt>
      <trkpt lat="45.26269" lon="0.4499">
        <ele>131.40002441406</ele>
        <time>2016-02-17T14:52:46Z</time>
      </trkpt>
      <trkpt lat="45.26265" lon="0.44995">
        <ele>129.79998779297</ele>
        <time>2016-02-17T14:52:47Z</time>
      </trkpt>
      <trkpt lat="45.26263" lon="0.45002">
        <ele>128.20001220703</ele>
        <time>2016-02-17T14:52:48Z</time>
      </trkpt>
      <trkpt lat="45.26261" lon="0.4501">
        <ele>126.40002441406</ele>
        <time>2016-02-17T14:52:49Z</time>
      </trkpt>
      <trkpt lat="45.2626" lon="0.45019">
        <ele>124.79998779297</ele>
        <time>2016-02-17T14:52:50Z</time>
      </trkpt>
      <trkpt lat="45.2626" lon="0.45027">
        <ele>123.40002441406</ele>
        <time>2016-02-17T14:52:51Z</time>
      </trkpt>
      <trkpt lat="45.2626" lon="0.45034">
        <ele>122.20001220703</ele>
        <time>2016-02-17T14:52:52Z</time>
      </trkpt>
      <trkpt lat="45.26261" lon="0.4504">
        <ele>121.20001220703</ele>
        <time>2016-02-17T14:52:53Z</time>
      </trkpt>
      <trkpt lat="45.26261" lon="0.45047">
        <ele>120.40002441406</ele>
        <time>2016-02-17T14:52:54Z</time>
      </trkpt>
      <trkpt lat="45.26262" lon="0.45054">
        <ele>120</ele>
        <time>2016-02-17T14:52:55Z</time>
      </trkpt>
      <trkpt lat="45.26259" lon="0.45076">
        <ele>119.40002441406</ele>
        <time>2016-02-17T14:52:59Z</time>
      </trkpt>
      <trkpt lat="45.26256" lon="0.45071">
        <ele>118.79998779297</ele>
        <time>2016-02-17T14:53:02Z</time>
      </trkpt>
      <trkpt lat="45.26253" lon="0.45065">
        <ele>115</ele>
        <time>2016-02-17T14:53:15Z</time>
      </trkpt>
      <trkpt lat="45.26252" lon="0.45063">
        <ele>115</ele>
        <time>2016-02-17T14:53:16Z</time>
      </trkpt>
      <trkpt lat="45.26247" lon="0.45054">
        <ele>114.40002441406</ele>
        <time>2016-02-17T14:53:19Z</time>
      </trkpt>
      <trkpt lat="45.26244" lon="0.45053">
        <ele>114.20001220703</ele>
        <time>2016-02-17T14:53:20Z</time>
      </trkpt>
      <trkpt lat="45.26242" lon="0.45054">
        <ele>113.59997558594</ele>
        <time>2016-02-17T14:53:21Z</time>
      </trkpt>
      <trkpt lat="45.26238" lon="0.45057">
        <ele>112.59997558594</ele>
        <time>2016-02-17T14:53:23Z</time>
      </trkpt>
      <trkpt lat="45.26237" lon="0.4506">
        <ele>112</ele>
        <time>2016-02-17T14:53:24Z</time>
      </trkpt>
      <trkpt lat="45.26235" lon="0.45066">
        <ele>111.20001220703</ele>
        <time>2016-02-17T14:53:26Z</time>
      </trkpt>
      <trkpt lat="45.2623" lon="0.45075">
        <ele>111</ele>
        <time>2016-02-17T14:53:28Z</time>
      </trkpt>
      <trkpt lat="45.26226" lon="0.45078">
        <ele>110.79998779297</ele>
        <time>2016-02-17T14:53:29Z</time>
      </trkpt>
      <trkpt lat="45.26218" lon="0.45083">
        <ele>110.40002441406</ele>
        <time>2016-02-17T14:53:31Z</time>
      </trkpt>
      <trkpt lat="45.26208" lon="0.45087">
        <ele>110</ele>
        <time>2016-02-17T14:53:33Z</time>
      </trkpt>
      <trkpt lat="45.26196" lon="0.4509">
        <ele>109.79998779297</ele>
        <time>2016-02-17T14:53:36Z</time>
      </trkpt>
      <trkpt lat="45.26183" lon="0.45095">
        <ele>109.59997558594</ele>
        <time>2016-02-17T14:53:41Z</time>
      </trkpt>
      <trkpt lat="45.2617" lon="0.45099">
        <ele>110.20001220703</ele>
        <time>2016-02-17T14:53:46Z</time>
      </trkpt>
      <trkpt lat="45.26162" lon="0.45101">
        <ele>111.40002441406</ele>
        <time>2016-02-17T14:53:50Z</time>
      </trkpt>
      <trkpt lat="45.2616" lon="0.451">
        <ele>111.59997558594</ele>
        <time>2016-02-17T14:53:51Z</time>
      </trkpt>
      <trkpt lat="45.26158" lon="0.45098">
        <ele>112</ele>
        <time>2016-02-17T14:53:52Z</time>
      </trkpt>
      <trkpt lat="45.26154" lon="0.45096">
        <ele>112.59997558594</ele>
        <time>2016-02-17T14:53:54Z</time>
      </trkpt>
      <trkpt lat="45.26151" lon="0.4509">
        <ele>113.59997558594</ele>
        <time>2016-02-17T14:53:57Z</time>
      </trkpt>
      <trkpt lat="45.2615" lon="0.45087">
        <ele>113.79998779297</ele>
        <time>2016-02-17T14:53:58Z</time>
      </trkpt>
      <trkpt lat="45.26149" lon="0.45081">
        <ele>114.59997558594</ele>
        <time>2016-02-17T14:54:00Z</time>
      </trkpt>
      <trkpt lat="45.26146" lon="0.4507">
        <ele>115.79998779297</ele>
        <time>2016-02-17T14:54:04Z</time>
      </trkpt>
      <trkpt lat="45.26141" lon="0.45054">
        <ele>116.79998779297</ele>
        <time>2016-02-17T14:54:09Z</time>
      </trkpt>
      <trkpt lat="45.26138" lon="0.45046">
        <ele>117.40002441406</ele>
        <time>2016-02-17T14:54:12Z</time>
      </trkpt>
      <trkpt lat="45.26135" lon="0.4504">
        <ele>118</ele>
        <time>2016-02-17T14:54:14Z</time>
      </trkpt>
      <trkpt lat="45.26131" lon="0.45032">
        <ele>118.59997558594</ele>
        <time>2016-02-17T14:54:17Z</time>
      </trkpt>
      <trkpt lat="45.26127" lon="0.45027">
        <ele>119</ele>
        <time>2016-02-17T14:54:19Z</time>
      </trkpt>
      <trkpt lat="45.26125" lon="0.45024">
        <ele>119.20001220703</ele>
        <time>2016-02-17T14:54:20Z</time>
      </trkpt>
      <trkpt lat="45.26119" lon="0.45014">
        <ele>120.40002441406</ele>
        <time>2016-02-17T14:54:24Z</time>
      </trkpt>
      <trkpt lat="45.26118" lon="0.45012">
        <ele>120.79998779297</ele>
        <time>2016-02-17T14:54:25Z</time>
      </trkpt>
      <trkpt lat="45.26113" lon="0.45001">
        <ele>121.59997558594</ele>
        <time>2016-02-17T14:54:28Z</time>
      </trkpt>
      <trkpt lat="45.26106" lon="0.4499">
        <ele>122.59997558594</ele>
        <time>2016-02-17T14:54:31Z</time>
      </trkpt>
      <trkpt lat="45.26104" lon="0.44986">
        <ele>123</ele>
        <time>2016-02-17T14:54:32Z</time>
      </trkpt>
      <trkpt lat="45.26098" lon="0.44975">
        <ele>124</ele>
        <time>2016-02-17T14:54:35Z</time>
      </trkpt>
      <trkpt lat="45.26093" lon="0.44966">
        <ele>125.59997558594</ele>
        <time>2016-02-17T14:54:38Z</time>
      </trkpt>
      <trkpt lat="45.26089" lon="0.44955">
        <ele>126.79998779297</ele>
        <time>2016-02-17T14:54:42Z</time>
      </trkpt>
      <trkpt lat="45.26086" lon="0.4495">
        <ele>127.59997558594</ele>
        <time>2016-02-17T14:54:45Z</time>
      </trkpt>
      <trkpt lat="45.26084" lon="0.44948">
        <ele>128</ele>
        <time>2016-02-17T14:54:46Z</time>
      </trkpt>
      <trkpt lat="45.26079" lon="0.44941">
        <ele>129</ele>
        <time>2016-02-17T14:54:50Z</time>
      </trkpt>
      <trkpt lat="45.26076" lon="0.44937">
        <ele>129.59997558594</ele>
        <time>2016-02-17T14:54:52Z</time>
      </trkpt>
      <trkpt lat="45.2607" lon="0.44931">
        <ele>130.20001220703</ele>
        <time>2016-02-17T14:54:56Z</time>
      </trkpt>
      <trkpt lat="45.26063" lon="0.44925">
        <ele>131.20001220703</ele>
        <time>2016-02-17T14:55:00Z</time>
      </trkpt>
      <trkpt lat="45.26061" lon="0.44924">
        <ele>131.40002441406</ele>
        <time>2016-02-17T14:55:01Z</time>
      </trkpt>
      <trkpt lat="45.26048" lon="0.44916">
        <ele>132.20001220703</ele>
        <time>2016-02-17T14:55:07Z</time>
      </trkpt>
      <trkpt lat="45.26044" lon="0.44914">
        <ele>132.59997558594</ele>
        <time>2016-02-17T14:55:09Z</time>
      </trkpt>
      <trkpt lat="45.26033" lon="0.44911">
        <ele>133.40002441406</ele>
        <time>2016-02-17T14:55:14Z</time>
      </trkpt>
      <trkpt lat="45.26031" lon="0.44911">
        <ele>133.59997558594</ele>
        <time>2016-02-17T14:55:15Z</time>
      </trkpt>
      <trkpt lat="45.26023" lon="0.44912">
        <ele>134.59997558594</ele>
        <time>2016-02-17T14:55:19Z</time>
      </trkpt>
      <trkpt lat="45.26022" lon="0.44912">
        <ele>134.79998779297</ele>
        <time>2016-02-17T14:55:20Z</time>
      </trkpt>
      <trkpt lat="45.2601" lon="0.44916">
        <ele>136</ele>
        <time>2016-02-17T14:55:25Z</time>
      </trkpt>
      <trkpt lat="45.26003" lon="0.44915">
        <ele>137</ele>
        <time>2016-02-17T14:55:28Z</time>
      </trkpt>
      <trkpt lat="45.25993" lon="0.44914">
        <ele>138</ele>
        <time>2016-02-17T14:55:32Z</time>
      </trkpt>
      <trkpt lat="45.25991" lon="0.44913">
        <ele>138.20001220703</ele>
        <time>2016-02-17T14:55:33Z</time>
      </trkpt>
      <trkpt lat="45.25981" lon="0.44916">
        <ele>139</ele>
        <time>2016-02-17T14:55:38Z</time>
      </trkpt>
      <trkpt lat="45.25979" lon="0.44921">
        <ele>139.20001220703</ele>
        <time>2016-02-17T14:55:40Z</time>
      </trkpt>
      <trkpt lat="45.25978" lon="0.44928">
        <ele>139.40002441406</ele>
        <time>2016-02-17T14:55:42Z</time>
      </trkpt>
      <trkpt lat="45.25978" lon="0.44931">
        <ele>139.40002441406</ele>
        <time>2016-02-17T14:55:43Z</time>
      </trkpt>
      <trkpt lat="45.25982" lon="0.44959">
        <ele>140</ele>
        <time>2016-02-17T14:55:51Z</time>
      </trkpt>
      <trkpt lat="45.25983" lon="0.44965">
        <ele>140.20001220703</ele>
        <time>2016-02-17T14:55:53Z</time>
      </trkpt>
      <trkpt lat="45.25987" lon="0.44977">
        <ele>141</ele>
        <time>2016-02-17T14:55:57Z</time>
      </trkpt>
      <trkpt lat="45.25988" lon="0.44983">
        <ele>141.40002441406</ele>
        <time>2016-02-17T14:55:59Z</time>
      </trkpt>
      <trkpt lat="45.2599" lon="0.44996">
        <ele>142</ele>
        <time>2016-02-17T14:56:03Z</time>
      </trkpt>
      <trkpt lat="45.25992" lon="0.45006">
        <ele>142.59997558594</ele>
        <time>2016-02-17T14:56:06Z</time>
      </trkpt>
      <trkpt lat="45.25995" lon="0.45026">
        <ele>143.59997558594</ele>
        <time>2016-02-17T14:56:12Z</time>
      </trkpt>
      <trkpt lat="45.25995" lon="0.4503">
        <ele>143.59997558594</ele>
        <time>2016-02-17T14:56:13Z</time>
      </trkpt>
      <trkpt lat="45.25998" lon="0.45052">
        <ele>144.59997558594</ele>
        <time>2016-02-17T14:56:20Z</time>
      </trkpt>
      <trkpt lat="45.25998" lon="0.45072">
        <ele>145.79998779297</ele>
        <time>2016-02-17T14:56:26Z</time>
      </trkpt>
      <trkpt lat="45.25998" lon="0.45079">
        <ele>146.40002441406</ele>
        <time>2016-02-17T14:56:28Z</time>
      </trkpt>
      <trkpt lat="45.25997" lon="0.45094">
        <ele>147</ele>
        <time>2016-02-17T14:56:32Z</time>
      </trkpt>
      <trkpt lat="45.25997" lon="0.45107">
        <ele>147.40002441406</ele>
        <time>2016-02-17T14:56:35Z</time>
      </trkpt>
      <trkpt lat="45.26" lon="0.45127">
        <ele>148.20001220703</ele>
        <time>2016-02-17T14:56:40Z</time>
      </trkpt>
      <trkpt lat="45.26002" lon="0.45135">
        <ele>148.40002441406</ele>
        <time>2016-02-17T14:56:42Z</time>
      </trkpt>
      <trkpt lat="45.26006" lon="0.45154">
        <ele>149.20001220703</ele>
        <time>2016-02-17T14:56:47Z</time>
      </trkpt>
      <trkpt lat="45.26009" lon="0.45176">
        <ele>150</ele>
        <time>2016-02-17T14:56:52Z</time>
      </trkpt>
      <trkpt lat="45.26011" lon="0.45184">
        <ele>150.40002441406</ele>
        <time>2016-02-17T14:56:54Z</time>
      </trkpt>
      <trkpt lat="45.26019" lon="0.4522">
        <ele>151.20001220703</ele>
        <time>2016-02-17T14:57:02Z</time>
      </trkpt>
      <trkpt lat="45.26021" lon="0.45229">
        <ele>151.40002441406</ele>
        <time>2016-02-17T14:57:04Z</time>
      </trkpt>
      <trkpt lat="45.2603" lon="0.45263">
        <ele>152.20001220703</ele>
        <time>2016-02-17T14:57:11Z</time>
      </trkpt>
      <trkpt lat="45.26035" lon="0.45278">
        <ele>152.40002441406</ele>
        <time>2016-02-17T14:57:14Z</time>
      </trkpt>
      <trkpt lat="45.26044" lon="0.45303">
        <ele>152.59997558594</ele>
        <time>2016-02-17T14:57:19Z</time>
      </trkpt>
      <trkpt lat="45.26058" lon="0.45339">
        <ele>153.40002441406</ele>
        <time>2016-02-17T14:57:26Z</time>
      </trkpt>
      <trkpt lat="45.2606" lon="0.45344">
        <ele>153.59997558594</ele>
        <time>2016-02-17T14:57:27Z</time>
      </trkpt>
      <trkpt lat="45.26067" lon="0.45359">
        <ele>153.79998779297</ele>
        <time>2016-02-17T14:57:30Z</time>
      </trkpt>
      <trkpt lat="45.26076" lon="0.45378">
        <ele>154.40002441406</ele>
        <time>2016-02-17T14:57:34Z</time>
      </trkpt>
      <trkpt lat="45.26078" lon="0.45383">
        <ele>154.59997558594</ele>
        <time>2016-02-17T14:57:35Z</time>
      </trkpt>
      <trkpt lat="45.26091" lon="0.4541">
        <ele>155.59997558594</ele>
        <time>2016-02-17T14:57:41Z</time>
      </trkpt>
      <trkpt lat="45.26093" lon="0.45414">
        <ele>155.79998779297</ele>
        <time>2016-02-17T14:57:42Z</time>
      </trkpt>
      <trkpt lat="45.26097" lon="0.45428">
        <ele>156.20001220703</ele>
        <time>2016-02-17T14:57:46Z</time>
      </trkpt>
      <trkpt lat="45.26097" lon="0.4543">
        <ele>156.40002441406</ele>
        <time>2016-02-17T14:57:47Z</time>
      </trkpt>
      <trkpt lat="45.26095" lon="0.45438">
        <ele>156.79998779297</ele>
        <time>2016-02-17T14:57:50Z</time>
      </trkpt>
      <trkpt lat="45.26092" lon="0.4545">
        <ele>157</ele>
        <time>2016-02-17T14:57:53Z</time>
      </trkpt>
      <trkpt lat="45.26091" lon="0.4546">
        <ele>157.20001220703</ele>
        <time>2016-02-17T14:57:55Z</time>
      </trkpt>
      <trkpt lat="45.26087" lon="0.45481">
        <ele>157.20001220703</ele>
        <time>2016-02-17T14:57:58Z</time>
      </trkpt>
      <trkpt lat="45.26082" lon="0.45514">
        <ele>156.79998779297</ele>
        <time>2016-02-17T14:58:02Z</time>
      </trkpt>
      <trkpt lat="45.2608" lon="0.45531">
        <ele>156.59997558594</ele>
        <time>2016-02-17T14:58:04Z</time>
      </trkpt>
      <trkpt lat="45.2607" lon="0.45561">
        <ele>155.79998779297</ele>
        <time>2016-02-17T14:58:08Z</time>
      </trkpt>
      <trkpt lat="45.26068" lon="0.45566">
        <ele>155.59997558594</ele>
        <time>2016-02-17T14:58:09Z</time>
      </trkpt>
      <trkpt lat="45.26063" lon="0.45579">
        <ele>154.79998779297</ele>
        <time>2016-02-17T14:58:11Z</time>
      </trkpt>
      <trkpt lat="45.2606" lon="0.45583">
        <ele>154.40002441406</ele>
        <time>2016-02-17T14:58:12Z</time>
      </trkpt>
      <trkpt lat="45.26053" lon="0.45594">
        <ele>153</ele>
        <time>2016-02-17T14:58:14Z</time>
      </trkpt>
      <trkpt lat="45.26051" lon="0.45601">
        <ele>152.79998779297</ele>
        <time>2016-02-17T14:58:15Z</time>
      </trkpt>
      <trkpt lat="45.26049" lon="0.45624">
        <ele>152.20001220703</ele>
        <time>2016-02-17T14:58:19Z</time>
      </trkpt>
      <trkpt lat="45.26052" lon="0.4564">
        <ele>152</ele>
        <time>2016-02-17T14:58:22Z</time>
      </trkpt>
      <trkpt lat="45.26054" lon="0.45645">
        <ele>152</ele>
        <time>2016-02-17T14:58:23Z</time>
      </trkpt>
      <trkpt lat="45.26066" lon="0.4567">
        <ele>152.59997558594</ele>
        <time>2016-02-17T14:58:29Z</time>
      </trkpt>
      <trkpt lat="45.26066" lon="0.45692">
        <ele>153</ele>
        <time>2016-02-17T14:58:32Z</time>
      </trkpt>
      <trkpt lat="45.26066" lon="0.45701">
        <ele>153.20001220703</ele>
        <time>2016-02-17T14:58:33Z</time>
      </trkpt>
      <trkpt lat="45.26065" lon="0.45711">
        <ele>153</ele>
        <time>2016-02-17T14:58:34Z</time>
      </trkpt>
      <trkpt lat="45.26062" lon="0.45741">
        <ele>152.20001220703</ele>
        <time>2016-02-17T14:58:37Z</time>
      </trkpt>
      <trkpt lat="45.26061" lon="0.45751">
        <ele>151.20001220703</ele>
        <time>2016-02-17T14:58:38Z</time>
      </trkpt>
      <trkpt lat="45.26058" lon="0.45771">
        <ele>150</ele>
        <time>2016-02-17T14:58:40Z</time>
      </trkpt>
      <trkpt lat="45.26053" lon="0.45798">
        <ele>149</ele>
        <time>2016-02-17T14:58:43Z</time>
      </trkpt>
      <trkpt lat="45.26051" lon="0.45806">
        <ele>148.79998779297</ele>
        <time>2016-02-17T14:58:44Z</time>
      </trkpt>
      <trkpt lat="45.26046" lon="0.45828">
        <ele>148</ele>
        <time>2016-02-17T14:58:47Z</time>
      </trkpt>
      <trkpt lat="45.26046" lon="0.45834">
        <ele>147.79998779297</ele>
        <time>2016-02-17T14:58:48Z</time>
      </trkpt>
      <trkpt lat="45.26047" lon="0.45854">
        <ele>147.40002441406</ele>
        <time>2016-02-17T14:58:51Z</time>
      </trkpt>
      <trkpt lat="45.26049" lon="0.45858">
        <ele>147.40002441406</ele>
        <time>2016-02-17T14:58:52Z</time>
      </trkpt>
      <trkpt lat="45.26057" lon="0.45873">
        <ele>147.40002441406</ele>
        <time>2016-02-17T14:58:55Z</time>
      </trkpt>
      <trkpt lat="45.26061" lon="0.4588">
        <ele>147.20001220703</ele>
        <time>2016-02-17T14:58:56Z</time>
      </trkpt>
      <trkpt lat="45.26063" lon="0.45888">
        <ele>147.20001220703</ele>
        <time>2016-02-17T14:58:57Z</time>
      </trkpt>
      <trkpt lat="45.26068" lon="0.45904">
        <ele>146.40002441406</ele>
        <time>2016-02-17T14:58:59Z</time>
      </trkpt>
      <trkpt lat="45.26071" lon="0.45911">
        <ele>145.79998779297</ele>
        <time>2016-02-17T14:59:00Z</time>
      </trkpt>
      <trkpt lat="45.26075" lon="0.45919">
        <ele>145.20001220703</ele>
        <time>2016-02-17T14:59:01Z</time>
      </trkpt>
      <trkpt lat="45.26079" lon="0.45927">
        <ele>143.59997558594</ele>
        <time>2016-02-17T14:59:02Z</time>
      </trkpt>
      <trkpt lat="45.26082" lon="0.45935">
        <ele>142.59997558594</ele>
        <time>2016-02-17T14:59:03Z</time>
      </trkpt>
      <trkpt lat="45.26086" lon="0.45942">
        <ele>141.59997558594</ele>
        <time>2016-02-17T14:59:04Z</time>
      </trkpt>
      <trkpt lat="45.2609" lon="0.4595">
        <ele>140.40002441406</ele>
        <time>2016-02-17T14:59:05Z</time>
      </trkpt>
      <trkpt lat="45.26094" lon="0.45957">
        <ele>139.40002441406</ele>
        <time>2016-02-17T14:59:06Z</time>
      </trkpt>
      <trkpt lat="45.26098" lon="0.45965">
        <ele>138.20001220703</ele>
        <time>2016-02-17T14:59:07Z</time>
      </trkpt>
      <trkpt lat="45.26101" lon="0.45974">
        <ele>136.79998779297</ele>
        <time>2016-02-17T14:59:08Z</time>
      </trkpt>
      <trkpt lat="45.26104" lon="0.45984">
        <ele>135.59997558594</ele>
        <time>2016-02-17T14:59:09Z</time>
      </trkpt>
      <trkpt lat="45.26107" lon="0.45994">
        <ele>134.20001220703</ele>
        <time>2016-02-17T14:59:10Z</time>
      </trkpt>
      <trkpt lat="45.26109" lon="0.46005">
        <ele>133</ele>
        <time>2016-02-17T14:59:11Z</time>
      </trkpt>
      <trkpt lat="45.26111" lon="0.46015">
        <ele>131.79998779297</ele>
        <time>2016-02-17T14:59:12Z</time>
      </trkpt>
      <trkpt lat="45.26114" lon="0.46026">
        <ele>130.59997558594</ele>
        <time>2016-02-17T14:59:13Z</time>
      </trkpt>
      <trkpt lat="45.26116" lon="0.46035">
        <ele>129.79998779297</ele>
        <time>2016-02-17T14:59:14Z</time>
      </trkpt>
      <trkpt lat="45.26117" lon="0.46045">
        <ele>129</ele>
        <time>2016-02-17T14:59:15Z</time>
      </trkpt>
      <trkpt lat="45.2612" lon="0.46061">
        <ele>127.59997558594</ele>
        <time>2016-02-17T14:59:17Z</time>
      </trkpt>
      <trkpt lat="45.26124" lon="0.46069">
        <ele>126.79998779297</ele>
        <time>2016-02-17T14:59:18Z</time>
      </trkpt>
      <trkpt lat="45.26129" lon="0.46077">
        <ele>126</ele>
        <time>2016-02-17T14:59:19Z</time>
      </trkpt>
      <trkpt lat="45.26139" lon="0.46095">
        <ele>124.20001220703</ele>
        <time>2016-02-17T14:59:21Z</time>
      </trkpt>
      <trkpt lat="45.26144" lon="0.46105">
        <ele>123.40002441406</ele>
        <time>2016-02-17T14:59:22Z</time>
      </trkpt>
      <trkpt lat="45.26149" lon="0.46115">
        <ele>122.59997558594</ele>
        <time>2016-02-17T14:59:23Z</time>
      </trkpt>
      <trkpt lat="45.2616" lon="0.46136">
        <ele>121.40002441406</ele>
        <time>2016-02-17T14:59:25Z</time>
      </trkpt>
      <trkpt lat="45.26165" lon="0.46147">
        <ele>120.20001220703</ele>
        <time>2016-02-17T14:59:26Z</time>
      </trkpt>
      <trkpt lat="45.26175" lon="0.46169">
        <ele>118.40002441406</ele>
        <time>2016-02-17T14:59:28Z</time>
      </trkpt>
      <trkpt lat="45.2618" lon="0.46179">
        <ele>117.59997558594</ele>
        <time>2016-02-17T14:59:29Z</time>
      </trkpt>
      <trkpt lat="45.26185" lon="0.4619">
        <ele>116.40002441406</ele>
        <time>2016-02-17T14:59:30Z</time>
      </trkpt>
      <trkpt lat="45.26191" lon="0.46199">
        <ele>115.20001220703</ele>
        <time>2016-02-17T14:59:31Z</time>
      </trkpt>
      <trkpt lat="45.26196" lon="0.4621">
        <ele>114</ele>
        <time>2016-02-17T14:59:32Z</time>
      </trkpt>
      <trkpt lat="45.26202" lon="0.4622">
        <ele>113</ele>
        <time>2016-02-17T14:59:33Z</time>
      </trkpt>
      <trkpt lat="45.26208" lon="0.46231">
        <ele>111.79998779297</ele>
        <time>2016-02-17T14:59:34Z</time>
      </trkpt>
      <trkpt lat="45.26215" lon="0.46241">
        <ele>110.59997558594</ele>
        <time>2016-02-17T14:59:35Z</time>
      </trkpt>
      <trkpt lat="45.26221" lon="0.46251">
        <ele>109.20001220703</ele>
        <time>2016-02-17T14:59:36Z</time>
      </trkpt>
      <trkpt lat="45.26227" lon="0.46262">
        <ele>107.79998779297</ele>
        <time>2016-02-17T14:59:37Z</time>
      </trkpt>
      <trkpt lat="45.26232" lon="0.46272">
        <ele>106.20001220703</ele>
        <time>2016-02-17T14:59:38Z</time>
      </trkpt>
      <trkpt lat="45.26238" lon="0.46282">
        <ele>104.59997558594</ele>
        <time>2016-02-17T14:59:39Z</time>
      </trkpt>
      <trkpt lat="45.26243" lon="0.46291">
        <ele>103.20001220703</ele>
        <time>2016-02-17T14:59:40Z</time>
      </trkpt>
      <trkpt lat="45.26247" lon="0.46297">
        <ele>102</ele>
        <time>2016-02-17T14:59:41Z</time>
      </trkpt>
      <trkpt lat="45.2625" lon="0.46302">
        <ele>101</ele>
        <time>2016-02-17T14:59:42Z</time>
      </trkpt>
      <trkpt lat="45.26253" lon="0.46306">
        <ele>100.40002441406</ele>
        <time>2016-02-17T14:59:43Z</time>
      </trkpt>
      <trkpt lat="45.26259" lon="0.46313">
        <ele>99</ele>
        <time>2016-02-17T14:59:45Z</time>
      </trkpt>
      <trkpt lat="45.26261" lon="0.46315">
        <ele>98.400024414062</ele>
        <time>2016-02-17T14:59:46Z</time>
      </trkpt>
      <trkpt lat="45.26264" lon="0.46317">
        <ele>98</ele>
        <time>2016-02-17T14:59:47Z</time>
      </trkpt>
      <trkpt lat="45.26266" lon="0.46319">
        <ele>97.799987792969</ele>
        <time>2016-02-17T14:59:48Z</time>
      </trkpt>
      <trkpt lat="45.26274" lon="0.4633">
        <ele>98.599975585938</ele>
        <time>2016-02-17T14:59:53Z</time>
      </trkpt>
      <trkpt lat="45.26275" lon="0.46332">
        <ele>98.799987792969</ele>
        <time>2016-02-17T14:59:54Z</time>
      </trkpt>
      <trkpt lat="45.2628" lon="0.46338">
        <ele>100</ele>
        <time>2016-02-17T14:59:58Z</time>
      </trkpt>
      <trkpt lat="45.26282" lon="0.4634">
        <ele>100.40002441406</ele>
        <time>2016-02-17T14:59:59Z</time>
      </trkpt>
      <trkpt lat="45.26285" lon="0.46344">
        <ele>101</ele>
        <time>2016-02-17T15:00:01Z</time>
      </trkpt>
      <trkpt lat="45.26289" lon="0.46349">
        <ele>102</ele>
        <time>2016-02-17T15:00:04Z</time>
      </trkpt>
      <trkpt lat="45.26292" lon="0.46353">
        <ele>103.20001220703</ele>
        <time>2016-02-17T15:00:07Z</time>
      </trkpt>
      <trkpt lat="45.26296" lon="0.46358">
        <ele>104.40002441406</ele>
        <time>2016-02-17T15:00:10Z</time>
      </trkpt>
      <trkpt lat="45.263" lon="0.46363">
        <ele>105.59997558594</ele>
        <time>2016-02-17T15:00:13Z</time>
      </trkpt>
      <trkpt lat="45.26302" lon="0.46365">
        <ele>106.40002441406</ele>
        <time>2016-02-17T15:00:14Z</time>
      </trkpt>
      <trkpt lat="45.26303" lon="0.46367">
        <ele>106.59997558594</ele>
        <time>2016-02-17T15:00:15Z</time>
      </trkpt>
      <trkpt lat="45.26308" lon="0.46372">
        <ele>108</ele>
        <time>2016-02-17T15:00:18Z</time>
      </trkpt>
      <trkpt lat="45.2631" lon="0.46375">
        <ele>108.59997558594</ele>
        <time>2016-02-17T15:00:20Z</time>
      </trkpt>
      <trkpt lat="45.26312" lon="0.46376">
        <ele>109</ele>
        <time>2016-02-17T15:00:21Z</time>
      </trkpt>
      <trkpt lat="45.26316" lon="0.46384">
        <ele>110.40002441406</ele>
        <time>2016-02-17T15:00:25Z</time>
      </trkpt>
      <trkpt lat="45.26319" lon="0.46387">
        <ele>111</ele>
        <time>2016-02-17T15:00:27Z</time>
      </trkpt>
      <trkpt lat="45.26322" lon="0.4639">
        <ele>111.59997558594</ele>
        <time>2016-02-17T15:00:29Z</time>
      </trkpt>
      <trkpt lat="45.26323" lon="0.46391">
        <ele>111.79998779297</ele>
        <time>2016-02-17T15:00:30Z</time>
      </trkpt>
      <trkpt lat="45.26327" lon="0.46397">
        <ele>112.79998779297</ele>
        <time>2016-02-17T15:00:33Z</time>
      </trkpt>
      <trkpt lat="45.26332" lon="0.46404">
        <ele>114</ele>
        <time>2016-02-17T15:00:37Z</time>
      </trkpt>
      <trkpt lat="45.26335" lon="0.46408">
        <ele>115.40002441406</ele>
        <time>2016-02-17T15:00:40Z</time>
      </trkpt>
      <trkpt lat="45.26338" lon="0.46415">
        <ele>116.59997558594</ele>
        <time>2016-02-17T15:00:44Z</time>
      </trkpt>
      <trkpt lat="45.2634" lon="0.46422">
        <ele>117.40002441406</ele>
        <time>2016-02-17T15:00:47Z</time>
      </trkpt>
      <trkpt lat="45.26341" lon="0.46424">
        <ele>117.59997558594</ele>
        <time>2016-02-17T15:00:48Z</time>
      </trkpt>
      <trkpt lat="45.26342" lon="0.46433">
        <ele>118.79998779297</ele>
        <time>2016-02-17T15:00:52Z</time>
      </trkpt>
      <trkpt lat="45.26343" lon="0.46439">
        <ele>119.59997558594</ele>
        <time>2016-02-17T15:00:55Z</time>
      </trkpt>
      <trkpt lat="45.26343" lon="0.46441">
        <ele>119.79998779297</ele>
        <time>2016-02-17T15:00:56Z</time>
      </trkpt>
      <trkpt lat="45.26343" lon="0.4645">
        <ele>121</ele>
        <time>2016-02-17T15:01:00Z</time>
      </trkpt>
      <trkpt lat="45.26343" lon="0.46458">
        <ele>122</ele>
        <time>2016-02-17T15:01:03Z</time>
      </trkpt>
      <trkpt lat="45.26343" lon="0.46461">
        <ele>122.20001220703</ele>
        <time>2016-02-17T15:01:04Z</time>
      </trkpt>
      <trkpt lat="45.26344" lon="0.46471">
        <ele>123.40002441406</ele>
        <time>2016-02-17T15:01:08Z</time>
      </trkpt>
      <trkpt lat="45.26343" lon="0.4648">
        <ele>124.59997558594</ele>
        <time>2016-02-17T15:01:12Z</time>
      </trkpt>
      <trkpt lat="45.26343" lon="0.46489">
        <ele>125.59997558594</ele>
        <time>2016-02-17T15:01:16Z</time>
      </trkpt>
      <trkpt lat="45.26342" lon="0.465">
        <ele>126.79998779297</ele>
        <time>2016-02-17T15:01:21Z</time>
      </trkpt>
      <trkpt lat="45.26342" lon="0.46504">
        <ele>127.20001220703</ele>
        <time>2016-02-17T15:01:23Z</time>
      </trkpt>
      <trkpt lat="45.26344" lon="0.46507">
        <ele>128</ele>
        <time>2016-02-17T15:01:26Z</time>
      </trkpt>
      <trkpt lat="45.26346" lon="0.46508">
        <ele>129.40002441406</ele>
        <time>2016-02-17T15:02:43Z</time>
      </trkpt>
      <trkpt lat="45.26349" lon="0.46507">
        <ele>129.59997558594</ele>
        <time>2016-02-17T15:02:45Z</time>
      </trkpt>
      <trkpt lat="45.26359" lon="0.46505">
        <ele>130.40002441406</ele>
        <time>2016-02-17T15:02:50Z</time>
      </trkpt>
      <trkpt lat="45.26361" lon="0.46505">
        <ele>130.59997558594</ele>
        <time>2016-02-17T15:02:51Z</time>
      </trkpt>
      <trkpt lat="45.2637" lon="0.46499">
        <ele>131.59997558594</ele>
        <time>2016-02-17T15:02:55Z</time>
      </trkpt>
      <trkpt lat="45.26383" lon="0.46488">
        <ele>132.79998779297</ele>
        <time>2016-02-17T15:03:01Z</time>
      </trkpt>
      <trkpt lat="45.26388" lon="0.46486">
        <ele>133.20001220703</ele>
        <time>2016-02-17T15:03:03Z</time>
      </trkpt>
      <trkpt lat="45.26396" lon="0.46484">
        <ele>133.79998779297</ele>
        <time>2016-02-17T15:03:06Z</time>
      </trkpt>
      <trkpt lat="45.264" lon="0.4648">
        <ele>134</ele>
        <time>2016-02-17T15:03:08Z</time>
      </trkpt>
      <trkpt lat="45.26401" lon="0.46478">
        <ele>134.20001220703</ele>
        <time>2016-02-17T15:03:09Z</time>
      </trkpt>
      <trkpt lat="45.26416" lon="0.46465">
        <ele>134.79998779297</ele>
        <time>2016-02-17T15:03:15Z</time>
      </trkpt>
      <trkpt lat="45.2643" lon="0.46464">
        <ele>135.20001220703</ele>
        <time>2016-02-17T15:03:20Z</time>
      </trkpt>
      <trkpt lat="45.26441" lon="0.46469">
        <ele>135.79998779297</ele>
        <time>2016-02-17T15:03:24Z</time>
      </trkpt>
      <trkpt lat="45.26447" lon="0.46474">
        <ele>136.79998779297</ele>
        <time>2016-02-17T15:03:27Z</time>
      </trkpt>
      <trkpt lat="45.26449" lon="0.46475">
        <ele>137</ele>
        <time>2016-02-17T15:03:28Z</time>
      </trkpt>
      <trkpt lat="45.26453" lon="0.4648">
        <ele>138.20001220703</ele>
        <time>2016-02-17T15:03:31Z</time>
      </trkpt>
      <trkpt lat="45.26456" lon="0.46484">
        <ele>138.59997558594</ele>
        <time>2016-02-17T15:03:33Z</time>
      </trkpt>
      <trkpt lat="45.26458" lon="0.46491">
        <ele>139.20001220703</ele>
        <time>2016-02-17T15:03:36Z</time>
      </trkpt>
      <trkpt lat="45.26461" lon="0.46495">
        <ele>140</ele>
        <time>2016-02-17T15:03:39Z</time>
      </trkpt>
      <trkpt lat="45.26462" lon="0.46496">
        <ele>140.40002441406</ele>
        <time>2016-02-17T15:03:40Z</time>
      </trkpt>
      <trkpt lat="45.26465" lon="0.465">
        <ele>141.40002441406</ele>
        <time>2016-02-17T15:03:43Z</time>
      </trkpt>
      <trkpt lat="45.26466" lon="0.46502">
        <ele>141.59997558594</ele>
        <time>2016-02-17T15:03:44Z</time>
      </trkpt>
      <trkpt lat="45.26467" lon="0.46506">
        <ele>142</ele>
        <time>2016-02-17T15:03:46Z</time>
      </trkpt>
      <trkpt lat="45.26468" lon="0.46513">
        <ele>143</ele>
        <time>2016-02-17T15:03:50Z</time>
      </trkpt>
      <trkpt lat="45.26462" lon="0.46534">
        <ele>149.79998779297</ele>
        <time>2016-02-17T15:04:39Z</time>
      </trkpt>
      <trkpt lat="45.2646" lon="0.4654">
        <ele>150.20001220703</ele>
        <time>2016-02-17T15:04:42Z</time>
      </trkpt>
      <trkpt lat="45.2646" lon="0.46542">
        <ele>150.40002441406</ele>
        <time>2016-02-17T15:04:43Z</time>
      </trkpt>
      <trkpt lat="45.26463" lon="0.46547">
        <ele>150.79998779297</ele>
        <time>2016-02-17T15:04:46Z</time>
      </trkpt>
      <trkpt lat="45.26466" lon="0.46547">
        <ele>151.20001220703</ele>
        <time>2016-02-17T15:04:47Z</time>
      </trkpt>
      <trkpt lat="45.26471" lon="0.46548">
        <ele>151.59997558594</ele>
        <time>2016-02-17T15:04:49Z</time>
      </trkpt>
      <trkpt lat="45.26476" lon="0.46549">
        <ele>152</ele>
        <time>2016-02-17T15:04:51Z</time>
      </trkpt>
      <trkpt lat="45.26481" lon="0.46551">
        <ele>152.20001220703</ele>
        <time>2016-02-17T15:04:53Z</time>
      </trkpt>
      <trkpt lat="45.26498" lon="0.4656">
        <ele>153</ele>
        <time>2016-02-17T15:04:59Z</time>
      </trkpt>
      <trkpt lat="45.26501" lon="0.46561">
        <ele>153.20001220703</ele>
        <time>2016-02-17T15:05:00Z</time>
      </trkpt>
      <trkpt lat="45.26512" lon="0.4657">
        <ele>154.20001220703</ele>
        <time>2016-02-17T15:05:05Z</time>
      </trkpt>
      <trkpt lat="45.26514" lon="0.46571">
        <ele>154.40002441406</ele>
        <time>2016-02-17T15:05:06Z</time>
      </trkpt>
      <trkpt lat="45.26521" lon="0.46575">
        <ele>155.20001220703</ele>
        <time>2016-02-17T15:05:09Z</time>
      </trkpt>
      <trkpt lat="45.26527" lon="0.46584">
        <ele>155.79998779297</ele>
        <time>2016-02-17T15:05:12Z</time>
      </trkpt>
      <trkpt lat="45.26529" lon="0.46594">
        <ele>156.40002441406</ele>
        <time>2016-02-17T15:05:15Z</time>
      </trkpt>
      <trkpt lat="45.26531" lon="0.46604">
        <ele>157.20001220703</ele>
        <time>2016-02-17T15:05:18Z</time>
      </trkpt>
      <trkpt lat="45.26532" lon="0.46606">
        <ele>157.59997558594</ele>
        <time>2016-02-17T15:05:19Z</time>
      </trkpt>
      <trkpt lat="45.26538" lon="0.46614">
        <ele>158.79998779297</ele>
        <time>2016-02-17T15:05:23Z</time>
      </trkpt>
      <trkpt lat="45.26539" lon="0.46615">
        <ele>159</ele>
        <time>2016-02-17T15:05:24Z</time>
      </trkpt>
      <trkpt lat="45.26546" lon="0.46618">
        <ele>159.79998779297</ele>
        <time>2016-02-17T15:05:27Z</time>
      </trkpt>
      <trkpt lat="45.26552" lon="0.46619">
        <ele>160.40002441406</ele>
        <time>2016-02-17T15:05:30Z</time>
      </trkpt>
      <trkpt lat="45.26557" lon="0.46619">
        <ele>161</ele>
        <time>2016-02-17T15:05:32Z</time>
      </trkpt>
      <trkpt lat="45.26566" lon="0.46618">
        <ele>162</ele>
        <time>2016-02-17T15:05:36Z</time>
      </trkpt>
      <trkpt lat="45.26571" lon="0.46617">
        <ele>162.59997558594</ele>
        <time>2016-02-17T15:05:38Z</time>
      </trkpt>
      <trkpt lat="45.26575" lon="0.46617">
        <ele>163.20001220703</ele>
        <time>2016-02-17T15:05:40Z</time>
      </trkpt>
      <trkpt lat="45.26588" lon="0.46613">
        <ele>164.20001220703</ele>
        <time>2016-02-17T15:05:45Z</time>
      </trkpt>
      <trkpt lat="45.26599" lon="0.46612">
        <ele>165.20001220703</ele>
        <time>2016-02-17T15:05:50Z</time>
      </trkpt>
      <trkpt lat="45.26604" lon="0.4661">
        <ele>165.79998779297</ele>
        <time>2016-02-17T15:05:52Z</time>
      </trkpt>
      <trkpt lat="45.26612" lon="0.46608">
        <ele>166.20001220703</ele>
        <time>2016-02-17T15:05:57Z</time>
      </trkpt>
      <trkpt lat="45.26618" lon="0.46607">
        <ele>166.79998779297</ele>
        <time>2016-02-17T15:06:00Z</time>
      </trkpt>
      <trkpt lat="45.26626" lon="0.46607">
        <ele>167.40002441406</ele>
        <time>2016-02-17T15:06:04Z</time>
      </trkpt>
      <trkpt lat="45.26631" lon="0.46606">
        <ele>167.79998779297</ele>
        <time>2016-02-17T15:06:06Z</time>
      </trkpt>
      <trkpt lat="45.2664" lon="0.46606">
        <ele>168.59997558594</ele>
        <time>2016-02-17T15:06:10Z</time>
      </trkpt>
      <trkpt lat="45.26649" lon="0.46605">
        <ele>168.79998779297</ele>
        <time>2016-02-17T15:06:14Z</time>
      </trkpt>
      <trkpt lat="45.26658" lon="0.4661">
        <ele>169.40002441406</ele>
        <time>2016-02-17T15:06:18Z</time>
      </trkpt>
      <trkpt lat="45.26657" lon="0.46614">
        <ele>169.40002441406</ele>
        <time>2016-02-17T15:06:19Z</time>
      </trkpt>
      <trkpt lat="45.26649" lon="0.46624">
        <ele>169.40002441406</ele>
        <time>2016-02-17T15:06:23Z</time>
      </trkpt>
      <trkpt lat="45.26646" lon="0.46628">
        <ele>169.20001220703</ele>
        <time>2016-02-17T15:06:24Z</time>
      </trkpt>
      <trkpt lat="45.26626" lon="0.46652">
        <ele>168.59997558594</ele>
        <time>2016-02-17T15:06:30Z</time>
      </trkpt>
      <trkpt lat="45.26608" lon="0.46686">
        <ele>167.40002441406</ele>
        <time>2016-02-17T15:06:36Z</time>
      </trkpt>
      <trkpt lat="45.266" lon="0.46723">
        <ele>166.20001220703</ele>
        <time>2016-02-17T15:06:40Z</time>
      </trkpt>
      <trkpt lat="45.26599" lon="0.46745">
        <ele>165.40002441406</ele>
        <time>2016-02-17T15:06:42Z</time>
      </trkpt>
      <trkpt lat="45.26599" lon="0.46756">
        <ele>164.79998779297</ele>
        <time>2016-02-17T15:06:43Z</time>
      </trkpt>
      <trkpt lat="45.266" lon="0.46767">
        <ele>164.40002441406</ele>
        <time>2016-02-17T15:06:44Z</time>
      </trkpt>
      <trkpt lat="45.26601" lon="0.46779">
        <ele>163.79998779297</ele>
        <time>2016-02-17T15:06:45Z</time>
      </trkpt>
      <trkpt lat="45.26603" lon="0.46801">
        <ele>162.59997558594</ele>
        <time>2016-02-17T15:06:47Z</time>
      </trkpt>
      <trkpt lat="45.26605" lon="0.46822">
        <ele>161.40002441406</ele>
        <time>2016-02-17T15:06:49Z</time>
      </trkpt>
      <trkpt lat="45.26606" lon="0.46852">
        <ele>160.20001220703</ele>
        <time>2016-02-17T15:06:52Z</time>
      </trkpt>
      <trkpt lat="45.26606" lon="0.46861">
        <ele>159.79998779297</ele>
        <time>2016-02-17T15:06:53Z</time>
      </trkpt>
      <trkpt lat="45.26605" lon="0.4687">
        <ele>159.20001220703</ele>
        <time>2016-02-17T15:06:54Z</time>
      </trkpt>
      <trkpt lat="45.26604" lon="0.46879">
        <ele>158.79998779297</ele>
        <time>2016-02-17T15:06:55Z</time>
      </trkpt>
      <trkpt lat="45.26602" lon="0.46895">
        <ele>157.59997558594</ele>
        <time>2016-02-17T15:06:57Z</time>
      </trkpt>
      <trkpt lat="45.26599" lon="0.46917">
        <ele>156.79998779297</ele>
        <time>2016-02-17T15:07:00Z</time>
      </trkpt>
      <trkpt lat="45.26597" lon="0.46928">
        <ele>156.59997558594</ele>
        <time>2016-02-17T15:07:02Z</time>
      </trkpt>
      <trkpt lat="45.26595" lon="0.46945">
        <ele>155.79998779297</ele>
        <time>2016-02-17T15:07:05Z</time>
      </trkpt>
      <trkpt lat="45.26594" lon="0.46956">
        <ele>155.40002441406</ele>
        <time>2016-02-17T15:07:07Z</time>
      </trkpt>
      <trkpt lat="45.26593" lon="0.46993">
        <ele>154.79998779297</ele>
        <time>2016-02-17T15:07:13Z</time>
      </trkpt>
      <trkpt lat="45.26593" lon="0.47024">
        <ele>154.20001220703</ele>
        <time>2016-02-17T15:07:17Z</time>
      </trkpt>
      <trkpt lat="45.26595" lon="0.47032">
        <ele>154</ele>
        <time>2016-02-17T15:07:18Z</time>
      </trkpt>
      <trkpt lat="45.266" lon="0.47047">
        <ele>153.40002441406</ele>
        <time>2016-02-17T15:07:20Z</time>
      </trkpt>
      <trkpt lat="45.26604" lon="0.47055">
        <ele>153</ele>
        <time>2016-02-17T15:07:21Z</time>
      </trkpt>
      <trkpt lat="45.2661" lon="0.47061">
        <ele>152.59997558594</ele>
        <time>2016-02-17T15:07:22Z</time>
      </trkpt>
      <trkpt lat="45.26619" lon="0.47073">
        <ele>151.79998779297</ele>
        <time>2016-02-17T15:07:24Z</time>
      </trkpt>
      <trkpt lat="45.26636" lon="0.4709">
        <ele>150</ele>
        <time>2016-02-17T15:07:27Z</time>
      </trkpt>
      <trkpt lat="45.26641" lon="0.47093">
        <ele>147.59997558594</ele>
        <time>2016-02-17T15:07:28Z</time>
      </trkpt>
      <trkpt lat="45.26646" lon="0.47096">
        <ele>146.40002441406</ele>
        <time>2016-02-17T15:07:29Z</time>
      </trkpt>
      <trkpt lat="45.2665" lon="0.47102">
        <ele>145.20001220703</ele>
        <time>2016-02-17T15:07:30Z</time>
      </trkpt>
      <trkpt lat="45.26653" lon="0.47111">
        <ele>144</ele>
        <time>2016-02-17T15:07:31Z</time>
      </trkpt>
      <trkpt lat="45.26654" lon="0.47121">
        <ele>142.79998779297</ele>
        <time>2016-02-17T15:07:32Z</time>
      </trkpt>
      <trkpt lat="45.26655" lon="0.4713">
        <ele>141.59997558594</ele>
        <time>2016-02-17T15:07:33Z</time>
      </trkpt>
      <trkpt lat="45.26657" lon="0.4714">
        <ele>140.40002441406</ele>
        <time>2016-02-17T15:07:34Z</time>
      </trkpt>
      <trkpt lat="45.26662" lon="0.47161">
        <ele>138.59997558594</ele>
        <time>2016-02-17T15:07:36Z</time>
      </trkpt>
      <trkpt lat="45.26664" lon="0.47173">
        <ele>138</ele>
        <time>2016-02-17T15:07:37Z</time>
      </trkpt>
      <trkpt lat="45.26665" lon="0.47184">
        <ele>137.40002441406</ele>
        <time>2016-02-17T15:07:38Z</time>
      </trkpt>
      <trkpt lat="45.26669" lon="0.47209">
        <ele>136.20001220703</ele>
        <time>2016-02-17T15:07:40Z</time>
      </trkpt>
      <trkpt lat="45.26675" lon="0.47235">
        <ele>134.79998779297</ele>
        <time>2016-02-17T15:07:42Z</time>
      </trkpt>
      <trkpt lat="45.26683" lon="0.47262">
        <ele>133</ele>
        <time>2016-02-17T15:07:44Z</time>
      </trkpt>
      <trkpt lat="45.26686" lon="0.47275">
        <ele>132.20001220703</ele>
        <time>2016-02-17T15:07:45Z</time>
      </trkpt>
      <trkpt lat="45.2669" lon="0.47289">
        <ele>131.20001220703</ele>
        <time>2016-02-17T15:07:46Z</time>
      </trkpt>
      <trkpt lat="45.26692" lon="0.47303">
        <ele>130</ele>
        <time>2016-02-17T15:07:47Z</time>
      </trkpt>
      <trkpt lat="45.26695" lon="0.47318">
        <ele>128.79998779297</ele>
        <time>2016-02-17T15:07:48Z</time>
      </trkpt>
      <trkpt lat="45.26697" lon="0.47332">
        <ele>127.20001220703</ele>
        <time>2016-02-17T15:07:49Z</time>
      </trkpt>
      <trkpt lat="45.26698" lon="0.47347">
        <ele>125.79998779297</ele>
        <time>2016-02-17T15:07:50Z</time>
      </trkpt>
      <trkpt lat="45.267" lon="0.47361">
        <ele>124.20001220703</ele>
        <time>2016-02-17T15:07:51Z</time>
      </trkpt>
      <trkpt lat="45.26702" lon="0.47375">
        <ele>121.20001220703</ele>
        <time>2016-02-17T15:07:52Z</time>
      </trkpt>
      <trkpt lat="45.26703" lon="0.47388">
        <ele>119.79998779297</ele>
        <time>2016-02-17T15:07:53Z</time>
      </trkpt>
      <trkpt lat="45.26704" lon="0.474">
        <ele>118</ele>
        <time>2016-02-17T15:07:54Z</time>
      </trkpt>
      <trkpt lat="45.26706" lon="0.47412">
        <ele>116</ele>
        <time>2016-02-17T15:07:55Z</time>
      </trkpt>
      <trkpt lat="45.26707" lon="0.47422">
        <ele>113.79998779297</ele>
        <time>2016-02-17T15:07:56Z</time>
      </trkpt>
      <trkpt lat="45.26707" lon="0.47431">
        <ele>111.59997558594</ele>
        <time>2016-02-17T15:07:57Z</time>
      </trkpt>
      <trkpt lat="45.26706" lon="0.47438">
        <ele>109.40002441406</ele>
        <time>2016-02-17T15:07:58Z</time>
      </trkpt>
      <trkpt lat="45.26707" lon="0.47442">
        <ele>106.79998779297</ele>
        <time>2016-02-17T15:07:59Z</time>
      </trkpt>
      <trkpt lat="45.2671" lon="0.47444">
        <ele>104.40002441406</ele>
        <time>2016-02-17T15:08:00Z</time>
      </trkpt>
      <trkpt lat="45.26713" lon="0.47443">
        <ele>102.40002441406</ele>
        <time>2016-02-17T15:08:01Z</time>
      </trkpt>
      <trkpt lat="45.26715" lon="0.47441">
        <ele>100.59997558594</ele>
        <time>2016-02-17T15:08:02Z</time>
      </trkpt>
      <trkpt lat="45.26718" lon="0.47439">
        <ele>99.400024414062</ele>
        <time>2016-02-17T15:08:03Z</time>
      </trkpt>
      <trkpt lat="45.26725" lon="0.47434">
        <ele>98</ele>
        <time>2016-02-17T15:08:05Z</time>
      </trkpt>
      <trkpt lat="45.26729" lon="0.47432">
        <ele>97.799987792969</ele>
        <time>2016-02-17T15:08:06Z</time>
      </trkpt>
      <trkpt lat="45.26752" lon="0.47414">
        <ele>98</ele>
        <time>2016-02-17T15:08:13Z</time>
      </trkpt>
      <trkpt lat="45.26773" lon="0.47393">
        <ele>98.799987792969</ele>
        <time>2016-02-17T15:08:20Z</time>
      </trkpt>
      <trkpt lat="45.26775" lon="0.4739">
        <ele>99</ele>
        <time>2016-02-17T15:08:21Z</time>
      </trkpt>
      <trkpt lat="45.26791" lon="0.47368">
        <ele>99.599975585938</ele>
        <time>2016-02-17T15:08:27Z</time>
      </trkpt>
      <trkpt lat="45.26799" lon="0.47355">
        <ele>100</ele>
        <time>2016-02-17T15:08:30Z</time>
      </trkpt>
      <trkpt lat="45.26812" lon="0.47334">
        <ele>100.59997558594</ele>
        <time>2016-02-17T15:08:35Z</time>
      </trkpt>
      <trkpt lat="45.26829" lon="0.47299">
        <ele>101.20001220703</ele>
        <time>2016-02-17T15:08:42Z</time>
      </trkpt>
      <trkpt lat="45.26832" lon="0.47288">
        <ele>101.40002441406</ele>
        <time>2016-02-17T15:08:44Z</time>
      </trkpt>
      <trkpt lat="45.26839" lon="0.47254">
        <ele>102.20001220703</ele>
        <time>2016-02-17T15:08:50Z</time>
      </trkpt>
      <trkpt lat="45.26841" lon="0.47237">
        <ele>102.59997558594</ele>
        <time>2016-02-17T15:08:53Z</time>
      </trkpt>
      <trkpt lat="45.26841" lon="0.4722">
        <ele>103.20001220703</ele>
        <time>2016-02-17T15:08:56Z</time>
      </trkpt>
      <trkpt lat="45.26839" lon="0.47193">
        <ele>104.40002441406</ele>
        <time>2016-02-17T15:09:01Z</time>
      </trkpt>
      <trkpt lat="45.26839" lon="0.47182">
        <ele>104.59997558594</ele>
        <time>2016-02-17T15:09:03Z</time>
      </trkpt>
      <trkpt lat="45.2684" lon="0.47162">
        <ele>105.40002441406</ele>
        <time>2016-02-17T15:09:07Z</time>
      </trkpt>
      <trkpt lat="45.26843" lon="0.47159">
        <ele>105.59997558594</ele>
        <time>2016-02-17T15:09:08Z</time>
      </trkpt>
      <trkpt lat="45.26846" lon="0.47157">
        <ele>105.59997558594</ele>
        <time>2016-02-17T15:09:09Z</time>
      </trkpt>
      <trkpt lat="45.26857" lon="0.47162">
        <ele>106.20001220703</ele>
        <time>2016-02-17T15:09:12Z</time>
      </trkpt>
      <trkpt lat="45.2686" lon="0.47164">
        <ele>106.40002441406</ele>
        <time>2016-02-17T15:09:13Z</time>
      </trkpt>
      <trkpt lat="45.26881" lon="0.47174">
        <ele>107.20001220703</ele>
        <time>2016-02-17T15:09:19Z</time>
      </trkpt>
      <trkpt lat="45.26887" lon="0.47177">
        <ele>107.59997558594</ele>
        <time>2016-02-17T15:09:21Z</time>
      </trkpt>
      <trkpt lat="45.26898" lon="0.47183">
        <ele>108.59997558594</ele>
        <time>2016-02-17T15:09:25Z</time>
      </trkpt>
      <trkpt lat="45.26901" lon="0.47185">
        <ele>108.79998779297</ele>
        <time>2016-02-17T15:09:26Z</time>
      </trkpt>
      <trkpt lat="45.26909" lon="0.47187">
        <ele>110</ele>
        <time>2016-02-17T15:09:29Z</time>
      </trkpt>
      <trkpt lat="45.26917" lon="0.47187">
        <ele>111</ele>
        <time>2016-02-17T15:09:32Z</time>
      </trkpt>
      <trkpt lat="45.26927" lon="0.47186">
        <ele>112.40002441406</ele>
        <time>2016-02-17T15:09:36Z</time>
      </trkpt>
      <trkpt lat="45.26934" lon="0.47185">
        <ele>113.40002441406</ele>
        <time>2016-02-17T15:09:39Z</time>
      </trkpt>
      <trkpt lat="45.26941" lon="0.47182">
        <ele>114.59997558594</ele>
        <time>2016-02-17T15:09:43Z</time>
      </trkpt>
      <trkpt lat="45.26947" lon="0.47183">
        <ele>115.59997558594</ele>
        <time>2016-02-17T15:09:46Z</time>
      </trkpt>
      <trkpt lat="45.26954" lon="0.4718">
        <ele>116.79998779297</ele>
        <time>2016-02-17T15:09:50Z</time>
      </trkpt>
      <trkpt lat="45.26957" lon="0.47179">
        <ele>117.79998779297</ele>
        <time>2016-02-17T15:09:52Z</time>
      </trkpt>
      <trkpt lat="45.26959" lon="0.47178">
        <ele>118.20001220703</ele>
        <time>2016-02-17T15:09:53Z</time>
      </trkpt>
      <trkpt lat="45.26967" lon="0.47176">
        <ele>119.20001220703</ele>
        <time>2016-02-17T15:09:57Z</time>
      </trkpt>
      <trkpt lat="45.26971" lon="0.47174">
        <ele>119.59997558594</ele>
        <time>2016-02-17T15:09:59Z</time>
      </trkpt>
      <trkpt lat="45.26977" lon="0.47171">
        <ele>120.40002441406</ele>
        <time>2016-02-17T15:10:02Z</time>
      </trkpt>
      <trkpt lat="45.26987" lon="0.47166">
        <ele>121.40002441406</ele>
        <time>2016-02-17T15:10:07Z</time>
      </trkpt>
      <trkpt lat="45.27002" lon="0.47159">
        <ele>122.40002441406</ele>
        <time>2016-02-17T15:10:13Z</time>
      </trkpt>
      <trkpt lat="45.27005" lon="0.47158">
        <ele>122.59997558594</ele>
        <time>2016-02-17T15:10:14Z</time>
      </trkpt>
      <trkpt lat="45.27018" lon="0.47164">
        <ele>123</ele>
        <time>2016-02-17T15:10:18Z</time>
      </trkpt>
      <trkpt lat="45.2702" lon="0.4717">
        <ele>123</ele>
        <time>2016-02-17T15:10:19Z</time>
      </trkpt>
      <trkpt lat="45.27026" lon="0.47185">
        <ele>123</ele>
        <time>2016-02-17T15:10:21Z</time>
      </trkpt>
      <trkpt lat="45.27045" lon="0.47217">
        <ele>122.20001220703</ele>
        <time>2016-02-17T15:10:25Z</time>
      </trkpt>
      <trkpt lat="45.27061" lon="0.47244">
        <ele>121.20001220703</ele>
        <time>2016-02-17T15:10:28Z</time>
      </trkpt>
      <trkpt lat="45.27068" lon="0.47262">
        <ele>120.20001220703</ele>
        <time>2016-02-17T15:10:30Z</time>
      </trkpt>
      <trkpt lat="45.27071" lon="0.47271">
        <ele>119.59997558594</ele>
        <time>2016-02-17T15:10:31Z</time>
      </trkpt>
      <trkpt lat="45.27076" lon="0.47287">
        <ele>118.20001220703</ele>
        <time>2016-02-17T15:10:33Z</time>
      </trkpt>
      <trkpt lat="45.27081" lon="0.47301">
        <ele>117.59997558594</ele>
        <time>2016-02-17T15:10:35Z</time>
      </trkpt>
      <trkpt lat="45.27084" lon="0.47308">
        <ele>117.59997558594</ele>
        <time>2016-02-17T15:10:36Z</time>
      </trkpt>
      <trkpt lat="45.27095" lon="0.47332">
        <ele>117.79998779297</ele>
        <time>2016-02-17T15:10:40Z</time>
      </trkpt>
      <trkpt lat="45.27114" lon="0.47367">
        <ele>119.40002441406</ele>
        <time>2016-02-17T15:10:47Z</time>
      </trkpt>
      <trkpt lat="45.27123" lon="0.47386">
        <ele>120.40002441406</ele>
        <time>2016-02-17T15:10:51Z</time>
      </trkpt>
      <trkpt lat="45.27127" lon="0.47394">
        <ele>121</ele>
        <time>2016-02-17T15:10:53Z</time>
      </trkpt>
      <trkpt lat="45.27131" lon="0.47402">
        <ele>121.59997558594</ele>
        <time>2016-02-17T15:10:55Z</time>
      </trkpt>
      <trkpt lat="45.27137" lon="0.47418">
        <ele>122.79998779297</ele>
        <time>2016-02-17T15:10:59Z</time>
      </trkpt>
      <trkpt lat="45.27134" lon="0.47434">
        <ele>124</ele>
        <time>2016-02-17T15:11:03Z</time>
      </trkpt>
      <trkpt lat="45.27132" lon="0.47438">
        <ele>124.59997558594</ele>
        <time>2016-02-17T15:11:04Z</time>
      </trkpt>
      <trkpt lat="45.27131" lon="0.47442">
        <ele>125</ele>
        <time>2016-02-17T15:11:05Z</time>
      </trkpt>
      <trkpt lat="45.27122" lon="0.47455">
        <ele>126</ele>
        <time>2016-02-17T15:11:09Z</time>
      </trkpt>
      <trkpt lat="45.2712" lon="0.47458">
        <ele>126.40002441406</ele>
        <time>2016-02-17T15:11:10Z</time>
      </trkpt>
      <trkpt lat="45.27113" lon="0.47472">
        <ele>127.20001220703</ele>
        <time>2016-02-17T15:11:14Z</time>
      </trkpt>
      <trkpt lat="45.27109" lon="0.47481">
        <ele>127.79998779297</ele>
        <time>2016-02-17T15:11:17Z</time>
      </trkpt>
      <trkpt lat="45.27107" lon="0.47487">
        <ele>128.40002441406</ele>
        <time>2016-02-17T15:11:19Z</time>
      </trkpt>
      <trkpt lat="45.27104" lon="0.47499">
        <ele>129.59997558594</ele>
        <time>2016-02-17T15:11:22Z</time>
      </trkpt>
      <trkpt lat="45.27103" lon="0.47503">
        <ele>130</ele>
        <time>2016-02-17T15:11:23Z</time>
      </trkpt>
      <trkpt lat="45.27101" lon="0.47511">
        <ele>130.59997558594</ele>
        <time>2016-02-17T15:11:25Z</time>
      </trkpt>
      <trkpt lat="45.27098" lon="0.47521">
        <ele>132.40002441406</ele>
        <time>2016-02-17T15:11:28Z</time>
      </trkpt>
      <trkpt lat="45.27098" lon="0.47528">
        <ele>133.20001220703</ele>
        <time>2016-02-17T15:11:30Z</time>
      </trkpt>
      <trkpt lat="45.27097" lon="0.47531">
        <ele>133.59997558594</ele>
        <time>2016-02-17T15:11:31Z</time>
      </trkpt>
      <trkpt lat="45.27097" lon="0.47539">
        <ele>134.79998779297</ele>
        <time>2016-02-17T15:11:34Z</time>
      </trkpt>
      <trkpt lat="45.27096" lon="0.47544">
        <ele>135.59997558594</ele>
        <time>2016-02-17T15:11:36Z</time>
      </trkpt>
      <trkpt lat="45.27096" lon="0.47546">
        <ele>136</ele>
        <time>2016-02-17T15:11:37Z</time>
      </trkpt>
      <trkpt lat="45.27096" lon="0.47553">
        <ele>137.20001220703</ele>
        <time>2016-02-17T15:11:40Z</time>
      </trkpt>
      <trkpt lat="45.27093" lon="0.47559">
        <ele>138</ele>
        <time>2016-02-17T15:11:43Z</time>
      </trkpt>
      <trkpt lat="45.27091" lon="0.4756">
        <ele>138.40002441406</ele>
        <time>2016-02-17T15:11:44Z</time>
      </trkpt>
      <trkpt lat="45.27083" lon="0.4756">
        <ele>139.59997558594</ele>
        <time>2016-02-17T15:11:47Z</time>
      </trkpt>
      <trkpt lat="45.2708" lon="0.47559">
        <ele>139.79998779297</ele>
        <time>2016-02-17T15:11:48Z</time>
      </trkpt>
      <trkpt lat="45.27057" lon="0.47549">
        <ele>140.40002441406</ele>
        <time>2016-02-17T15:11:54Z</time>
      </trkpt>
      <trkpt lat="45.27043" lon="0.47539">
        <ele>140.40002441406</ele>
        <time>2016-02-17T15:11:58Z</time>
      </trkpt>
      <trkpt lat="45.27037" lon="0.47531">
        <ele>140.40002441406</ele>
        <time>2016-02-17T15:12:00Z</time>
      </trkpt>
      <trkpt lat="45.27034" lon="0.47527">
        <ele>140.40002441406</ele>
        <time>2016-02-17T15:12:01Z</time>
      </trkpt>
      <trkpt lat="45.27019" lon="0.47508">
        <ele>140.59997558594</ele>
        <time>2016-02-17T15:12:06Z</time>
      </trkpt>
      <trkpt lat="45.27015" lon="0.47505">
        <ele>140.79998779297</ele>
        <time>2016-02-17T15:12:07Z</time>
      </trkpt>
      <trkpt lat="45.26997" lon="0.47499">
        <ele>141</ele>
        <time>2016-02-17T15:12:11Z</time>
      </trkpt>
      <trkpt lat="45.26992" lon="0.47499">
        <ele>141</ele>
        <time>2016-02-17T15:12:12Z</time>
      </trkpt>
      <trkpt lat="45.26982" lon="0.47502">
        <ele>141</ele>
        <time>2016-02-17T15:12:14Z</time>
      </trkpt>
      <trkpt lat="45.26972" lon="0.47509">
        <ele>140.40002441406</ele>
        <time>2016-02-17T15:12:16Z</time>
      </trkpt>
      <trkpt lat="45.26961" lon="0.47528">
        <ele>139.79998779297</ele>
        <time>2016-02-17T15:12:19Z</time>
      </trkpt>
      <trkpt lat="45.26957" lon="0.47535">
        <ele>139.59997558594</ele>
        <time>2016-02-17T15:12:20Z</time>
      </trkpt>
      <trkpt lat="45.26936" lon="0.47571">
        <ele>138.40002441406</ele>
        <time>2016-02-17T15:12:25Z</time>
      </trkpt>
      <trkpt lat="45.26932" lon="0.47578">
        <ele>138.20001220703</ele>
        <time>2016-02-17T15:12:26Z</time>
      </trkpt>
      <trkpt lat="45.26919" lon="0.47599">
        <ele>137.40002441406</ele>
        <time>2016-02-17T15:12:29Z</time>
      </trkpt>
      <trkpt lat="45.26916" lon="0.47607">
        <ele>137.20001220703</ele>
        <time>2016-02-17T15:12:30Z</time>
      </trkpt>
      <trkpt lat="45.26907" lon="0.47642">
        <ele>136.79998779297</ele>
        <time>2016-02-17T15:12:35Z</time>
      </trkpt>
      <trkpt lat="45.26904" lon="0.47654">
        <ele>136.79998779297</ele>
        <time>2016-02-17T15:12:37Z</time>
      </trkpt>
      <trkpt lat="45.26903" lon="0.47671">
        <ele>137.59997558594</ele>
        <time>2016-02-17T15:12:40Z</time>
      </trkpt>
      <trkpt lat="45.26906" lon="0.47687">
        <ele>138.79998779297</ele>
        <time>2016-02-17T15:12:43Z</time>
      </trkpt>
      <trkpt lat="45.26908" lon="0.47691">
        <ele>139.20001220703</ele>
        <time>2016-02-17T15:12:44Z</time>
      </trkpt>
      <trkpt lat="45.2691" lon="0.47696">
        <ele>139.79998779297</ele>
        <time>2016-02-17T15:12:45Z</time>
      </trkpt>
      <trkpt lat="45.26914" lon="0.47704">
        <ele>140.79998779297</ele>
        <time>2016-02-17T15:12:47Z</time>
      </trkpt>
      <trkpt lat="45.26918" lon="0.47713">
        <ele>142.20001220703</ele>
        <time>2016-02-17T15:12:49Z</time>
      </trkpt>
      <trkpt lat="45.2692" lon="0.47721">
        <ele>143.59997558594</ele>
        <time>2016-02-17T15:12:51Z</time>
      </trkpt>
      <trkpt lat="45.26922" lon="0.47728">
        <ele>144.79998779297</ele>
        <time>2016-02-17T15:12:53Z</time>
      </trkpt>
      <trkpt lat="45.26924" lon="0.47734">
        <ele>145.79998779297</ele>
        <time>2016-02-17T15:12:55Z</time>
      </trkpt>
      <trkpt lat="45.26926" lon="0.47743">
        <ele>147</ele>
        <time>2016-02-17T15:12:58Z</time>
      </trkpt>
      <trkpt lat="45.26927" lon="0.47752">
        <ele>148.20001220703</ele>
        <time>2016-02-17T15:13:01Z</time>
      </trkpt>
      <trkpt lat="45.26926" lon="0.47758">
        <ele>148.79998779297</ele>
        <time>2016-02-17T15:13:03Z</time>
      </trkpt>
      <trkpt lat="45.26923" lon="0.47762">
        <ele>149</ele>
        <time>2016-02-17T15:13:05Z</time>
      </trkpt>
      <trkpt lat="45.26917" lon="0.47765">
        <ele>149</ele>
        <time>2016-02-17T15:13:07Z</time>
      </trkpt>
      <trkpt lat="45.26907" lon="0.4777">
        <ele>148.79998779297</ele>
        <time>2016-02-17T15:13:10Z</time>
      </trkpt>
      <trkpt lat="45.26901" lon="0.47777">
        <ele>148.79998779297</ele>
        <time>2016-02-17T15:13:12Z</time>
      </trkpt>
      <trkpt lat="45.26901" lon="0.47783">
        <ele>148.79998779297</ele>
        <time>2016-02-17T15:13:13Z</time>
      </trkpt>
      <trkpt lat="45.26902" lon="0.47801">
        <ele>148.40002441406</ele>
        <time>2016-02-17T15:13:17Z</time>
      </trkpt>
      <trkpt lat="45.26893" lon="0.47807">
        <ele>148</ele>
        <time>2016-02-17T15:13:20Z</time>
      </trkpt>
      <trkpt lat="45.26863" lon="0.47824">
        <ele>148</ele>
        <time>2016-02-17T15:13:29Z</time>
      </trkpt>
      <trkpt lat="45.26844" lon="0.47835">
        <ele>148</ele>
        <time>2016-02-17T15:13:35Z</time>
      </trkpt>
      <trkpt lat="45.26825" lon="0.47846">
        <ele>147.59997558594</ele>
        <time>2016-02-17T15:13:41Z</time>
      </trkpt>
      <trkpt lat="45.26813" lon="0.47852">
        <ele>147.20001220703</ele>
        <time>2016-02-17T15:13:44Z</time>
      </trkpt>
      <trkpt lat="45.26797" lon="0.47854">
        <ele>146.59997558594</ele>
        <time>2016-02-17T15:13:48Z</time>
      </trkpt>
      <trkpt lat="45.2679" lon="0.47845">
        <ele>146.20001220703</ele>
        <time>2016-02-17T15:13:51Z</time>
      </trkpt>
    </trkseg>
  </trk>
</gpx>